<?xml version="1.0" encoding="utf-8"?>
<gpx xmlns:xsi="http://www.w3.org/2001/XMLSchema-instance" xmlns:xsd="http://www.w3.org/2001/XMLSchema" version="1.1" creator="Shapelink.com" xmlns="http://www.topografix.com/GPX/1/1" xmlns:gpxtpx="http://www.garmin.com/xmlschemas/TrackPointExtension/v1">
  <metadata>
    <name>Nordic Skiing 15.54 km, 2015-01-01</name>
    <desc></desc>
    <author><name>Stefan Östlund</name></author> 
    <time>2015-01-01T10:07:57Z</time>
  </metadata>
  <trk>
    <name>Nordic Skiing 15.54 km, 2015-01-01</name>
    <trkseg>
      <trkpt lat="63.838810510933" lon="20.343099189922">
        <ele>89.6</ele>
        <time>2015-01-01T10:07:57Z</time>
      </trkpt>
      <trkpt lat="63.838831800967" lon="20.343249393627">
        <ele>87.6</ele>
        <time>2015-01-01T10:08:00Z</time>
      </trkpt>
      <trkpt lat="63.838829118758" lon="20.343430694193">
        <ele>86.4</ele>
        <time>2015-01-01T10:08:03Z</time>
      </trkpt>
      <trkpt lat="63.838824173436" lon="20.343676535413">
        <ele>86.8</ele>
        <time>2015-01-01T10:08:07Z</time>
      </trkpt>
      <trkpt lat="63.838815875351" lon="20.343936877325">
        <ele>87</ele>
        <time>2015-01-01T10:08:11Z</time>
      </trkpt>
      <trkpt lat="63.838810091838" lon="20.344307692721">
        <ele>87</ele>
        <time>2015-01-01T10:08:16Z</time>
      </trkpt>
      <trkpt lat="63.838803218678" lon="20.344770289958">
        <ele>87.6</ele>
        <time>2015-01-01T10:08:23Z</time>
      </trkpt>
      <trkpt lat="63.838775390759" lon="20.345214698464">
        <ele>88</ele>
        <time>2015-01-01T10:08:29Z</time>
      </trkpt>
      <trkpt lat="63.838753094897" lon="20.34564527683">
        <ele>88.6</ele>
        <time>2015-01-01T10:08:35Z</time>
      </trkpt>
      <trkpt lat="63.838737169281" lon="20.345987426117">
        <ele>89.8</ele>
        <time>2015-01-01T10:08:41Z</time>
      </trkpt>
      <trkpt lat="63.838731972501" lon="20.34615254961">
        <ele>91</ele>
        <time>2015-01-01T10:08:44Z</time>
      </trkpt>
      <trkpt lat="63.838717890903" lon="20.346395205706">
        <ele>92</ele>
        <time>2015-01-01T10:08:49Z</time>
      </trkpt>
      <trkpt lat="63.838710850105" lon="20.34660609439">
        <ele>92.6</ele>
        <time>2015-01-01T10:08:53Z</time>
      </trkpt>
      <trkpt lat="63.838707497343" lon="20.346718914807">
        <ele>93</ele>
        <time>2015-01-01T10:08:55Z</time>
      </trkpt>
      <trkpt lat="63.838706156239" lon="20.346808936447">
        <ele>93.2</ele>
        <time>2015-01-01T10:08:57Z</time>
      </trkpt>
      <trkpt lat="63.838709173724" lon="20.347010521218">
        <ele>94</ele>
        <time>2015-01-01T10:09:00Z</time>
      </trkpt>
      <trkpt lat="63.838708503172" lon="20.347076319158">
        <ele>94.2</ele>
        <time>2015-01-01T10:09:01Z</time>
      </trkpt>
      <trkpt lat="63.838685788214" lon="20.347352167591">
        <ele>94.4</ele>
        <time>2015-01-01T10:09:05Z</time>
      </trkpt>
      <trkpt lat="63.838691404089" lon="20.347587447613">
        <ele>94.2</ele>
        <time>2015-01-01T10:09:08Z</time>
      </trkpt>
      <trkpt lat="63.838699031621" lon="20.347651150078">
        <ele>94.2</ele>
        <time>2015-01-01T10:09:09Z</time>
      </trkpt>
      <trkpt lat="63.83872426115" lon="20.347912581638">
        <ele>94.4</ele>
        <time>2015-01-01T10:09:12Z</time>
      </trkpt>
      <trkpt lat="63.838728284463" lon="20.348004782572">
        <ele>94.4</ele>
        <time>2015-01-01T10:09:13Z</time>
      </trkpt>
      <trkpt lat="63.838708419353" lon="20.348303429782">
        <ele>94.4</ele>
        <time>2015-01-01T10:09:16Z</time>
      </trkpt>
      <trkpt lat="63.838687296957" lon="20.348699139431">
        <ele>94.2</ele>
        <time>2015-01-01T10:09:21Z</time>
      </trkpt>
      <trkpt lat="63.838671203703" lon="20.348849091679">
        <ele>94.2</ele>
        <time>2015-01-01T10:09:23Z</time>
        <extensions><gpxtpx:TrackPointExtension><gpxtpx:hr>80</gpxtpx:hr></gpxtpx:TrackPointExtension></extensions>
      </trkpt>
      <trkpt lat="63.838656786829" lon="20.348940538242">
        <ele>94.4</ele>
        <time>2015-01-01T10:09:24Z</time>
        <extensions><gpxtpx:TrackPointExtension><gpxtpx:hr>80</gpxtpx:hr></gpxtpx:TrackPointExtension></extensions>
      </trkpt>
      <trkpt lat="63.838637089357" lon="20.349095268175">
        <ele>94.8</ele>
        <time>2015-01-01T10:09:26Z</time>
        <extensions><gpxtpx:TrackPointExtension><gpxtpx:hr>80</gpxtpx:hr></gpxtpx:TrackPointExtension></extensions>
      </trkpt>
      <trkpt lat="63.838630802929" lon="20.349153857678">
        <ele>95</ele>
        <time>2015-01-01T10:09:27Z</time>
        <extensions><gpxtpx:TrackPointExtension><gpxtpx:hr>87</gpxtpx:hr></gpxtpx:TrackPointExtension></extensions>
      </trkpt>
      <trkpt lat="63.838624851778" lon="20.349230300635">
        <ele>95</ele>
        <time>2015-01-01T10:09:28Z</time>
        <extensions><gpxtpx:TrackPointExtension><gpxtpx:hr>87</gpxtpx:hr></gpxtpx:TrackPointExtension></extensions>
      </trkpt>
      <trkpt lat="63.838630551472" lon="20.349507154897">
        <ele>95.6</ele>
        <time>2015-01-01T10:09:33Z</time>
        <extensions><gpxtpx:TrackPointExtension><gpxtpx:hr>87</gpxtpx:hr></gpxtpx:TrackPointExtension></extensions>
      </trkpt>
      <trkpt lat="63.83865326643" lon="20.349596673623">
        <ele>96.2</ele>
        <time>2015-01-01T10:09:35Z</time>
        <extensions><gpxtpx:TrackPointExtension><gpxtpx:hr>87</gpxtpx:hr></gpxtpx:TrackPointExtension></extensions>
      </trkpt>
      <trkpt lat="63.838681764901" lon="20.349664902315">
        <ele>96.6</ele>
        <time>2015-01-01T10:09:37Z</time>
        <extensions><gpxtpx:TrackPointExtension><gpxtpx:hr>87</gpxtpx:hr></gpxtpx:TrackPointExtension></extensions>
      </trkpt>
      <trkpt lat="63.838722417131" lon="20.349701950327">
        <ele>97</ele>
        <time>2015-01-01T10:09:39Z</time>
        <extensions><gpxtpx:TrackPointExtension><gpxtpx:hr>87</gpxtpx:hr></gpxtpx:TrackPointExtension></extensions>
      </trkpt>
      <trkpt lat="63.838753597811" lon="20.349707817659">
        <ele>97.2</ele>
        <time>2015-01-01T10:09:40Z</time>
        <extensions><gpxtpx:TrackPointExtension><gpxtpx:hr>87</gpxtpx:hr></gpxtpx:TrackPointExtension></extensions>
      </trkpt>
      <trkpt lat="63.838886618614" lon="20.349700106308">
        <ele>98</ele>
        <time>2015-01-01T10:09:44Z</time>
        <extensions><gpxtpx:TrackPointExtension><gpxtpx:hr>87</gpxtpx:hr></gpxtpx:TrackPointExtension></extensions>
      </trkpt>
      <trkpt lat="63.838983345777" lon="20.349642103538">
        <ele>98</ele>
        <time>2015-01-01T10:09:47Z</time>
        <extensions><gpxtpx:TrackPointExtension><gpxtpx:hr>87</gpxtpx:hr></gpxtpx:TrackPointExtension></extensions>
      </trkpt>
      <trkpt lat="63.839059872553" lon="20.349583346397">
        <ele>98</ele>
        <time>2015-01-01T10:09:49Z</time>
        <extensions><gpxtpx:TrackPointExtension><gpxtpx:hr>87</gpxtpx:hr></gpxtpx:TrackPointExtension></extensions>
      </trkpt>
      <trkpt lat="63.839229941368" lon="20.349391903728">
        <ele>97.4</ele>
        <time>2015-01-01T10:09:54Z</time>
        <extensions><gpxtpx:TrackPointExtension><gpxtpx:hr>87</gpxtpx:hr></gpxtpx:TrackPointExtension></extensions>
      </trkpt>
      <trkpt lat="63.839418031275" lon="20.349154109135">
        <ele>96.2</ele>
        <time>2015-01-01T10:10:00Z</time>
        <extensions><gpxtpx:TrackPointExtension><gpxtpx:hr>87</gpxtpx:hr></gpxtpx:TrackPointExtension></extensions>
      </trkpt>
      <trkpt lat="63.839452648535" lon="20.349141452461">
        <ele>96.2</ele>
        <time>2015-01-01T10:10:01Z</time>
        <extensions><gpxtpx:TrackPointExtension><gpxtpx:hr>87</gpxtpx:hr></gpxtpx:TrackPointExtension></extensions>
      </trkpt>
      <trkpt lat="63.83954141289" lon="20.349127622321">
        <ele>96.4</ele>
        <time>2015-01-01T10:10:03Z</time>
        <extensions><gpxtpx:TrackPointExtension><gpxtpx:hr>87</gpxtpx:hr></gpxtpx:TrackPointExtension></extensions>
      </trkpt>
      <trkpt lat="63.839622717351" lon="20.349183781072">
        <ele>96.8</ele>
        <time>2015-01-01T10:10:05Z</time>
        <extensions><gpxtpx:TrackPointExtension><gpxtpx:hr>83</gpxtpx:hr></gpxtpx:TrackPointExtension></extensions>
      </trkpt>
      <trkpt lat="63.839658088982" lon="20.349232563749">
        <ele>96.8</ele>
        <time>2015-01-01T10:10:06Z</time>
        <extensions><gpxtpx:TrackPointExtension><gpxtpx:hr>78</gpxtpx:hr></gpxtpx:TrackPointExtension></extensions>
      </trkpt>
      <trkpt lat="63.839677870274" lon="20.349273635074">
        <ele>96.8</ele>
        <time>2015-01-01T10:10:07Z</time>
        <extensions><gpxtpx:TrackPointExtension><gpxtpx:hr>78</gpxtpx:hr></gpxtpx:TrackPointExtension></extensions>
      </trkpt>
      <trkpt lat="63.839727407321" lon="20.349466502666">
        <ele>97</ele>
        <time>2015-01-01T10:10:10Z</time>
        <extensions><gpxtpx:TrackPointExtension><gpxtpx:hr>78</gpxtpx:hr></gpxtpx:TrackPointExtension></extensions>
      </trkpt>
      <trkpt lat="63.839723886922" lon="20.349689209834">
        <ele>97.2</ele>
        <time>2015-01-01T10:10:14Z</time>
        <extensions><gpxtpx:TrackPointExtension><gpxtpx:hr>78</gpxtpx:hr></gpxtpx:TrackPointExtension></extensions>
      </trkpt>
      <trkpt lat="63.839722881094" lon="20.349743608385">
        <ele>97.4</ele>
        <time>2015-01-01T10:10:15Z</time>
        <extensions><gpxtpx:TrackPointExtension><gpxtpx:hr>78</gpxtpx:hr></gpxtpx:TrackPointExtension></extensions>
      </trkpt>
      <trkpt lat="63.839719360694" lon="20.349952150136">
        <ele>98.6</ele>
        <time>2015-01-01T10:10:19Z</time>
        <extensions><gpxtpx:TrackPointExtension><gpxtpx:hr>78</gpxtpx:hr></gpxtpx:TrackPointExtension></extensions>
      </trkpt>
      <trkpt lat="63.839751295745" lon="20.350292203948">
        <ele>99.6</ele>
        <time>2015-01-01T10:10:25Z</time>
        <extensions><gpxtpx:TrackPointExtension><gpxtpx:hr>78</gpxtpx:hr></gpxtpx:TrackPointExtension></extensions>
      </trkpt>
      <trkpt lat="63.839785996825" lon="20.35047383979">
        <ele>99.8</ele>
        <time>2015-01-01T10:10:28Z</time>
        <extensions><gpxtpx:TrackPointExtension><gpxtpx:hr>78</gpxtpx:hr></gpxtpx:TrackPointExtension></extensions>
      </trkpt>
      <trkpt lat="63.8398158364" lon="20.350600406528">
        <ele>99.8</ele>
        <time>2015-01-01T10:10:30Z</time>
        <extensions><gpxtpx:TrackPointExtension><gpxtpx:hr>78</gpxtpx:hr></gpxtpx:TrackPointExtension></extensions>
      </trkpt>
      <trkpt lat="63.839893871918" lon="20.350903077051">
        <ele>100</ele>
        <time>2015-01-01T10:10:35Z</time>
        <extensions><gpxtpx:TrackPointExtension><gpxtpx:hr>78</gpxtpx:hr></gpxtpx:TrackPointExtension></extensions>
      </trkpt>
      <trkpt lat="63.839958915487" lon="20.351151684299">
        <ele>100</ele>
        <time>2015-01-01T10:10:39Z</time>
        <extensions><gpxtpx:TrackPointExtension><gpxtpx:hr>78</gpxtpx:hr></gpxtpx:TrackPointExtension></extensions>
      </trkpt>
      <trkpt lat="63.839986827224" lon="20.351256961003">
        <ele>100</ele>
        <time>2015-01-01T10:10:41Z</time>
        <extensions><gpxtpx:TrackPointExtension><gpxtpx:hr>85</gpxtpx:hr></gpxtpx:TrackPointExtension></extensions>
      </trkpt>
      <trkpt lat="63.840001579374" lon="20.351320328191">
        <ele>99.8</ele>
        <time>2015-01-01T10:10:42Z</time>
        <extensions><gpxtpx:TrackPointExtension><gpxtpx:hr>85</gpxtpx:hr></gpxtpx:TrackPointExtension></extensions>
      </trkpt>
      <trkpt lat="63.840033598244" lon="20.351464329287">
        <ele>99.8</ele>
        <time>2015-01-01T10:10:44Z</time>
        <extensions><gpxtpx:TrackPointExtension><gpxtpx:hr>85</gpxtpx:hr></gpxtpx:TrackPointExtension></extensions>
      </trkpt>
      <trkpt lat="63.840080453083" lon="20.35168913193">
        <ele>100.2</ele>
        <time>2015-01-01T10:10:48Z</time>
        <extensions><gpxtpx:TrackPointExtension><gpxtpx:hr>85</gpxtpx:hr></gpxtpx:TrackPointExtension></extensions>
      </trkpt>
      <trkpt lat="63.840121440589" lon="20.351959532127">
        <ele>100.4</ele>
        <time>2015-01-01T10:10:53Z</time>
        <extensions><gpxtpx:TrackPointExtension><gpxtpx:hr>91</gpxtpx:hr></gpxtpx:TrackPointExtension></extensions>
      </trkpt>
      <trkpt lat="63.840137030929" lon="20.352021893486">
        <ele>100.6</ele>
        <time>2015-01-01T10:10:54Z</time>
        <extensions><gpxtpx:TrackPointExtension><gpxtpx:hr>91</gpxtpx:hr></gpxtpx:TrackPointExtension></extensions>
      </trkpt>
      <trkpt lat="63.840193524957" lon="20.352246779948">
        <ele>101</ele>
        <time>2015-01-01T10:10:58Z</time>
        <extensions><gpxtpx:TrackPointExtension><gpxtpx:hr>91</gpxtpx:hr></gpxtpx:TrackPointExtension></extensions>
      </trkpt>
      <trkpt lat="63.840217245743" lon="20.352360522375">
        <ele>101</ele>
        <time>2015-01-01T10:11:00Z</time>
        <extensions><gpxtpx:TrackPointExtension><gpxtpx:hr>91</gpxtpx:hr></gpxtpx:TrackPointExtension></extensions>
      </trkpt>
      <trkpt lat="63.840232081711" lon="20.352616589516">
        <ele>101.8</ele>
        <time>2015-01-01T10:11:05Z</time>
        <extensions><gpxtpx:TrackPointExtension><gpxtpx:hr>91</gpxtpx:hr></gpxtpx:TrackPointExtension></extensions>
      </trkpt>
      <trkpt lat="63.840229064226" lon="20.352708958089">
        <ele>102</ele>
        <time>2015-01-01T10:11:07Z</time>
        <extensions><gpxtpx:TrackPointExtension><gpxtpx:hr>93</gpxtpx:hr></gpxtpx:TrackPointExtension></extensions>
      </trkpt>
      <trkpt lat="63.840238451958" lon="20.352933844551">
        <ele>102.6</ele>
        <time>2015-01-01T10:11:11Z</time>
        <extensions><gpxtpx:TrackPointExtension><gpxtpx:hr>93</gpxtpx:hr></gpxtpx:TrackPointExtension></extensions>
      </trkpt>
      <trkpt lat="63.840248258784" lon="20.353041887283">
        <ele>103.2</ele>
        <time>2015-01-01T10:11:13Z</time>
        <extensions><gpxtpx:TrackPointExtension><gpxtpx:hr>93</gpxtpx:hr></gpxtpx:TrackPointExtension></extensions>
      </trkpt>
      <trkpt lat="63.840273655951" lon="20.353189576417">
        <ele>103.6</ele>
        <time>2015-01-01T10:11:16Z</time>
        <extensions><gpxtpx:TrackPointExtension><gpxtpx:hr>99</gpxtpx:hr></gpxtpx:TrackPointExtension></extensions>
      </trkpt>
      <trkpt lat="63.840283043683" lon="20.353243807331">
        <ele>103.6</ele>
        <time>2015-01-01T10:11:17Z</time>
        <extensions><gpxtpx:TrackPointExtension><gpxtpx:hr>104</gpxtpx:hr></gpxtpx:TrackPointExtension></extensions>
      </trkpt>
      <trkpt lat="63.840311458334" lon="20.353270545602">
        <ele>103.6</ele>
        <time>2015-01-01T10:11:18Z</time>
        <extensions><gpxtpx:TrackPointExtension><gpxtpx:hr>109</gpxtpx:hr></gpxtpx:TrackPointExtension></extensions>
      </trkpt>
      <trkpt lat="63.840327467769" lon="20.35330097191">
        <ele>103.6</ele>
        <time>2015-01-01T10:11:19Z</time>
        <extensions><gpxtpx:TrackPointExtension><gpxtpx:hr>109</gpxtpx:hr></gpxtpx:TrackPointExtension></extensions>
      </trkpt>
      <trkpt lat="63.840353870764" lon="20.353347826749">
        <ele>103.8</ele>
        <time>2015-01-01T10:11:20Z</time>
        <extensions><gpxtpx:TrackPointExtension><gpxtpx:hr>109</gpxtpx:hr></gpxtpx:TrackPointExtension></extensions>
      </trkpt>
      <trkpt lat="63.840395445004" lon="20.353402392939">
        <ele>103.8</ele>
        <time>2015-01-01T10:11:22Z</time>
        <extensions><gpxtpx:TrackPointExtension><gpxtpx:hr>109</gpxtpx:hr></gpxtpx:TrackPointExtension></extensions>
      </trkpt>
      <trkpt lat="63.840486807749" lon="20.3535079211">
        <ele>104</ele>
        <time>2015-01-01T10:11:26Z</time>
        <extensions><gpxtpx:TrackPointExtension><gpxtpx:hr>109</gpxtpx:hr></gpxtpx:TrackPointExtension></extensions>
      </trkpt>
      <trkpt lat="63.840540116653" lon="20.353550920263">
        <ele>104.2</ele>
        <time>2015-01-01T10:11:29Z</time>
        <extensions><gpxtpx:TrackPointExtension><gpxtpx:hr>109</gpxtpx:hr></gpxtpx:TrackPointExtension></extensions>
      </trkpt>
      <trkpt lat="63.840636257082" lon="20.353609258309">
        <ele>104.4</ele>
        <time>2015-01-01T10:11:33Z</time>
        <extensions><gpxtpx:TrackPointExtension><gpxtpx:hr>109</gpxtpx:hr></gpxtpx:TrackPointExtension></extensions>
      </trkpt>
      <trkpt lat="63.840743964538" lon="20.353669859469">
        <ele>105</ele>
        <time>2015-01-01T10:11:37Z</time>
        <extensions><gpxtpx:TrackPointExtension><gpxtpx:hr>109</gpxtpx:hr></gpxtpx:TrackPointExtension></extensions>
      </trkpt>
      <trkpt lat="63.840773720294" lon="20.353672206402">
        <ele>104.8</ele>
        <time>2015-01-01T10:11:38Z</time>
        <extensions><gpxtpx:TrackPointExtension><gpxtpx:hr>113</gpxtpx:hr></gpxtpx:TrackPointExtension></extensions>
      </trkpt>
      <trkpt lat="63.840843206272" lon="20.353662315756">
        <ele>105.6</ele>
        <time>2015-01-01T10:11:41Z</time>
        <extensions><gpxtpx:TrackPointExtension><gpxtpx:hr>113</gpxtpx:hr></gpxtpx:TrackPointExtension></extensions>
      </trkpt>
      <trkpt lat="63.840889893472" lon="20.353652760386">
        <ele>106</ele>
        <time>2015-01-01T10:11:44Z</time>
        <extensions><gpxtpx:TrackPointExtension><gpxtpx:hr>113</gpxtpx:hr></gpxtpx:TrackPointExtension></extensions>
      </trkpt>
      <trkpt lat="63.8409168832" lon="20.353641696274">
        <ele>106.4</ele>
        <time>2015-01-01T10:11:46Z</time>
        <extensions><gpxtpx:TrackPointExtension><gpxtpx:hr>118</gpxtpx:hr></gpxtpx:TrackPointExtension></extensions>
      </trkpt>
      <trkpt lat="63.840928114951" lon="20.353639097884">
        <ele>106.4</ele>
        <time>2015-01-01T10:11:47Z</time>
        <extensions><gpxtpx:TrackPointExtension><gpxtpx:hr>124</gpxtpx:hr></gpxtpx:TrackPointExtension></extensions>
      </trkpt>
      <trkpt lat="63.840957032517" lon="20.353628788143">
        <ele>106.6</ele>
        <time>2015-01-01T10:11:48Z</time>
        <extensions><gpxtpx:TrackPointExtension><gpxtpx:hr>129</gpxtpx:hr></gpxtpx:TrackPointExtension></extensions>
      </trkpt>
      <trkpt lat="63.8410952501" lon="20.353542957455">
        <ele>106.6</ele>
        <time>2015-01-01T10:11:53Z</time>
        <extensions><gpxtpx:TrackPointExtension><gpxtpx:hr>136</gpxtpx:hr></gpxtpx:TrackPointExtension></extensions>
      </trkpt>
      <trkpt lat="63.841110505164" lon="20.353520410135">
        <ele>106.6</ele>
        <time>2015-01-01T10:11:54Z</time>
        <extensions><gpxtpx:TrackPointExtension><gpxtpx:hr>139</gpxtpx:hr></gpxtpx:TrackPointExtension></extensions>
      </trkpt>
      <trkpt lat="63.841201113537" lon="20.353334415704">
        <ele>107</ele>
        <time>2015-01-01T10:11:59Z</time>
        <extensions><gpxtpx:TrackPointExtension><gpxtpx:hr>141</gpxtpx:hr></gpxtpx:TrackPointExtension></extensions>
      </trkpt>
      <trkpt lat="63.841332709417" lon="20.353004168719">
        <ele>107</ele>
        <time>2015-01-01T10:12:03Z</time>
        <extensions><gpxtpx:TrackPointExtension><gpxtpx:hr>141</gpxtpx:hr></gpxtpx:TrackPointExtension></extensions>
      </trkpt>
      <trkpt lat="63.841414768249" lon="20.352835021913">
        <ele>106.2</ele>
        <time>2015-01-01T10:12:06Z</time>
        <extensions><gpxtpx:TrackPointExtension><gpxtpx:hr>138</gpxtpx:hr></gpxtpx:TrackPointExtension></extensions>
      </trkpt>
      <trkpt lat="63.84148048237" lon="20.35272102803">
        <ele>105.4</ele>
        <time>2015-01-01T10:12:08Z</time>
        <extensions><gpxtpx:TrackPointExtension><gpxtpx:hr>136</gpxtpx:hr></gpxtpx:TrackPointExtension></extensions>
      </trkpt>
      <trkpt lat="63.841523230076" lon="20.352662522346">
        <ele>104.8</ele>
        <time>2015-01-01T10:12:09Z</time>
        <extensions><gpxtpx:TrackPointExtension><gpxtpx:hr>135</gpxtpx:hr></gpxtpx:TrackPointExtension></extensions>
      </trkpt>
      <trkpt lat="63.841548627242" lon="20.352638298646">
        <ele>104.4</ele>
        <time>2015-01-01T10:12:10Z</time>
        <extensions><gpxtpx:TrackPointExtension><gpxtpx:hr>134</gpxtpx:hr></gpxtpx:TrackPointExtension></extensions>
      </trkpt>
      <trkpt lat="63.841600427404" lon="20.352600915357">
        <ele>104.2</ele>
        <time>2015-01-01T10:12:11Z</time>
        <extensions><gpxtpx:TrackPointExtension><gpxtpx:hr>133</gpxtpx:hr></gpxtpx:TrackPointExtension></extensions>
      </trkpt>
      <trkpt lat="63.841705368832" lon="20.352615080774">
        <ele>103.6</ele>
        <time>2015-01-01T10:12:14Z</time>
        <extensions><gpxtpx:TrackPointExtension><gpxtpx:hr>132</gpxtpx:hr></gpxtpx:TrackPointExtension></extensions>
      </trkpt>
      <trkpt lat="63.84182062" lon="20.352655984461">
        <ele>103.8</ele>
        <time>2015-01-01T10:12:18Z</time>
        <extensions><gpxtpx:TrackPointExtension><gpxtpx:hr>132</gpxtpx:hr></gpxtpx:TrackPointExtension></extensions>
      </trkpt>
      <trkpt lat="63.841881053522" lon="20.352461524308">
        <ele>104.4</ele>
        <time>2015-01-01T10:12:21Z</time>
        <extensions><gpxtpx:TrackPointExtension><gpxtpx:hr>133</gpxtpx:hr></gpxtpx:TrackPointExtension></extensions>
      </trkpt>
      <trkpt lat="63.841905193403" lon="20.352112920955">
        <ele>104.2</ele>
        <time>2015-01-01T10:12:25Z</time>
        <extensions><gpxtpx:TrackPointExtension><gpxtpx:hr>132</gpxtpx:hr></gpxtpx:TrackPointExtension></extensions>
      </trkpt>
      <trkpt lat="63.841923968866" lon="20.351941175759">
        <ele>104</ele>
        <time>2015-01-01T10:12:27Z</time>
        <extensions><gpxtpx:TrackPointExtension><gpxtpx:hr>132</gpxtpx:hr></gpxtpx:TrackPointExtension></extensions>
      </trkpt>
      <trkpt lat="63.841927237809" lon="20.351856853813">
        <ele>104</ele>
        <time>2015-01-01T10:12:28Z</time>
        <extensions><gpxtpx:TrackPointExtension><gpxtpx:hr>132</gpxtpx:hr></gpxtpx:TrackPointExtension></extensions>
      </trkpt>
      <trkpt lat="63.841943750158" lon="20.351660046726">
        <ele>103.6</ele>
        <time>2015-01-01T10:12:30Z</time>
        <extensions><gpxtpx:TrackPointExtension><gpxtpx:hr>132</gpxtpx:hr></gpxtpx:TrackPointExtension></extensions>
      </trkpt>
      <trkpt lat="63.841951880604" lon="20.351483356208">
        <ele>103.2</ele>
        <time>2015-01-01T10:12:32Z</time>
        <extensions><gpxtpx:TrackPointExtension><gpxtpx:hr>133</gpxtpx:hr></gpxtpx:TrackPointExtension></extensions>
      </trkpt>
      <trkpt lat="63.841958418489" lon="20.351309515536">
        <ele>103</ele>
        <time>2015-01-01T10:12:34Z</time>
        <extensions><gpxtpx:TrackPointExtension><gpxtpx:hr>134</gpxtpx:hr></gpxtpx:TrackPointExtension></extensions>
      </trkpt>
      <trkpt lat="63.84202924557" lon="20.350930318236">
        <ele>103</ele>
        <time>2015-01-01T10:12:39Z</time>
        <extensions><gpxtpx:TrackPointExtension><gpxtpx:hr>137</gpxtpx:hr></gpxtpx:TrackPointExtension></extensions>
      </trkpt>
      <trkpt lat="63.84204659611" lon="20.350882206112">
        <ele>103</ele>
        <time>2015-01-01T10:12:40Z</time>
        <extensions><gpxtpx:TrackPointExtension><gpxtpx:hr>137</gpxtpx:hr></gpxtpx:TrackPointExtension></extensions>
      </trkpt>
      <trkpt lat="63.842193363234" lon="20.350710293278">
        <ele>103.2</ele>
        <time>2015-01-01T10:12:45Z</time>
        <extensions><gpxtpx:TrackPointExtension><gpxtpx:hr>136</gpxtpx:hr></gpxtpx:TrackPointExtension></extensions>
      </trkpt>
      <trkpt lat="63.842246839777" lon="20.350854210556">
        <ele>103.6</ele>
        <time>2015-01-01T10:12:48Z</time>
        <extensions><gpxtpx:TrackPointExtension><gpxtpx:hr>136</gpxtpx:hr></gpxtpx:TrackPointExtension></extensions>
      </trkpt>
      <trkpt lat="63.842389667407" lon="20.351008940488">
        <ele>103.8</ele>
        <time>2015-01-01T10:12:54Z</time>
        <extensions><gpxtpx:TrackPointExtension><gpxtpx:hr>138</gpxtpx:hr></gpxtpx:TrackPointExtension></extensions>
      </trkpt>
      <trkpt lat="63.842626456171" lon="20.351109774783">
        <ele>103.6</ele>
        <time>2015-01-01T10:13:01Z</time>
        <extensions><gpxtpx:TrackPointExtension><gpxtpx:hr>139</gpxtpx:hr></gpxtpx:TrackPointExtension></extensions>
      </trkpt>
      <trkpt lat="63.842815635726" lon="20.35115679726">
        <ele>103.6</ele>
        <time>2015-01-01T10:13:07Z</time>
        <extensions><gpxtpx:TrackPointExtension><gpxtpx:hr>141</gpxtpx:hr></gpxtpx:TrackPointExtension></extensions>
      </trkpt>
      <trkpt lat="63.842957038432" lon="20.35119744949">
        <ele>103.8</ele>
        <time>2015-01-01T10:13:12Z</time>
        <extensions><gpxtpx:TrackPointExtension><gpxtpx:hr>141</gpxtpx:hr></gpxtpx:TrackPointExtension></extensions>
      </trkpt>
      <trkpt lat="63.843072792515" lon="20.351238017902">
        <ele>103.8</ele>
        <time>2015-01-01T10:13:16Z</time>
        <extensions><gpxtpx:TrackPointExtension><gpxtpx:hr>141</gpxtpx:hr></gpxtpx:TrackPointExtension></extensions>
      </trkpt>
      <trkpt lat="63.84316499345" lon="20.351265510544">
        <ele>104.2</ele>
        <time>2015-01-01T10:13:19Z</time>
        <extensions><gpxtpx:TrackPointExtension><gpxtpx:hr>141</gpxtpx:hr></gpxtpx:TrackPointExtension></extensions>
      </trkpt>
      <trkpt lat="63.843181924894" lon="20.351270372048">
        <ele>104.2</ele>
        <time>2015-01-01T10:13:20Z</time>
        <extensions><gpxtpx:TrackPointExtension><gpxtpx:hr>141</gpxtpx:hr></gpxtpx:TrackPointExtension></extensions>
      </trkpt>
      <trkpt lat="63.843336822465" lon="20.351281352341">
        <ele>104.4</ele>
        <time>2015-01-01T10:13:25Z</time>
        <extensions><gpxtpx:TrackPointExtension><gpxtpx:hr>140</gpxtpx:hr></gpxtpx:TrackPointExtension></extensions>
      </trkpt>
      <trkpt lat="63.843483924866" lon="20.351274479181">
        <ele>104.6</ele>
        <time>2015-01-01T10:13:30Z</time>
        <extensions><gpxtpx:TrackPointExtension><gpxtpx:hr>139</gpxtpx:hr></gpxtpx:TrackPointExtension></extensions>
      </trkpt>
      <trkpt lat="63.843671176583" lon="20.351317226887">
        <ele>104.6</ele>
        <time>2015-01-01T10:13:36Z</time>
        <extensions><gpxtpx:TrackPointExtension><gpxtpx:hr>140</gpxtpx:hr></gpxtpx:TrackPointExtension></extensions>
      </trkpt>
      <trkpt lat="63.843783829361" lon="20.351397274062">
        <ele>105</ele>
        <time>2015-01-01T10:13:40Z</time>
        <extensions><gpxtpx:TrackPointExtension><gpxtpx:hr>140</gpxtpx:hr></gpxtpx:TrackPointExtension></extensions>
      </trkpt>
      <trkpt lat="63.843927495182" lon="20.351638672873">
        <ele>105.2</ele>
        <time>2015-01-01T10:13:45Z</time>
        <extensions><gpxtpx:TrackPointExtension><gpxtpx:hr>140</gpxtpx:hr></gpxtpx:TrackPointExtension></extensions>
      </trkpt>
      <trkpt lat="63.84407132864" lon="20.351815363392">
        <ele>105.4</ele>
        <time>2015-01-01T10:13:50Z</time>
        <extensions><gpxtpx:TrackPointExtension><gpxtpx:hr>140</gpxtpx:hr></gpxtpx:TrackPointExtension></extensions>
      </trkpt>
      <trkpt lat="63.844263358042" lon="20.351859200746">
        <ele>105.2</ele>
        <time>2015-01-01T10:13:55Z</time>
        <extensions><gpxtpx:TrackPointExtension><gpxtpx:hr>140</gpxtpx:hr></gpxtpx:TrackPointExtension></extensions>
      </trkpt>
      <trkpt lat="63.8444816228" lon="20.351907229051">
        <ele>105.2</ele>
        <time>2015-01-01T10:14:01Z</time>
        <extensions><gpxtpx:TrackPointExtension><gpxtpx:hr>140</gpxtpx:hr></gpxtpx:TrackPointExtension></extensions>
      </trkpt>
      <trkpt lat="63.844538284466" lon="20.351927680895">
        <ele>105</ele>
        <time>2015-01-01T10:14:03Z</time>
        <extensions><gpxtpx:TrackPointExtension><gpxtpx:hr>140</gpxtpx:hr></gpxtpx:TrackPointExtension></extensions>
      </trkpt>
      <trkpt lat="63.844562591985" lon="20.351922148839">
        <ele>105</ele>
        <time>2015-01-01T10:14:04Z</time>
        <extensions><gpxtpx:TrackPointExtension><gpxtpx:hr>141</gpxtpx:hr></gpxtpx:TrackPointExtension></extensions>
      </trkpt>
      <trkpt lat="63.844746071845" lon="20.35187269561">
        <ele>105.6</ele>
        <time>2015-01-01T10:14:10Z</time>
        <extensions><gpxtpx:TrackPointExtension><gpxtpx:hr>142</gpxtpx:hr></gpxtpx:TrackPointExtension></extensions>
      </trkpt>
      <trkpt lat="63.844811953604" lon="20.351938242093">
        <ele>106.2</ele>
        <time>2015-01-01T10:14:13Z</time>
        <extensions><gpxtpx:TrackPointExtension><gpxtpx:hr>144</gpxtpx:hr></gpxtpx:TrackPointExtension></extensions>
      </trkpt>
      <trkpt lat="63.844857551157" lon="20.352017031983">
        <ele>106.6</ele>
        <time>2015-01-01T10:14:15Z</time>
        <extensions><gpxtpx:TrackPointExtension><gpxtpx:hr>145</gpxtpx:hr></gpxtpx:TrackPointExtension></extensions>
      </trkpt>
      <trkpt lat="63.844981016591" lon="20.352182490751">
        <ele>106.6</ele>
        <time>2015-01-01T10:14:20Z</time>
        <extensions><gpxtpx:TrackPointExtension><gpxtpx:hr>141</gpxtpx:hr></gpxtpx:TrackPointExtension></extensions>
      </trkpt>
      <trkpt lat="63.845041617751" lon="20.352292796597">
        <ele>106.4</ele>
        <time>2015-01-01T10:14:22Z</time>
        <extensions><gpxtpx:TrackPointExtension><gpxtpx:hr>141</gpxtpx:hr></gpxtpx:TrackPointExtension></extensions>
      </trkpt>
      <trkpt lat="63.845105236396" lon="20.352388769388">
        <ele>105.8</ele>
        <time>2015-01-01T10:14:24Z</time>
        <extensions><gpxtpx:TrackPointExtension><gpxtpx:hr>140</gpxtpx:hr></gpxtpx:TrackPointExtension></extensions>
      </trkpt>
      <trkpt lat="63.845203891397" lon="20.352569315583">
        <ele>105</ele>
        <time>2015-01-01T10:14:28Z</time>
        <extensions><gpxtpx:TrackPointExtension><gpxtpx:hr>140</gpxtpx:hr></gpxtpx:TrackPointExtension></extensions>
      </trkpt>
      <trkpt lat="63.845235742629" lon="20.352617679164">
        <ele>105</ele>
        <time>2015-01-01T10:14:29Z</time>
        <extensions><gpxtpx:TrackPointExtension><gpxtpx:hr>140</gpxtpx:hr></gpxtpx:TrackPointExtension></extensions>
      </trkpt>
      <trkpt lat="63.845280585811" lon="20.352695295587">
        <ele>105.4</ele>
        <time>2015-01-01T10:14:31Z</time>
        <extensions><gpxtpx:TrackPointExtension><gpxtpx:hr>140</gpxtpx:hr></gpxtpx:TrackPointExtension></extensions>
      </trkpt>
      <trkpt lat="63.84539491497" lon="20.35283351317">
        <ele>105.8</ele>
        <time>2015-01-01T10:14:35Z</time>
        <extensions><gpxtpx:TrackPointExtension><gpxtpx:hr>139</gpxtpx:hr></gpxtpx:TrackPointExtension></extensions>
      </trkpt>
      <trkpt lat="63.845497258008" lon="20.352843487635">
        <ele>105.6</ele>
        <time>2015-01-01T10:14:38Z</time>
        <extensions><gpxtpx:TrackPointExtension><gpxtpx:hr>136</gpxtpx:hr></gpxtpx:TrackPointExtension></extensions>
      </trkpt>
      <trkpt lat="63.845550818369" lon="20.352791519836">
        <ele>105.4</ele>
        <time>2015-01-01T10:14:39Z</time>
        <extensions><gpxtpx:TrackPointExtension><gpxtpx:hr>135</gpxtpx:hr></gpxtpx:TrackPointExtension></extensions>
      </trkpt>
      <trkpt lat="63.8457610365" lon="20.35244920291">
        <ele>103.6</ele>
        <time>2015-01-01T10:14:43Z</time>
        <extensions><gpxtpx:TrackPointExtension><gpxtpx:hr>134</gpxtpx:hr></gpxtpx:TrackPointExtension></extensions>
      </trkpt>
      <trkpt lat="63.845879388973" lon="20.352207971737">
        <ele>101.6</ele>
        <time>2015-01-01T10:14:45Z</time>
        <extensions><gpxtpx:TrackPointExtension><gpxtpx:hr>132</gpxtpx:hr></gpxtpx:TrackPointExtension></extensions>
      </trkpt>
      <trkpt lat="63.845975529402" lon="20.351947629824">
        <ele>99.8</ele>
        <time>2015-01-01T10:14:47Z</time>
        <extensions><gpxtpx:TrackPointExtension><gpxtpx:hr>131</gpxtpx:hr></gpxtpx:TrackPointExtension></extensions>
      </trkpt>
      <trkpt lat="63.846008470282" lon="20.351837323979">
        <ele>99</ele>
        <time>2015-01-01T10:14:48Z</time>
        <extensions><gpxtpx:TrackPointExtension><gpxtpx:hr>130</gpxtpx:hr></gpxtpx:TrackPointExtension></extensions>
      </trkpt>
      <trkpt lat="63.846052894369" lon="20.351669350639">
        <ele>98</ele>
        <time>2015-01-01T10:14:49Z</time>
        <extensions><gpxtpx:TrackPointExtension><gpxtpx:hr>130</gpxtpx:hr></gpxtpx:TrackPointExtension></extensions>
      </trkpt>
      <trkpt lat="63.846148196608" lon="20.351257715374">
        <ele>96.6</ele>
        <time>2015-01-01T10:14:52Z</time>
        <extensions><gpxtpx:TrackPointExtension><gpxtpx:hr>130</gpxtpx:hr></gpxtpx:TrackPointExtension></extensions>
      </trkpt>
      <trkpt lat="63.846176275983" lon="20.351129053161">
        <ele>96.2</ele>
        <time>2015-01-01T10:14:53Z</time>
        <extensions><gpxtpx:TrackPointExtension><gpxtpx:hr>130</gpxtpx:hr></gpxtpx:TrackPointExtension></extensions>
      </trkpt>
      <trkpt lat="63.846217431128" lon="20.350916404277">
        <ele>95.8</ele>
        <time>2015-01-01T10:14:55Z</time>
        <extensions><gpxtpx:TrackPointExtension><gpxtpx:hr>130</gpxtpx:hr></gpxtpx:TrackPointExtension></extensions>
      </trkpt>
      <trkpt lat="63.846234278753" lon="20.350761590526">
        <ele>95.4</ele>
        <time>2015-01-01T10:14:57Z</time>
        <extensions><gpxtpx:TrackPointExtension><gpxtpx:hr>129</gpxtpx:hr></gpxtpx:TrackPointExtension></extensions>
      </trkpt>
      <trkpt lat="63.846239056438" lon="20.350678190589">
        <ele>95.4</ele>
        <time>2015-01-01T10:14:58Z</time>
        <extensions><gpxtpx:TrackPointExtension><gpxtpx:hr>129</gpxtpx:hr></gpxtpx:TrackPointExtension></extensions>
      </trkpt>
      <trkpt lat="63.846250455827" lon="20.350224394351">
        <ele>95.4</ele>
        <time>2015-01-01T10:15:03Z</time>
        <extensions><gpxtpx:TrackPointExtension><gpxtpx:hr>131</gpxtpx:hr></gpxtpx:TrackPointExtension></extensions>
      </trkpt>
      <trkpt lat="63.846214581281" lon="20.349912755191">
        <ele>96.2</ele>
        <time>2015-01-01T10:15:07Z</time>
        <extensions><gpxtpx:TrackPointExtension><gpxtpx:hr>132</gpxtpx:hr></gpxtpx:TrackPointExtension></extensions>
      </trkpt>
      <trkpt lat="63.846198488027" lon="20.349826924503">
        <ele>96.6</ele>
        <time>2015-01-01T10:15:08Z</time>
        <extensions><gpxtpx:TrackPointExtension><gpxtpx:hr>131</gpxtpx:hr></gpxtpx:TrackPointExtension></extensions>
      </trkpt>
      <trkpt lat="63.846134869382" lon="20.349622573704">
        <ele>96.4</ele>
        <time>2015-01-01T10:15:11Z</time>
        <extensions><gpxtpx:TrackPointExtension><gpxtpx:hr>132</gpxtpx:hr></gpxtpx:TrackPointExtension></extensions>
      </trkpt>
      <trkpt lat="63.846034789458" lon="20.349505478516">
        <ele>96.4</ele>
        <time>2015-01-01T10:15:14Z</time>
        <extensions><gpxtpx:TrackPointExtension><gpxtpx:hr>132</gpxtpx:hr></gpxtpx:TrackPointExtension></extensions>
      </trkpt>
      <trkpt lat="63.845984246582" lon="20.349477734417">
        <ele>96.2</ele>
        <time>2015-01-01T10:15:16Z</time>
        <extensions><gpxtpx:TrackPointExtension><gpxtpx:hr>133</gpxtpx:hr></gpxtpx:TrackPointExtension></extensions>
      </trkpt>
      <trkpt lat="63.845880143344" lon="20.349462060258">
        <ele>96.8</ele>
        <time>2015-01-01T10:15:20Z</time>
        <extensions><gpxtpx:TrackPointExtension><gpxtpx:hr>136</gpxtpx:hr></gpxtpx:TrackPointExtension></extensions>
      </trkpt>
      <trkpt lat="63.845850471407" lon="20.349451163784">
        <ele>97.2</ele>
        <time>2015-01-01T10:15:22Z</time>
        <extensions><gpxtpx:TrackPointExtension><gpxtpx:hr>136</gpxtpx:hr></gpxtpx:TrackPointExtension></extensions>
      </trkpt>
      <trkpt lat="63.845823816955" lon="20.349443452433">
        <ele>97.8</ele>
        <time>2015-01-01T10:15:23Z</time>
        <extensions><gpxtpx:TrackPointExtension><gpxtpx:hr>138</gpxtpx:hr></gpxtpx:TrackPointExtension></extensions>
      </trkpt>
      <trkpt lat="63.845771094784" lon="20.349412187934">
        <ele>98.8</ele>
        <time>2015-01-01T10:15:26Z</time>
        <extensions><gpxtpx:TrackPointExtension><gpxtpx:hr>139</gpxtpx:hr></gpxtpx:TrackPointExtension></extensions>
      </trkpt>
      <trkpt lat="63.845733124763" lon="20.349389472976">
        <ele>99.2</ele>
        <time>2015-01-01T10:15:28Z</time>
        <extensions><gpxtpx:TrackPointExtension><gpxtpx:hr>144</gpxtpx:hr></gpxtpx:TrackPointExtension></extensions>
      </trkpt>
      <trkpt lat="63.845682246611" lon="20.349366338924">
        <ele>99.4</ele>
        <time>2015-01-01T10:15:30Z</time>
        <extensions><gpxtpx:TrackPointExtension><gpxtpx:hr>147</gpxtpx:hr></gpxtpx:TrackPointExtension></extensions>
      </trkpt>
      <trkpt lat="63.845632709563" lon="20.349346473813">
        <ele>100</ele>
        <time>2015-01-01T10:15:32Z</time>
        <extensions><gpxtpx:TrackPointExtension><gpxtpx:hr>148</gpxtpx:hr></gpxtpx:TrackPointExtension></extensions>
      </trkpt>
      <trkpt lat="63.845543358475" lon="20.349322417751">
        <ele>100.6</ele>
        <time>2015-01-01T10:15:35Z</time>
        <extensions><gpxtpx:TrackPointExtension><gpxtpx:hr>150</gpxtpx:hr></gpxtpx:TrackPointExtension></extensions>
      </trkpt>
      <trkpt lat="63.845471777022" lon="20.349258882925">
        <ele>101</ele>
        <time>2015-01-01T10:15:38Z</time>
        <extensions><gpxtpx:TrackPointExtension><gpxtpx:hr>151</gpxtpx:hr></gpxtpx:TrackPointExtension></extensions>
      </trkpt>
      <trkpt lat="63.845450906083" lon="20.349213369191">
        <ele>101</ele>
        <time>2015-01-01T10:15:39Z</time>
        <extensions><gpxtpx:TrackPointExtension><gpxtpx:hr>152</gpxtpx:hr></gpxtpx:TrackPointExtension></extensions>
      </trkpt>
      <trkpt lat="63.845427855849" lon="20.349174393341">
        <ele>101.2</ele>
        <time>2015-01-01T10:15:40Z</time>
        <extensions><gpxtpx:TrackPointExtension><gpxtpx:hr>151</gpxtpx:hr></gpxtpx:TrackPointExtension></extensions>
      </trkpt>
      <trkpt lat="63.845360046253" lon="20.348884379491">
        <ele>101</ele>
        <time>2015-01-01T10:15:43Z</time>
        <extensions><gpxtpx:TrackPointExtension><gpxtpx:hr>150</gpxtpx:hr></gpxtpx:TrackPointExtension></extensions>
      </trkpt>
      <trkpt lat="63.845343952999" lon="20.34877977334">
        <ele>101</ele>
        <time>2015-01-01T10:15:44Z</time>
        <extensions><gpxtpx:TrackPointExtension><gpxtpx:hr>149</gpxtpx:hr></gpxtpx:TrackPointExtension></extensions>
      </trkpt>
      <trkpt lat="63.845292571932" lon="20.348583552986">
        <ele>100</ele>
        <time>2015-01-01T10:15:46Z</time>
        <extensions><gpxtpx:TrackPointExtension><gpxtpx:hr>147</gpxtpx:hr></gpxtpx:TrackPointExtension></extensions>
      </trkpt>
      <trkpt lat="63.845209004357" lon="20.348423039541">
        <ele>98.8</ele>
        <time>2015-01-01T10:15:48Z</time>
        <extensions><gpxtpx:TrackPointExtension><gpxtpx:hr>145</gpxtpx:hr></gpxtpx:TrackPointExtension></extensions>
      </trkpt>
      <trkpt lat="63.845107080415" lon="20.348340310156">
        <ele>97.8</ele>
        <time>2015-01-01T10:15:50Z</time>
        <extensions><gpxtpx:TrackPointExtension><gpxtpx:hr>143</gpxtpx:hr></gpxtpx:TrackPointExtension></extensions>
      </trkpt>
      <trkpt lat="63.845055699348" lon="20.348311224952">
        <ele>97.2</ele>
        <time>2015-01-01T10:15:51Z</time>
        <extensions><gpxtpx:TrackPointExtension><gpxtpx:hr>143</gpxtpx:hr></gpxtpx:TrackPointExtension></extensions>
      </trkpt>
      <trkpt lat="63.8449594751" lon="20.348284067586">
        <ele>96.4</ele>
        <time>2015-01-01T10:15:53Z</time>
        <extensions><gpxtpx:TrackPointExtension><gpxtpx:hr>143</gpxtpx:hr></gpxtpx:TrackPointExtension></extensions>
      </trkpt>
      <trkpt lat="63.844803320244" lon="20.348239140585">
        <ele>95.2</ele>
        <time>2015-01-01T10:15:57Z</time>
        <extensions><gpxtpx:TrackPointExtension><gpxtpx:hr>143</gpxtpx:hr></gpxtpx:TrackPointExtension></extensions>
      </trkpt>
      <trkpt lat="63.844556473196" lon="20.348240314052">
        <ele>95.4</ele>
        <time>2015-01-01T10:16:03Z</time>
        <extensions><gpxtpx:TrackPointExtension><gpxtpx:hr>144</gpxtpx:hr></gpxtpx:TrackPointExtension></extensions>
      </trkpt>
      <trkpt lat="63.844482963905" lon="20.348461763933">
        <ele>96</ele>
        <time>2015-01-01T10:16:06Z</time>
        <extensions><gpxtpx:TrackPointExtension><gpxtpx:hr>146</gpxtpx:hr></gpxtpx:TrackPointExtension></extensions>
      </trkpt>
      <trkpt lat="63.844484724104" lon="20.348523287103">
        <ele>96</ele>
        <time>2015-01-01T10:16:07Z</time>
        <extensions><gpxtpx:TrackPointExtension><gpxtpx:hr>146</gpxtpx:hr></gpxtpx:TrackPointExtension></extensions>
      </trkpt>
      <trkpt lat="63.844485059381" lon="20.348696121946">
        <ele>96.2</ele>
        <time>2015-01-01T10:16:10Z</time>
        <extensions><gpxtpx:TrackPointExtension><gpxtpx:hr>147</gpxtpx:hr></gpxtpx:TrackPointExtension></extensions>
      </trkpt>
      <trkpt lat="63.844490675256" lon="20.348735516891">
        <ele>96.4</ele>
        <time>2015-01-01T10:16:11Z</time>
        <extensions><gpxtpx:TrackPointExtension><gpxtpx:hr>147</gpxtpx:hr></gpxtpx:TrackPointExtension></extensions>
      </trkpt>
      <trkpt lat="63.844509534538" lon="20.348901981488">
        <ele>97</ele>
        <time>2015-01-01T10:16:15Z</time>
        <extensions><gpxtpx:TrackPointExtension><gpxtpx:hr>150</gpxtpx:hr></gpxtpx:TrackPointExtension></extensions>
      </trkpt>
      <trkpt lat="63.844504505396" lon="20.348980519921">
        <ele>97.4</ele>
        <time>2015-01-01T10:16:17Z</time>
        <extensions><gpxtpx:TrackPointExtension><gpxtpx:hr>151</gpxtpx:hr></gpxtpx:TrackPointExtension></extensions>
      </trkpt>
      <trkpt lat="63.844502745196" lon="20.349097615108">
        <ele>98.4</ele>
        <time>2015-01-01T10:16:20Z</time>
        <extensions><gpxtpx:TrackPointExtension><gpxtpx:hr>154</gpxtpx:hr></gpxtpx:TrackPointExtension></extensions>
      </trkpt>
      <trkpt lat="63.844502996653" lon="20.349142206833">
        <ele>98.4</ele>
        <time>2015-01-01T10:16:21Z</time>
        <extensions><gpxtpx:TrackPointExtension><gpxtpx:hr>154</gpxtpx:hr></gpxtpx:TrackPointExtension></extensions>
      </trkpt>
      <trkpt lat="63.844503164291" lon="20.349180847406">
        <ele>98.6</ele>
        <time>2015-01-01T10:16:22Z</time>
        <extensions><gpxtpx:TrackPointExtension><gpxtpx:hr>154</gpxtpx:hr></gpxtpx:TrackPointExtension></extensions>
      </trkpt>
      <trkpt lat="63.844501320273" lon="20.349289812148">
        <ele>99.6</ele>
        <time>2015-01-01T10:16:25Z</time>
        <extensions><gpxtpx:TrackPointExtension><gpxtpx:hr>156</gpxtpx:hr></gpxtpx:TrackPointExtension></extensions>
      </trkpt>
      <trkpt lat="63.844504840672" lon="20.349358627573">
        <ele>100.6</ele>
        <time>2015-01-01T10:16:28Z</time>
        <extensions><gpxtpx:TrackPointExtension><gpxtpx:hr>159</gpxtpx:hr></gpxtpx:TrackPointExtension></extensions>
      </trkpt>
      <trkpt lat="63.844507271424" lon="20.349400117993">
        <ele>100.8</ele>
        <time>2015-01-01T10:16:29Z</time>
        <extensions><gpxtpx:TrackPointExtension><gpxtpx:hr>159</gpxtpx:hr></gpxtpx:TrackPointExtension></extensions>
      </trkpt>
      <trkpt lat="63.84451104328" lon="20.349463736638">
        <ele>101</ele>
        <time>2015-01-01T10:16:31Z</time>
        <extensions><gpxtpx:TrackPointExtension><gpxtpx:hr>161</gpxtpx:hr></gpxtpx:TrackPointExtension></extensions>
      </trkpt>
      <trkpt lat="63.844528896734" lon="20.349542442709">
        <ele>101.8</ele>
        <time>2015-01-01T10:16:34Z</time>
        <extensions><gpxtpx:TrackPointExtension><gpxtpx:hr>161</gpxtpx:hr></gpxtpx:TrackPointExtension></extensions>
      </trkpt>
      <trkpt lat="63.844545492902" lon="20.349598852918">
        <ele>102</ele>
        <time>2015-01-01T10:16:36Z</time>
        <extensions><gpxtpx:TrackPointExtension><gpxtpx:hr>161</gpxtpx:hr></gpxtpx:TrackPointExtension></extensions>
      </trkpt>
      <trkpt lat="63.844545995817" lon="20.349641265348">
        <ele>102</ele>
        <time>2015-01-01T10:16:37Z</time>
        <extensions><gpxtpx:TrackPointExtension><gpxtpx:hr>161</gpxtpx:hr></gpxtpx:TrackPointExtension></extensions>
      </trkpt>
      <trkpt lat="63.844553204253" lon="20.349719133228">
        <ele>102.4</ele>
        <time>2015-01-01T10:16:39Z</time>
        <extensions><gpxtpx:TrackPointExtension><gpxtpx:hr>161</gpxtpx:hr></gpxtpx:TrackPointExtension></extensions>
      </trkpt>
      <trkpt lat="63.844577260315" lon="20.349865648896">
        <ele>103</ele>
        <time>2015-01-01T10:16:44Z</time>
        <extensions><gpxtpx:TrackPointExtension><gpxtpx:hr>161</gpxtpx:hr></gpxtpx:TrackPointExtension></extensions>
      </trkpt>
      <trkpt lat="63.84459159337" lon="20.349941840395">
        <ele>103.4</ele>
        <time>2015-01-01T10:16:46Z</time>
        <extensions><gpxtpx:TrackPointExtension><gpxtpx:hr>161</gpxtpx:hr></gpxtpx:TrackPointExtension></extensions>
      </trkpt>
      <trkpt lat="63.844590252265" lon="20.349958688021">
        <ele>103.8</ele>
        <time>2015-01-01T10:16:48Z</time>
        <extensions><gpxtpx:TrackPointExtension><gpxtpx:hr>161</gpxtpx:hr></gpxtpx:TrackPointExtension></extensions>
      </trkpt>
      <trkpt lat="63.844595700502" lon="20.349985091016">
        <ele>104.4</ele>
        <time>2015-01-01T10:16:49Z</time>
        <extensions><gpxtpx:TrackPointExtension><gpxtpx:hr>161</gpxtpx:hr></gpxtpx:TrackPointExtension></extensions>
      </trkpt>
      <trkpt lat="63.844599723816" lon="20.350088942796">
        <ele>104.6</ele>
        <time>2015-01-01T10:16:54Z</time>
        <extensions><gpxtpx:TrackPointExtension><gpxtpx:hr>160</gpxtpx:hr></gpxtpx:TrackPointExtension></extensions>
      </trkpt>
      <trkpt lat="63.844590252265" lon="20.350407371297">
        <ele>105.4</ele>
        <time>2015-01-01T10:17:01Z</time>
        <extensions><gpxtpx:TrackPointExtension><gpxtpx:hr>158</gpxtpx:hr></gpxtpx:TrackPointExtension></extensions>
      </trkpt>
      <trkpt lat="63.844607267529" lon="20.350665450096">
        <ele>106.4</ele>
        <time>2015-01-01T10:17:07Z</time>
        <extensions><gpxtpx:TrackPointExtension><gpxtpx:hr>158</gpxtpx:hr></gpxtpx:TrackPointExtension></extensions>
      </trkpt>
      <trkpt lat="63.844611123204" lon="20.350717585534">
        <ele>106.6</ele>
        <time>2015-01-01T10:17:08Z</time>
        <extensions><gpxtpx:TrackPointExtension><gpxtpx:hr>158</gpxtpx:hr></gpxtpx:TrackPointExtension></extensions>
      </trkpt>
      <trkpt lat="63.844607435167" lon="20.350894024596">
        <ele>106.8</ele>
        <time>2015-01-01T10:17:11Z</time>
        <extensions><gpxtpx:TrackPointExtension><gpxtpx:hr>157</gpxtpx:hr></gpxtpx:TrackPointExtension></extensions>
      </trkpt>
      <trkpt lat="63.844608608633" lon="20.350946746767">
        <ele>106.8</ele>
        <time>2015-01-01T10:17:12Z</time>
        <extensions><gpxtpx:TrackPointExtension><gpxtpx:hr>158</gpxtpx:hr></gpxtpx:TrackPointExtension></extensions>
      </trkpt>
      <trkpt lat="63.844658983871" lon="20.351255619898">
        <ele>107.2</ele>
        <time>2015-01-01T10:17:18Z</time>
        <extensions><gpxtpx:TrackPointExtension><gpxtpx:hr>158</gpxtpx:hr></gpxtpx:TrackPointExtension></extensions>
      </trkpt>
      <trkpt lat="63.844659486786" lon="20.35132560879">
        <ele>107.4</ele>
        <time>2015-01-01T10:17:19Z</time>
        <extensions><gpxtpx:TrackPointExtension><gpxtpx:hr>158</gpxtpx:hr></gpxtpx:TrackPointExtension></extensions>
      </trkpt>
      <trkpt lat="63.844652529806" lon="20.351470950991">
        <ele>107.6</ele>
        <time>2015-01-01T10:17:22Z</time>
        <extensions><gpxtpx:TrackPointExtension><gpxtpx:hr>158</gpxtpx:hr></gpxtpx:TrackPointExtension></extensions>
      </trkpt>
      <trkpt lat="63.844656134024" lon="20.351554686204">
        <ele>107.8</ele>
        <time>2015-01-01T10:17:24Z</time>
        <extensions><gpxtpx:TrackPointExtension><gpxtpx:hr>157</gpxtpx:hr></gpxtpx:TrackPointExtension></extensions>
      </trkpt>
      <trkpt lat="63.844564100727" lon="20.351863894612">
        <ele>108</ele>
        <time>2015-01-01T10:17:29Z</time>
        <extensions><gpxtpx:TrackPointExtension><gpxtpx:hr>155</gpxtpx:hr></gpxtpx:TrackPointExtension></extensions>
      </trkpt>
      <trkpt lat="63.844397468492" lon="20.351999597624">
        <ele>107.4</ele>
        <time>2015-01-01T10:17:33Z</time>
        <extensions><gpxtpx:TrackPointExtension><gpxtpx:hr>154</gpxtpx:hr></gpxtpx:TrackPointExtension></extensions>
      </trkpt>
      <trkpt lat="63.844344411045" lon="20.352013679221">
        <ele>106.8</ele>
        <time>2015-01-01T10:17:34Z</time>
        <extensions><gpxtpx:TrackPointExtension><gpxtpx:hr>153</gpxtpx:hr></gpxtpx:TrackPointExtension></extensions>
      </trkpt>
      <trkpt lat="63.844252377748" lon="20.352004878223">
        <ele>106.2</ele>
        <time>2015-01-01T10:17:36Z</time>
        <extensions><gpxtpx:TrackPointExtension><gpxtpx:hr>152</gpxtpx:hr></gpxtpx:TrackPointExtension></extensions>
      </trkpt>
      <trkpt lat="63.84416830726" lon="20.35196271725">
        <ele>105.6</ele>
        <time>2015-01-01T10:17:38Z</time>
        <extensions><gpxtpx:TrackPointExtension><gpxtpx:hr>151</gpxtpx:hr></gpxtpx:TrackPointExtension></extensions>
      </trkpt>
      <trkpt lat="63.844138802961" lon="20.351946875453">
        <ele>105.4</ele>
        <time>2015-01-01T10:17:39Z</time>
        <extensions><gpxtpx:TrackPointExtension><gpxtpx:hr>151</gpxtpx:hr></gpxtpx:TrackPointExtension></extensions>
      </trkpt>
      <trkpt lat="63.844085745513" lon="20.351924411952">
        <ele>105.2</ele>
        <time>2015-01-01T10:17:40Z</time>
        <extensions><gpxtpx:TrackPointExtension><gpxtpx:hr>150</gpxtpx:hr></gpxtpx:TrackPointExtension></extensions>
      </trkpt>
      <trkpt lat="63.843880221248" lon="20.35183028318">
        <ele>105.2</ele>
        <time>2015-01-01T10:17:46Z</time>
        <extensions><gpxtpx:TrackPointExtension><gpxtpx:hr>149</gpxtpx:hr></gpxtpx:TrackPointExtension></extensions>
      </trkpt>
      <trkpt lat="63.843758013099" lon="20.35157924518">
        <ele>105.4</ele>
        <time>2015-01-01T10:17:51Z</time>
        <extensions><gpxtpx:TrackPointExtension><gpxtpx:hr>149</gpxtpx:hr></gpxtpx:TrackPointExtension></extensions>
      </trkpt>
      <trkpt lat="63.843523906544" lon="20.351273138076">
        <ele>105</ele>
        <time>2015-01-01T10:17:58Z</time>
        <extensions><gpxtpx:TrackPointExtension><gpxtpx:hr>149</gpxtpx:hr></gpxtpx:TrackPointExtension></extensions>
      </trkpt>
      <trkpt lat="63.843428604305" lon="20.351235251874">
        <ele>105</ele>
        <time>2015-01-01T10:18:01Z</time>
        <extensions><gpxtpx:TrackPointExtension><gpxtpx:hr>148</gpxtpx:hr></gpxtpx:TrackPointExtension></extensions>
      </trkpt>
      <trkpt lat="63.843229282647" lon="20.351213458925">
        <ele>104.8</ele>
        <time>2015-01-01T10:18:06Z</time>
        <extensions><gpxtpx:TrackPointExtension><gpxtpx:hr>147</gpxtpx:hr></gpxtpx:TrackPointExtension></extensions>
      </trkpt>
      <trkpt lat="63.843075139448" lon="20.351200634614">
        <ele>104.8</ele>
        <time>2015-01-01T10:18:10Z</time>
        <extensions><gpxtpx:TrackPointExtension><gpxtpx:hr>147</gpxtpx:hr></gpxtpx:TrackPointExtension></extensions>
      </trkpt>
      <trkpt lat="63.843032810837" lon="20.351189235225">
        <ele>104.8</ele>
        <time>2015-01-01T10:18:11Z</time>
        <extensions><gpxtpx:TrackPointExtension><gpxtpx:hr>146</gpxtpx:hr></gpxtpx:TrackPointExtension></extensions>
      </trkpt>
      <trkpt lat="63.843005821109" lon="20.35119744949">
        <ele>104.6</ele>
        <time>2015-01-01T10:18:12Z</time>
        <extensions><gpxtpx:TrackPointExtension><gpxtpx:hr>146</gpxtpx:hr></gpxtpx:TrackPointExtension></extensions>
      </trkpt>
      <trkpt lat="63.842846900225" lon="20.351171297953">
        <ele>104.2</ele>
        <time>2015-01-01T10:18:16Z</time>
        <extensions><gpxtpx:TrackPointExtension><gpxtpx:hr>144</gpxtpx:hr></gpxtpx:TrackPointExtension></extensions>
      </trkpt>
      <trkpt lat="63.842831477523" lon="20.351172471419">
        <ele>104</ele>
        <time>2015-01-01T10:18:17Z</time>
        <extensions><gpxtpx:TrackPointExtension><gpxtpx:hr>145</gpxtpx:hr></gpxtpx:TrackPointExtension></extensions>
      </trkpt>
      <trkpt lat="63.842667108402" lon="20.351152690127">
        <ele>103.6</ele>
        <time>2015-01-01T10:18:21Z</time>
        <extensions><gpxtpx:TrackPointExtension><gpxtpx:hr>144</gpxtpx:hr></gpxtpx:TrackPointExtension></extensions>
      </trkpt>
      <trkpt lat="63.842616900802" lon="20.351133914664">
        <ele>103.6</ele>
        <time>2015-01-01T10:18:22Z</time>
        <extensions><gpxtpx:TrackPointExtension><gpxtpx:hr>144</gpxtpx:hr></gpxtpx:TrackPointExtension></extensions>
      </trkpt>
      <trkpt lat="63.842541631311" lon="20.351107260212">
        <ele>103.4</ele>
        <time>2015-01-01T10:18:24Z</time>
        <extensions><gpxtpx:TrackPointExtension><gpxtpx:hr>144</gpxtpx:hr></gpxtpx:TrackPointExtension></extensions>
      </trkpt>
      <trkpt lat="63.842513300478" lon="20.351092675701">
        <ele>103.4</ele>
        <time>2015-01-01T10:18:25Z</time>
        <extensions><gpxtpx:TrackPointExtension><gpxtpx:hr>144</gpxtpx:hr></gpxtpx:TrackPointExtension></extensions>
      </trkpt>
      <trkpt lat="63.842283971608" lon="20.350998295471">
        <ele>103.6</ele>
        <time>2015-01-01T10:18:31Z</time>
        <extensions><gpxtpx:TrackPointExtension><gpxtpx:hr>143</gpxtpx:hr></gpxtpx:TrackPointExtension></extensions>
      </trkpt>
      <trkpt lat="63.84211239405" lon="20.35088497214">
        <ele>103.6</ele>
        <time>2015-01-01T10:18:36Z</time>
        <extensions><gpxtpx:TrackPointExtension><gpxtpx:hr>142</gpxtpx:hr></gpxtpx:TrackPointExtension></extensions>
      </trkpt>
      <trkpt lat="63.842023629695" lon="20.350657068193">
        <ele>103.2</ele>
        <time>2015-01-01T10:18:40Z</time>
        <extensions><gpxtpx:TrackPointExtension><gpxtpx:hr>142</gpxtpx:hr></gpxtpx:TrackPointExtension></extensions>
      </trkpt>
      <trkpt lat="63.84202664718" lon="20.350519521162">
        <ele>103</ele>
        <time>2015-01-01T10:18:42Z</time>
        <extensions><gpxtpx:TrackPointExtension><gpxtpx:hr>141</gpxtpx:hr></gpxtpx:TrackPointExtension></extensions>
      </trkpt>
      <trkpt lat="63.842050451785" lon="20.350345093757">
        <ele>103</ele>
        <time>2015-01-01T10:18:44Z</time>
        <extensions><gpxtpx:TrackPointExtension><gpxtpx:hr>141</gpxtpx:hr></gpxtpx:TrackPointExtension></extensions>
      </trkpt>
      <trkpt lat="63.8421011623" lon="20.349914766848">
        <ele>102.6</ele>
        <time>2015-01-01T10:18:48Z</time>
        <extensions><gpxtpx:TrackPointExtension><gpxtpx:hr>140</gpxtpx:hr></gpxtpx:TrackPointExtension></extensions>
      </trkpt>
      <trkpt lat="63.842136869207" lon="20.34960212186">
        <ele>102</ele>
        <time>2015-01-01T10:18:51Z</time>
        <extensions><gpxtpx:TrackPointExtension><gpxtpx:hr>137</gpxtpx:hr></gpxtpx:TrackPointExtension></extensions>
      </trkpt>
      <trkpt lat="63.842157488689" lon="20.349222337827">
        <ele>101</ele>
        <time>2015-01-01T10:18:54Z</time>
        <extensions><gpxtpx:TrackPointExtension><gpxtpx:hr>135</gpxtpx:hr></gpxtpx:TrackPointExtension></extensions>
      </trkpt>
      <trkpt lat="63.842149525881" lon="20.349135668948">
        <ele>100.8</ele>
        <time>2015-01-01T10:18:55Z</time>
        <extensions><gpxtpx:TrackPointExtension><gpxtpx:hr>134</gpxtpx:hr></gpxtpx:TrackPointExtension></extensions>
      </trkpt>
      <trkpt lat="63.842109628022" lon="20.348742138594">
        <ele>99.4</ele>
        <time>2015-01-01T10:18:58Z</time>
        <extensions><gpxtpx:TrackPointExtension><gpxtpx:hr>133</gpxtpx:hr></gpxtpx:TrackPointExtension></extensions>
      </trkpt>
      <trkpt lat="63.842096216977" lon="20.348530076444">
        <ele>98.8</ele>
        <time>2015-01-01T10:19:00Z</time>
        <extensions><gpxtpx:TrackPointExtension><gpxtpx:hr>133</gpxtpx:hr></gpxtpx:TrackPointExtension></extensions>
      </trkpt>
      <trkpt lat="63.842098312452" lon="20.348453801125">
        <ele>98.4</ele>
        <time>2015-01-01T10:19:01Z</time>
        <extensions><gpxtpx:TrackPointExtension><gpxtpx:hr>133</gpxtpx:hr></gpxtpx:TrackPointExtension></extensions>
      </trkpt>
      <trkpt lat="63.842109376565" lon="20.348317595199">
        <ele>97.6</ele>
        <time>2015-01-01T10:19:02Z</time>
        <extensions><gpxtpx:TrackPointExtension><gpxtpx:hr>133</gpxtpx:hr></gpxtpx:TrackPointExtension></extensions>
      </trkpt>
      <trkpt lat="63.842121781781" lon="20.348231429234">
        <ele>97.2</ele>
        <time>2015-01-01T10:19:03Z</time>
        <extensions><gpxtpx:TrackPointExtension><gpxtpx:hr>134</gpxtpx:hr></gpxtpx:TrackPointExtension></extensions>
      </trkpt>
      <trkpt lat="63.842136785388" lon="20.348115926608">
        <ele>96.8</ele>
        <time>2015-01-01T10:19:04Z</time>
        <extensions><gpxtpx:TrackPointExtension><gpxtpx:hr>134</gpxtpx:hr></gpxtpx:TrackPointExtension></extensions>
      </trkpt>
      <trkpt lat="63.842160757631" lon="20.347881736234">
        <ele>96.6</ele>
        <time>2015-01-01T10:19:07Z</time>
        <extensions><gpxtpx:TrackPointExtension><gpxtpx:hr>135</gpxtpx:hr></gpxtpx:TrackPointExtension></extensions>
      </trkpt>
      <trkpt lat="63.842160087079" lon="20.347483679652">
        <ele>97</ele>
        <time>2015-01-01T10:19:11Z</time>
        <extensions><gpxtpx:TrackPointExtension><gpxtpx:hr>138</gpxtpx:hr></gpxtpx:TrackPointExtension></extensions>
      </trkpt>
      <trkpt lat="63.842120440677" lon="20.347260721028">
        <ele>97</ele>
        <time>2015-01-01T10:19:14Z</time>
        <extensions><gpxtpx:TrackPointExtension><gpxtpx:hr>140</gpxtpx:hr></gpxtpx:TrackPointExtension></extensions>
      </trkpt>
      <trkpt lat="63.842051457614" lon="20.346782617271">
        <ele>97.4</ele>
        <time>2015-01-01T10:19:20Z</time>
        <extensions><gpxtpx:TrackPointExtension><gpxtpx:hr>141</gpxtpx:hr></gpxtpx:TrackPointExtension></extensions>
      </trkpt>
      <trkpt lat="63.841989096254" lon="20.346523532644">
        <ele>97.6</ele>
        <time>2015-01-01T10:19:23Z</time>
        <extensions><gpxtpx:TrackPointExtension><gpxtpx:hr>141</gpxtpx:hr></gpxtpx:TrackPointExtension></extensions>
      </trkpt>
      <trkpt lat="63.841960178688" lon="20.34641909413">
        <ele>97.6</ele>
        <time>2015-01-01T10:19:24Z</time>
        <extensions><gpxtpx:TrackPointExtension><gpxtpx:hr>141</gpxtpx:hr></gpxtpx:TrackPointExtension></extensions>
      </trkpt>
      <trkpt lat="63.841902678832" lon="20.346217593178">
        <ele>96.4</ele>
        <time>2015-01-01T10:19:27Z</time>
        <extensions><gpxtpx:TrackPointExtension><gpxtpx:hr>138</gpxtpx:hr></gpxtpx:TrackPointExtension></extensions>
      </trkpt>
      <trkpt lat="63.841864038259" lon="20.346110807732">
        <ele>95.8</ele>
        <time>2015-01-01T10:19:28Z</time>
        <extensions><gpxtpx:TrackPointExtension><gpxtpx:hr>138</gpxtpx:hr></gpxtpx:TrackPointExtension></extensions>
      </trkpt>
      <trkpt lat="63.84185272269" lon="20.34607283771">
        <ele>95.8</ele>
        <time>2015-01-01T10:19:29Z</time>
        <extensions><gpxtpx:TrackPointExtension><gpxtpx:hr>137</gpxtpx:hr></gpxtpx:TrackPointExtension></extensions>
      </trkpt>
      <trkpt lat="63.841769406572" lon="20.345817357302">
        <ele>95.2</ele>
        <time>2015-01-01T10:19:32Z</time>
        <extensions><gpxtpx:TrackPointExtension><gpxtpx:hr>137</gpxtpx:hr></gpxtpx:TrackPointExtension></extensions>
      </trkpt>
      <trkpt lat="63.84164409712" lon="20.34569892101">
        <ele>95.2</ele>
        <time>2015-01-01T10:19:35Z</time>
        <extensions><gpxtpx:TrackPointExtension><gpxtpx:hr>137</gpxtpx:hr></gpxtpx:TrackPointExtension></extensions>
      </trkpt>
      <trkpt lat="63.841585423797" lon="20.345674362034">
        <ele>94.8</ele>
        <time>2015-01-01T10:19:36Z</time>
        <extensions><gpxtpx:TrackPointExtension><gpxtpx:hr>138</gpxtpx:hr></gpxtpx:TrackPointExtension></extensions>
      </trkpt>
      <trkpt lat="63.84155407548" lon="20.345674529672">
        <ele>94.8</ele>
        <time>2015-01-01T10:19:37Z</time>
        <extensions><gpxtpx:TrackPointExtension><gpxtpx:hr>138</gpxtpx:hr></gpxtpx:TrackPointExtension></extensions>
      </trkpt>
      <trkpt lat="63.841469502077" lon="20.345694059506">
        <ele>94.6</ele>
        <time>2015-01-01T10:19:39Z</time>
        <extensions><gpxtpx:TrackPointExtension><gpxtpx:hr>139</gpxtpx:hr></gpxtpx:TrackPointExtension></extensions>
      </trkpt>
      <trkpt lat="63.841393478215" lon="20.34574049525">
        <ele>94.6</ele>
        <time>2015-01-01T10:19:41Z</time>
        <extensions><gpxtpx:TrackPointExtension><gpxtpx:hr>139</gpxtpx:hr></gpxtpx:TrackPointExtension></extensions>
      </trkpt>
      <trkpt lat="63.841263810173" lon="20.34591877833">
        <ele>94.4</ele>
        <time>2015-01-01T10:19:45Z</time>
        <extensions><gpxtpx:TrackPointExtension><gpxtpx:hr>141</gpxtpx:hr></gpxtpx:TrackPointExtension></extensions>
      </trkpt>
      <trkpt lat="63.841186696663" lon="20.346144922078">
        <ele>94.8</ele>
        <time>2015-01-01T10:19:49Z</time>
        <extensions><gpxtpx:TrackPointExtension><gpxtpx:hr>143</gpxtpx:hr></gpxtpx:TrackPointExtension></extensions>
      </trkpt>
      <trkpt lat="63.841179572046" lon="20.346186747774">
        <ele>95</ele>
        <time>2015-01-01T10:19:50Z</time>
        <extensions><gpxtpx:TrackPointExtension><gpxtpx:hr>144</gpxtpx:hr></gpxtpx:TrackPointExtension></extensions>
      </trkpt>
      <trkpt lat="63.841128442436" lon="20.346432840452">
        <ele>96.2</ele>
        <time>2015-01-01T10:19:54Z</time>
        <extensions><gpxtpx:TrackPointExtension><gpxtpx:hr>146</gpxtpx:hr></gpxtpx:TrackPointExtension></extensions>
      </trkpt>
      <trkpt lat="63.84110648185" lon="20.346562340856">
        <ele>97</ele>
        <time>2015-01-01T10:19:56Z</time>
        <extensions><gpxtpx:TrackPointExtension><gpxtpx:hr>146</gpxtpx:hr></gpxtpx:TrackPointExtension></extensions>
      </trkpt>
      <trkpt lat="63.841024003923" lon="20.346787394956">
        <ele>97.2</ele>
        <time>2015-01-01T10:20:00Z</time>
        <extensions><gpxtpx:TrackPointExtension><gpxtpx:hr>147</gpxtpx:hr></gpxtpx:TrackPointExtension></extensions>
      </trkpt>
      <trkpt lat="63.840981172398" lon="20.346838440746">
        <ele>97.2</ele>
        <time>2015-01-01T10:20:01Z</time>
        <extensions><gpxtpx:TrackPointExtension><gpxtpx:hr>147</gpxtpx:hr></gpxtpx:TrackPointExtension></extensions>
      </trkpt>
      <trkpt lat="63.840923504904" lon="20.346889067441">
        <ele>97.2</ele>
        <time>2015-01-01T10:20:03Z</time>
        <extensions><gpxtpx:TrackPointExtension><gpxtpx:hr>147</gpxtpx:hr></gpxtpx:TrackPointExtension></extensions>
      </trkpt>
      <trkpt lat="63.840795345604" lon="20.346892420202">
        <ele>97.6</ele>
        <time>2015-01-01T10:20:07Z</time>
        <extensions><gpxtpx:TrackPointExtension><gpxtpx:hr>147</gpxtpx:hr></gpxtpx:TrackPointExtension></extensions>
      </trkpt>
      <trkpt lat="63.840640364215" lon="20.346795609221">
        <ele>97.6</ele>
        <time>2015-01-01T10:20:11Z</time>
        <extensions><gpxtpx:TrackPointExtension><gpxtpx:hr>147</gpxtpx:hr></gpxtpx:TrackPointExtension></extensions>
      </trkpt>
      <trkpt lat="63.840617900714" lon="20.346769122407">
        <ele>97.6</ele>
        <time>2015-01-01T10:20:12Z</time>
        <extensions><gpxtpx:TrackPointExtension><gpxtpx:hr>147</gpxtpx:hr></gpxtpx:TrackPointExtension></extensions>
      </trkpt>
      <trkpt lat="63.840489573777" lon="20.346536608413">
        <ele>97</ele>
        <time>2015-01-01T10:20:16Z</time>
        <extensions><gpxtpx:TrackPointExtension><gpxtpx:hr>147</gpxtpx:hr></gpxtpx:TrackPointExtension></extensions>
      </trkpt>
      <trkpt lat="63.840393936262" lon="20.346348937601">
        <ele>96.6</ele>
        <time>2015-01-01T10:20:20Z</time>
        <extensions><gpxtpx:TrackPointExtension><gpxtpx:hr>146</gpxtpx:hr></gpxtpx:TrackPointExtension></extensions>
      </trkpt>
      <trkpt lat="63.840267872438" lon="20.346093708649">
        <ele>96.2</ele>
        <time>2015-01-01T10:20:24Z</time>
        <extensions><gpxtpx:TrackPointExtension><gpxtpx:hr>145</gpxtpx:hr></gpxtpx:TrackPointExtension></extensions>
      </trkpt>
      <trkpt lat="63.840220682323" lon="20.346010643989">
        <ele>96</ele>
        <time>2015-01-01T10:20:25Z</time>
        <extensions><gpxtpx:TrackPointExtension><gpxtpx:hr>144</gpxtpx:hr></gpxtpx:TrackPointExtension></extensions>
      </trkpt>
      <trkpt lat="63.840106939897" lon="20.34585130401">
        <ele>95.2</ele>
        <time>2015-01-01T10:20:28Z</time>
        <extensions><gpxtpx:TrackPointExtension><gpxtpx:hr>141</gpxtpx:hr></gpxtpx:TrackPointExtension></extensions>
      </trkpt>
      <trkpt lat="63.840054385364" lon="20.345801515505">
        <ele>94.8</ele>
        <time>2015-01-01T10:20:29Z</time>
        <extensions><gpxtpx:TrackPointExtension><gpxtpx:hr>141</gpxtpx:hr></gpxtpx:TrackPointExtension></extensions>
      </trkpt>
      <trkpt lat="63.840016499162" lon="20.345775280148">
        <ele>94.6</ele>
        <time>2015-01-01T10:20:30Z</time>
        <extensions><gpxtpx:TrackPointExtension><gpxtpx:hr>140</gpxtpx:hr></gpxtpx:TrackPointExtension></extensions>
      </trkpt>
      <trkpt lat="63.839955478907" lon="20.345743261278">
        <ele>94.2</ele>
        <time>2015-01-01T10:20:31Z</time>
        <extensions><gpxtpx:TrackPointExtension><gpxtpx:hr>139</gpxtpx:hr></gpxtpx:TrackPointExtension></extensions>
      </trkpt>
      <trkpt lat="63.839933602139" lon="20.345744434744">
        <ele>93.6</ele>
        <time>2015-01-01T10:20:32Z</time>
        <extensions><gpxtpx:TrackPointExtension><gpxtpx:hr>139</gpxtpx:hr></gpxtpx:TrackPointExtension></extensions>
      </trkpt>
      <trkpt lat="63.839839473367" lon="20.345783494413">
        <ele>93.2</ele>
        <time>2015-01-01T10:20:34Z</time>
        <extensions><gpxtpx:TrackPointExtension><gpxtpx:hr>138</gpxtpx:hr></gpxtpx:TrackPointExtension></extensions>
      </trkpt>
      <trkpt lat="63.839751379564" lon="20.345830768347">
        <ele>92.8</ele>
        <time>2015-01-01T10:20:36Z</time>
        <extensions><gpxtpx:TrackPointExtension><gpxtpx:hr>139</gpxtpx:hr></gpxtpx:TrackPointExtension></extensions>
      </trkpt>
      <trkpt lat="63.839685833082" lon="20.345905283466">
        <ele>92.8</ele>
        <time>2015-01-01T10:20:38Z</time>
        <extensions><gpxtpx:TrackPointExtension><gpxtpx:hr>140</gpxtpx:hr></gpxtpx:TrackPointExtension></extensions>
      </trkpt>
      <trkpt lat="63.839527498931" lon="20.346181550995">
        <ele>93</ele>
        <time>2015-01-01T10:20:44Z</time>
        <extensions><gpxtpx:TrackPointExtension><gpxtpx:hr>142</gpxtpx:hr></gpxtpx:TrackPointExtension></extensions>
      </trkpt>
      <trkpt lat="63.839455582201" lon="20.346464188769">
        <ele>93.4</ele>
        <time>2015-01-01T10:20:49Z</time>
        <extensions><gpxtpx:TrackPointExtension><gpxtpx:hr>144</gpxtpx:hr></gpxtpx:TrackPointExtension></extensions>
      </trkpt>
      <trkpt lat="63.83935273625" lon="20.346778593957">
        <ele>94.4</ele>
        <time>2015-01-01T10:20:55Z</time>
        <extensions><gpxtpx:TrackPointExtension><gpxtpx:hr>145</gpxtpx:hr></gpxtpx:TrackPointExtension></extensions>
      </trkpt>
      <trkpt lat="63.839251147583" lon="20.346864173189">
        <ele>95</ele>
        <time>2015-01-01T10:20:59Z</time>
        <extensions><gpxtpx:TrackPointExtension><gpxtpx:hr>145</gpxtpx:hr></gpxtpx:TrackPointExtension></extensions>
      </trkpt>
      <trkpt lat="63.839094908908" lon="20.346851013601">
        <ele>95.2</ele>
        <time>2015-01-01T10:21:03Z</time>
        <extensions><gpxtpx:TrackPointExtension><gpxtpx:hr>145</gpxtpx:hr></gpxtpx:TrackPointExtension></extensions>
      </trkpt>
      <trkpt lat="63.838928360492" lon="20.346805080771">
        <ele>95</ele>
        <time>2015-01-01T10:21:08Z</time>
        <extensions><gpxtpx:TrackPointExtension><gpxtpx:hr>145</gpxtpx:hr></gpxtpx:TrackPointExtension></extensions>
      </trkpt>
      <trkpt lat="63.838872704655" lon="20.346804158762">
        <ele>95</ele>
        <time>2015-01-01T10:21:09Z</time>
        <extensions><gpxtpx:TrackPointExtension><gpxtpx:hr>145</gpxtpx:hr></gpxtpx:TrackPointExtension></extensions>
      </trkpt>
      <trkpt lat="63.838803637773" lon="20.346777755767">
        <ele>95</ele>
        <time>2015-01-01T10:21:11Z</time>
        <extensions><gpxtpx:TrackPointExtension><gpxtpx:hr>145</gpxtpx:hr></gpxtpx:TrackPointExtension></extensions>
      </trkpt>
      <trkpt lat="63.838688638061" lon="20.346662923694">
        <ele>95.2</ele>
        <time>2015-01-01T10:21:15Z</time>
        <extensions><gpxtpx:TrackPointExtension><gpxtpx:hr>143</gpxtpx:hr></gpxtpx:TrackPointExtension></extensions>
      </trkpt>
      <trkpt lat="63.838679501787" lon="20.346453292295">
        <ele>95.2</ele>
        <time>2015-01-01T10:21:18Z</time>
        <extensions><gpxtpx:TrackPointExtension><gpxtpx:hr>141</gpxtpx:hr></gpxtpx:TrackPointExtension></extensions>
      </trkpt>
      <trkpt lat="63.838684950024" lon="20.346150035039">
        <ele>95.2</ele>
        <time>2015-01-01T10:21:21Z</time>
        <extensions><gpxtpx:TrackPointExtension><gpxtpx:hr>140</gpxtpx:hr></gpxtpx:TrackPointExtension></extensions>
      </trkpt>
      <trkpt lat="63.838692493737" lon="20.345936715603">
        <ele>94.6</ele>
        <time>2015-01-01T10:21:23Z</time>
        <extensions><gpxtpx:TrackPointExtension><gpxtpx:hr>139</gpxtpx:hr></gpxtpx:TrackPointExtension></extensions>
      </trkpt>
      <trkpt lat="63.838712442666" lon="20.34558115527">
        <ele>93</ele>
        <time>2015-01-01T10:21:26Z</time>
        <extensions><gpxtpx:TrackPointExtension><gpxtpx:hr>137</gpxtpx:hr></gpxtpx:TrackPointExtension></extensions>
      </trkpt>
      <trkpt lat="63.838734067976" lon="20.345292566344">
        <ele>91.4</ele>
        <time>2015-01-01T10:21:28Z</time>
        <extensions><gpxtpx:TrackPointExtension><gpxtpx:hr>136</gpxtpx:hr></gpxtpx:TrackPointExtension></extensions>
      </trkpt>
      <trkpt lat="63.838744629174" lon="20.345145966858">
        <ele>90.8</ele>
        <time>2015-01-01T10:21:29Z</time>
        <extensions><gpxtpx:TrackPointExtension><gpxtpx:hr>135</gpxtpx:hr></gpxtpx:TrackPointExtension></extensions>
      </trkpt>
      <trkpt lat="63.838751586154" lon="20.345043875277">
        <ele>90.2</ele>
        <time>2015-01-01T10:21:30Z</time>
        <extensions><gpxtpx:TrackPointExtension><gpxtpx:hr>135</gpxtpx:hr></gpxtpx:TrackPointExtension></extensions>
      </trkpt>
      <trkpt lat="63.838767260313" lon="20.344665599987">
        <ele>89</ele>
        <time>2015-01-01T10:21:33Z</time>
        <extensions><gpxtpx:TrackPointExtension><gpxtpx:hr>134</gpxtpx:hr></gpxtpx:TrackPointExtension></extensions>
      </trkpt>
      <trkpt lat="63.838768517599" lon="20.344469882548">
        <ele>88.8</ele>
        <time>2015-01-01T10:21:35Z</time>
        <extensions><gpxtpx:TrackPointExtension><gpxtpx:hr>133</gpxtpx:hr></gpxtpx:TrackPointExtension></extensions>
      </trkpt>
      <trkpt lat="63.838781174272" lon="20.344254467636">
        <ele>88.4</ele>
        <time>2015-01-01T10:21:37Z</time>
        <extensions><gpxtpx:TrackPointExtension><gpxtpx:hr>132</gpxtpx:hr></gpxtpx:TrackPointExtension></extensions>
      </trkpt>
      <trkpt lat="63.83881252259" lon="20.343868313357">
        <ele>88</ele>
        <time>2015-01-01T10:21:41Z</time>
        <extensions><gpxtpx:TrackPointExtension><gpxtpx:hr>131</gpxtpx:hr></gpxtpx:TrackPointExtension></extensions>
      </trkpt>
      <trkpt lat="63.838843954727" lon="20.343522140756">
        <ele>88.4</ele>
        <time>2015-01-01T10:21:45Z</time>
        <extensions><gpxtpx:TrackPointExtension><gpxtpx:hr>133</gpxtpx:hr></gpxtpx:TrackPointExtension></extensions>
      </trkpt>
      <trkpt lat="63.838856108487" lon="20.343218548223">
        <ele>88.6</ele>
        <time>2015-01-01T10:21:49Z</time>
        <extensions><gpxtpx:TrackPointExtension><gpxtpx:hr>132</gpxtpx:hr></gpxtpx:TrackPointExtension></extensions>
      </trkpt>
      <trkpt lat="63.838868094608" lon="20.343050239608">
        <ele>88.2</ele>
        <time>2015-01-01T10:21:52Z</time>
        <extensions><gpxtpx:TrackPointExtension><gpxtpx:hr>132</gpxtpx:hr></gpxtpx:TrackPointExtension></extensions>
      </trkpt>
      <trkpt lat="63.838865077123" lon="20.343006150797">
        <ele>88</ele>
        <time>2015-01-01T10:21:53Z</time>
        <extensions><gpxtpx:TrackPointExtension><gpxtpx:hr>132</gpxtpx:hr></gpxtpx:TrackPointExtension></extensions>
      </trkpt>
      <trkpt lat="63.838847391307" lon="20.343013778329">
        <ele>87.8</ele>
        <time>2015-01-01T10:21:55Z</time>
        <extensions><gpxtpx:TrackPointExtension><gpxtpx:hr>132</gpxtpx:hr></gpxtpx:TrackPointExtension></extensions>
      </trkpt>
      <trkpt lat="63.838829789311" lon="20.343202874064">
        <ele>87.8</ele>
        <time>2015-01-01T10:22:00Z</time>
        <extensions><gpxtpx:TrackPointExtension><gpxtpx:hr>133</gpxtpx:hr></gpxtpx:TrackPointExtension></extensions>
      </trkpt>
      <trkpt lat="63.838801123202" lon="20.343583831564">
        <ele>87.8</ele>
        <time>2015-01-01T10:22:07Z</time>
        <extensions><gpxtpx:TrackPointExtension><gpxtpx:hr>136</gpxtpx:hr></gpxtpx:TrackPointExtension></extensions>
      </trkpt>
      <trkpt lat="63.838764578104" lon="20.343984235078">
        <ele>88.2</ele>
        <time>2015-01-01T10:22:13Z</time>
        <extensions><gpxtpx:TrackPointExtension><gpxtpx:hr>138</gpxtpx:hr></gpxtpx:TrackPointExtension></extensions>
      </trkpt>
      <trkpt lat="63.838741276413" lon="20.34437969327">
        <ele>88.4</ele>
        <time>2015-01-01T10:22:18Z</time>
        <extensions><gpxtpx:TrackPointExtension><gpxtpx:hr>140</gpxtpx:hr></gpxtpx:TrackPointExtension></extensions>
      </trkpt>
      <trkpt lat="63.838724680245" lon="20.34469652921">
        <ele>88.8</ele>
        <time>2015-01-01T10:22:23Z</time>
        <extensions><gpxtpx:TrackPointExtension><gpxtpx:hr>140</gpxtpx:hr></gpxtpx:TrackPointExtension></extensions>
      </trkpt>
      <trkpt lat="63.838704228401" lon="20.344964414835">
        <ele>89.2</ele>
        <time>2015-01-01T10:22:27Z</time>
        <extensions><gpxtpx:TrackPointExtension><gpxtpx:hr>140</gpxtpx:hr></gpxtpx:TrackPointExtension></extensions>
      </trkpt>
      <trkpt lat="63.838691404089" lon="20.345126604661">
        <ele>89.2</ele>
        <time>2015-01-01T10:22:29Z</time>
        <extensions><gpxtpx:TrackPointExtension><gpxtpx:hr>140</gpxtpx:hr></gpxtpx:TrackPointExtension></extensions>
      </trkpt>
      <trkpt lat="63.838655278087" lon="20.345526505262">
        <ele>89.6</ele>
        <time>2015-01-01T10:22:35Z</time>
        <extensions><gpxtpx:TrackPointExtension><gpxtpx:hr>142</gpxtpx:hr></gpxtpx:TrackPointExtension></extensions>
      </trkpt>
      <trkpt lat="63.838643291965" lon="20.345645863563">
        <ele>90.2</ele>
        <time>2015-01-01T10:22:37Z</time>
        <extensions><gpxtpx:TrackPointExtension><gpxtpx:hr>143</gpxtpx:hr></gpxtpx:TrackPointExtension></extensions>
      </trkpt>
      <trkpt lat="63.838624767959" lon="20.345852477476">
        <ele>91</ele>
        <time>2015-01-01T10:22:41Z</time>
        <extensions><gpxtpx:TrackPointExtension><gpxtpx:hr>145</gpxtpx:hr></gpxtpx:TrackPointExtension></extensions>
      </trkpt>
      <trkpt lat="63.838612446561" lon="20.346002681181">
        <ele>91.2</ele>
        <time>2015-01-01T10:22:44Z</time>
        <extensions><gpxtpx:TrackPointExtension><gpxtpx:hr>146</gpxtpx:hr></gpxtpx:TrackPointExtension></extensions>
      </trkpt>
      <trkpt lat="63.838607920334" lon="20.346104521304">
        <ele>91.8</ele>
        <time>2015-01-01T10:22:47Z</time>
        <extensions><gpxtpx:TrackPointExtension><gpxtpx:hr>149</gpxtpx:hr></gpxtpx:TrackPointExtension></extensions>
      </trkpt>
      <trkpt lat="63.838601885363" lon="20.346211642027">
        <ele>92.4</ele>
        <time>2015-01-01T10:22:49Z</time>
        <extensions><gpxtpx:TrackPointExtension><gpxtpx:hr>150</gpxtpx:hr></gpxtpx:TrackPointExtension></extensions>
      </trkpt>
      <trkpt lat="63.838594760746" lon="20.346433175728">
        <ele>93.2</ele>
        <time>2015-01-01T10:22:54Z</time>
        <extensions><gpxtpx:TrackPointExtension><gpxtpx:hr>151</gpxtpx:hr></gpxtpx:TrackPointExtension></extensions>
      </trkpt>
      <trkpt lat="63.838589480147" lon="20.346532166004">
        <ele>93.6</ele>
        <time>2015-01-01T10:22:56Z</time>
        <extensions><gpxtpx:TrackPointExtension><gpxtpx:hr>153</gpxtpx:hr></gpxtpx:TrackPointExtension></extensions>
      </trkpt>
      <trkpt lat="63.838582858443" lon="20.346668791026">
        <ele>94</ele>
        <time>2015-01-01T10:22:59Z</time>
        <extensions><gpxtpx:TrackPointExtension><gpxtpx:hr>154</gpxtpx:hr></gpxtpx:TrackPointExtension></extensions>
      </trkpt>
      <trkpt lat="63.838573805988" lon="20.346826286986">
        <ele>94.6</ele>
        <time>2015-01-01T10:23:02Z</time>
        <extensions><gpxtpx:TrackPointExtension><gpxtpx:hr>155</gpxtpx:hr></gpxtpx:TrackPointExtension></extensions>
      </trkpt>
      <trkpt lat="63.83857187815" lon="20.347038768232">
        <ele>95.4</ele>
        <time>2015-01-01T10:23:06Z</time>
        <extensions><gpxtpx:TrackPointExtension><gpxtpx:hr>157</gpxtpx:hr></gpxtpx:TrackPointExtension></extensions>
      </trkpt>
      <trkpt lat="63.838561652228" lon="20.347227696329">
        <ele>95.8</ele>
        <time>2015-01-01T10:23:09Z</time>
        <extensions><gpxtpx:TrackPointExtension><gpxtpx:hr>157</gpxtpx:hr></gpxtpx:TrackPointExtension></extensions>
      </trkpt>
      <trkpt lat="63.838560143486" lon="20.347301540896">
        <ele>96</ele>
        <time>2015-01-01T10:23:10Z</time>
        <extensions><gpxtpx:TrackPointExtension><gpxtpx:hr>156</gpxtpx:hr></gpxtpx:TrackPointExtension></extensions>
      </trkpt>
      <trkpt lat="63.838572548702" lon="20.347440261394">
        <ele>96</ele>
        <time>2015-01-01T10:23:12Z</time>
        <extensions><gpxtpx:TrackPointExtension><gpxtpx:hr>156</gpxtpx:hr></gpxtpx:TrackPointExtension></extensions>
      </trkpt>
      <trkpt lat="63.838568776846" lon="20.347580658272">
        <ele>96</ele>
        <time>2015-01-01T10:23:14Z</time>
        <extensions><gpxtpx:TrackPointExtension><gpxtpx:hr>156</gpxtpx:hr></gpxtpx:TrackPointExtension></extensions>
      </trkpt>
      <trkpt lat="63.838575566188" lon="20.347757767886">
        <ele>96</ele>
        <time>2015-01-01T10:23:17Z</time>
        <extensions><gpxtpx:TrackPointExtension><gpxtpx:hr>156</gpxtpx:hr></gpxtpx:TrackPointExtension></extensions>
      </trkpt>
      <trkpt lat="63.838586043566" lon="20.348086841404">
        <ele>95.6</ele>
        <time>2015-01-01T10:23:21Z</time>
        <extensions><gpxtpx:TrackPointExtension><gpxtpx:hr>155</gpxtpx:hr></gpxtpx:TrackPointExtension></extensions>
      </trkpt>
      <trkpt lat="63.838597526774" lon="20.348266800866">
        <ele>95.4</ele>
        <time>2015-01-01T10:23:23Z</time>
        <extensions><gpxtpx:TrackPointExtension><gpxtpx:hr>155</gpxtpx:hr></gpxtpx:TrackPointExtension></extensions>
      </trkpt>
      <trkpt lat="63.838576739654" lon="20.348524292931">
        <ele>95.2</ele>
        <time>2015-01-01T10:23:26Z</time>
        <extensions><gpxtpx:TrackPointExtension><gpxtpx:hr>155</gpxtpx:hr></gpxtpx:TrackPointExtension></extensions>
      </trkpt>
      <trkpt lat="63.838568190113" lon="20.34880223684">
        <ele>95.2</ele>
        <time>2015-01-01T10:23:30Z</time>
        <extensions><gpxtpx:TrackPointExtension><gpxtpx:hr>154</gpxtpx:hr></gpxtpx:TrackPointExtension></extensions>
      </trkpt>
      <trkpt lat="63.838519658893" lon="20.349090239033">
        <ele>95.4</ele>
        <time>2015-01-01T10:23:34Z</time>
        <extensions><gpxtpx:TrackPointExtension><gpxtpx:hr>155</gpxtpx:hr></gpxtpx:TrackPointExtension></extensions>
      </trkpt>
      <trkpt lat="63.838502559811" lon="20.34937874414">
        <ele>95.8</ele>
        <time>2015-01-01T10:23:39Z</time>
        <extensions><gpxtpx:TrackPointExtension><gpxtpx:hr>155</gpxtpx:hr></gpxtpx:TrackPointExtension></extensions>
      </trkpt>
      <trkpt lat="63.838479006663" lon="20.349639253691">
        <ele>97</ele>
        <time>2015-01-01T10:23:44Z</time>
        <extensions><gpxtpx:TrackPointExtension><gpxtpx:hr>157</gpxtpx:hr></gpxtpx:TrackPointExtension></extensions>
      </trkpt>
      <trkpt lat="63.838475150988" lon="20.349668841809">
        <ele>97.2</ele>
        <time>2015-01-01T10:23:45Z</time>
        <extensions><gpxtpx:TrackPointExtension><gpxtpx:hr>157</gpxtpx:hr></gpxtpx:TrackPointExtension></extensions>
      </trkpt>
      <trkpt lat="63.838479006663" lon="20.349732460454">
        <ele>97.8</ele>
        <time>2015-01-01T10:23:47Z</time>
        <extensions><gpxtpx:TrackPointExtension><gpxtpx:hr>158</gpxtpx:hr></gpxtpx:TrackPointExtension></extensions>
      </trkpt>
      <trkpt lat="63.838524101302" lon="20.349839245901">
        <ele>98</ele>
        <time>2015-01-01T10:23:50Z</time>
        <extensions><gpxtpx:TrackPointExtension><gpxtpx:hr>159</gpxtpx:hr></gpxtpx:TrackPointExtension></extensions>
      </trkpt>
      <trkpt lat="63.838535752147" lon="20.349848968908">
        <ele>98.2</ele>
        <time>2015-01-01T10:23:51Z</time>
        <extensions><gpxtpx:TrackPointExtension><gpxtpx:hr>159</gpxtpx:hr></gpxtpx:TrackPointExtension></extensions>
      </trkpt>
      <trkpt lat="63.838719483465" lon="20.349849136546">
        <ele>98.8</ele>
        <time>2015-01-01T10:23:57Z</time>
        <extensions><gpxtpx:TrackPointExtension><gpxtpx:hr>159</gpxtpx:hr></gpxtpx:TrackPointExtension></extensions>
      </trkpt>
      <trkpt lat="63.838853342459" lon="20.349739333615">
        <ele>99.2</ele>
        <time>2015-01-01T10:24:01Z</time>
        <extensions><gpxtpx:TrackPointExtension><gpxtpx:hr>158</gpxtpx:hr></gpxtpx:TrackPointExtension></extensions>
      </trkpt>
      <trkpt lat="63.838881421834" lon="20.349729275331">
        <ele>99.2</ele>
        <time>2015-01-01T10:24:02Z</time>
        <extensions><gpxtpx:TrackPointExtension><gpxtpx:hr>157</gpxtpx:hr></gpxtpx:TrackPointExtension></extensions>
      </trkpt>
      <trkpt lat="63.838954847306" lon="20.349672110751">
        <ele>99</ele>
        <time>2015-01-01T10:24:04Z</time>
        <extensions><gpxtpx:TrackPointExtension><gpxtpx:hr>157</gpxtpx:hr></gpxtpx:TrackPointExtension></extensions>
      </trkpt>
      <trkpt lat="63.839035481215" lon="20.349586615339">
        <ele>99</ele>
        <time>2015-01-01T10:24:06Z</time>
        <extensions><gpxtpx:TrackPointExtension><gpxtpx:hr>156</gpxtpx:hr></gpxtpx:TrackPointExtension></extensions>
      </trkpt>
      <trkpt lat="63.839109828696" lon="20.349486619234">
        <ele>98.6</ele>
        <time>2015-01-01T10:24:08Z</time>
        <extensions><gpxtpx:TrackPointExtension><gpxtpx:hr>156</gpxtpx:hr></gpxtpx:TrackPointExtension></extensions>
      </trkpt>
      <trkpt lat="63.839197168127" lon="20.349339935929">
        <ele>98</ele>
        <time>2015-01-01T10:24:11Z</time>
        <extensions><gpxtpx:TrackPointExtension><gpxtpx:hr>155</gpxtpx:hr></gpxtpx:TrackPointExtension></extensions>
      </trkpt>
      <trkpt lat="63.839267659932" lon="20.349235581234">
        <ele>97.6</ele>
        <time>2015-01-01T10:24:13Z</time>
        <extensions><gpxtpx:TrackPointExtension><gpxtpx:hr>154</gpxtpx:hr></gpxtpx:TrackPointExtension></extensions>
      </trkpt>
      <trkpt lat="63.839298505336" lon="20.349221667275">
        <ele>97.6</ele>
        <time>2015-01-01T10:24:14Z</time>
        <extensions><gpxtpx:TrackPointExtension><gpxtpx:hr>154</gpxtpx:hr></gpxtpx:TrackPointExtension></extensions>
      </trkpt>
      <trkpt lat="63.839429263026" lon="20.34922904335">
        <ele>97.4</ele>
        <time>2015-01-01T10:24:17Z</time>
        <extensions><gpxtpx:TrackPointExtension><gpxtpx:hr>154</gpxtpx:hr></gpxtpx:TrackPointExtension></extensions>
      </trkpt>
      <trkpt lat="63.839471843094" lon="20.349258128554">
        <ele>97.4</ele>
        <time>2015-01-01T10:24:18Z</time>
        <extensions><gpxtpx:TrackPointExtension><gpxtpx:hr>154</gpxtpx:hr></gpxtpx:TrackPointExtension></extensions>
      </trkpt>
      <trkpt lat="63.839515261352" lon="20.349352927878">
        <ele>97.6</ele>
        <time>2015-01-01T10:24:20Z</time>
        <extensions><gpxtpx:TrackPointExtension><gpxtpx:hr>153</gpxtpx:hr></gpxtpx:TrackPointExtension></extensions>
      </trkpt>
      <trkpt lat="63.839561780915" lon="20.349542107433">
        <ele>97.8</ele>
        <time>2015-01-01T10:24:23Z</time>
        <extensions><gpxtpx:TrackPointExtension><gpxtpx:hr>153</gpxtpx:hr></gpxtpx:TrackPointExtension></extensions>
      </trkpt>
      <trkpt lat="63.839559266344" lon="20.349674960598">
        <ele>98</ele>
        <time>2015-01-01T10:24:25Z</time>
        <extensions><gpxtpx:TrackPointExtension><gpxtpx:hr>154</gpxtpx:hr></gpxtpx:TrackPointExtension></extensions>
      </trkpt>
      <trkpt lat="63.839544514194" lon="20.349893476814">
        <ele>98.6</ele>
        <time>2015-01-01T10:24:30Z</time>
        <extensions><gpxtpx:TrackPointExtension><gpxtpx:hr>155</gpxtpx:hr></gpxtpx:TrackPointExtension></extensions>
      </trkpt>
      <trkpt lat="63.839525151998" lon="20.35008860752">
        <ele>99</ele>
        <time>2015-01-01T10:24:34Z</time>
        <extensions><gpxtpx:TrackPointExtension><gpxtpx:hr>156</gpxtpx:hr></gpxtpx:TrackPointExtension></extensions>
      </trkpt>
      <trkpt lat="63.83952582255" lon="20.350149041042">
        <ele>99</ele>
        <time>2015-01-01T10:24:35Z</time>
        <extensions><gpxtpx:TrackPointExtension><gpxtpx:hr>156</gpxtpx:hr></gpxtpx:TrackPointExtension></extensions>
      </trkpt>
      <trkpt lat="63.839557338506" lon="20.350389266387">
        <ele>99.6</ele>
        <time>2015-01-01T10:24:40Z</time>
        <extensions><gpxtpx:TrackPointExtension><gpxtpx:hr>155</gpxtpx:hr></gpxtpx:TrackPointExtension></extensions>
      </trkpt>
      <trkpt lat="63.839616598561" lon="20.350609458983">
        <ele>100</ele>
        <time>2015-01-01T10:24:44Z</time>
        <extensions><gpxtpx:TrackPointExtension><gpxtpx:hr>155</gpxtpx:hr></gpxtpx:TrackPointExtension></extensions>
      </trkpt>
      <trkpt lat="63.839642247185" lon="20.350736696273">
        <ele>100.2</ele>
        <time>2015-01-01T10:24:46Z</time>
        <extensions><gpxtpx:TrackPointExtension><gpxtpx:hr>155</gpxtpx:hr></gpxtpx:TrackPointExtension></extensions>
      </trkpt>
      <trkpt lat="63.839709805325" lon="20.350962085649">
        <ele>100.2</ele>
        <time>2015-01-01T10:24:49Z</time>
        <extensions><gpxtpx:TrackPointExtension><gpxtpx:hr>154</gpxtpx:hr></gpxtpx:TrackPointExtension></extensions>
      </trkpt>
      <trkpt lat="63.83978121914" lon="20.351272970438">
        <ele>100.2</ele>
        <time>2015-01-01T10:24:54Z</time>
        <extensions><gpxtpx:TrackPointExtension><gpxtpx:hr>154</gpxtpx:hr></gpxtpx:TrackPointExtension></extensions>
      </trkpt>
      <trkpt lat="63.83986688219" lon="20.351603552699">
        <ele>100.2</ele>
        <time>2015-01-01T10:24:59Z</time>
        <extensions><gpxtpx:TrackPointExtension><gpxtpx:hr>154</gpxtpx:hr></gpxtpx:TrackPointExtension></extensions>
      </trkpt>
      <trkpt lat="63.839900074527" lon="20.351989287883">
        <ele>100.2</ele>
        <time>2015-01-01T10:25:05Z</time>
        <extensions><gpxtpx:TrackPointExtension><gpxtpx:hr>154</gpxtpx:hr></gpxtpx:TrackPointExtension></extensions>
      </trkpt>
      <trkpt lat="63.83995262906" lon="20.352246025577">
        <ele>100.8</ele>
        <time>2015-01-01T10:25:09Z</time>
        <extensions><gpxtpx:TrackPointExtension><gpxtpx:hr>154</gpxtpx:hr></gpxtpx:TrackPointExtension></extensions>
      </trkpt>
      <trkpt lat="63.840002501383" lon="20.352394971997">
        <ele>101.2</ele>
        <time>2015-01-01T10:25:12Z</time>
        <extensions><gpxtpx:TrackPointExtension><gpxtpx:hr>154</gpxtpx:hr></gpxtpx:TrackPointExtension></extensions>
      </trkpt>
      <trkpt lat="63.840024713427" lon="20.352479713038">
        <ele>101.2</ele>
        <time>2015-01-01T10:25:13Z</time>
        <extensions><gpxtpx:TrackPointExtension><gpxtpx:hr>154</gpxtpx:hr></gpxtpx:TrackPointExtension></extensions>
      </trkpt>
      <trkpt lat="63.840041980147" lon="20.3527288232">
        <ele>101.6</ele>
        <time>2015-01-01T10:25:18Z</time>
        <extensions><gpxtpx:TrackPointExtension><gpxtpx:hr>155</gpxtpx:hr></gpxtpx:TrackPointExtension></extensions>
      </trkpt>
      <trkpt lat="63.840052625164" lon="20.352877350524">
        <ele>102.2</ele>
        <time>2015-01-01T10:25:21Z</time>
        <extensions><gpxtpx:TrackPointExtension><gpxtpx:hr>156</gpxtpx:hr></gpxtpx:TrackPointExtension></extensions>
      </trkpt>
      <trkpt lat="63.840051703155" lon="20.35302143544">
        <ele>102.4</ele>
        <time>2015-01-01T10:25:24Z</time>
        <extensions><gpxtpx:TrackPointExtension><gpxtpx:hr>157</gpxtpx:hr></gpxtpx:TrackPointExtension></extensions>
      </trkpt>
      <trkpt lat="63.840067209676" lon="20.353337517008">
        <ele>102.8</ele>
        <time>2015-01-01T10:25:30Z</time>
        <extensions><gpxtpx:TrackPointExtension><gpxtpx:hr>157</gpxtpx:hr></gpxtpx:TrackPointExtension></extensions>
      </trkpt>
      <trkpt lat="63.840121692047" lon="20.353462491184">
        <ele>103.4</ele>
        <time>2015-01-01T10:25:33Z</time>
        <extensions><gpxtpx:TrackPointExtension><gpxtpx:hr>157</gpxtpx:hr></gpxtpx:TrackPointExtension></extensions>
      </trkpt>
      <trkpt lat="63.840159242973" lon="20.353541113436">
        <ele>103.8</ele>
        <time>2015-01-01T10:25:35Z</time>
        <extensions><gpxtpx:TrackPointExtension><gpxtpx:hr>158</gpxtpx:hr></gpxtpx:TrackPointExtension></extensions>
      </trkpt>
      <trkpt lat="63.840262591839" lon="20.353666087613">
        <ele>103.8</ele>
        <time>2015-01-01T10:25:40Z</time>
        <extensions><gpxtpx:TrackPointExtension><gpxtpx:hr>157</gpxtpx:hr></gpxtpx:TrackPointExtension></extensions>
      </trkpt>
      <trkpt lat="63.840346662328" lon="20.353730963543">
        <ele>104.2</ele>
        <time>2015-01-01T10:25:44Z</time>
        <extensions><gpxtpx:TrackPointExtension><gpxtpx:hr>158</gpxtpx:hr></gpxtpx:TrackPointExtension></extensions>
      </trkpt>
      <trkpt lat="63.840420171618" lon="20.353761892766">
        <ele>104.6</ele>
        <time>2015-01-01T10:25:47Z</time>
        <extensions><gpxtpx:TrackPointExtension><gpxtpx:hr>158</gpxtpx:hr></gpxtpx:TrackPointExtension></extensions>
      </trkpt>
      <trkpt lat="63.840498374775" lon="20.353808663785">
        <ele>104.6</ele>
        <time>2015-01-01T10:25:50Z</time>
        <extensions><gpxtpx:TrackPointExtension><gpxtpx:hr>158</gpxtpx:hr></gpxtpx:TrackPointExtension></extensions>
      </trkpt>
      <trkpt lat="63.840621169657" lon="20.353804389015">
        <ele>104.8</ele>
        <time>2015-01-01T10:25:54Z</time>
        <extensions><gpxtpx:TrackPointExtension><gpxtpx:hr>158</gpxtpx:hr></gpxtpx:TrackPointExtension></extensions>
      </trkpt>
      <trkpt lat="63.840750334784" lon="20.353763736784">
        <ele>105.8</ele>
        <time>2015-01-01T10:26:00Z</time>
        <extensions><gpxtpx:TrackPointExtension><gpxtpx:hr>161</gpxtpx:hr></gpxtpx:TrackPointExtension></extensions>
      </trkpt>
      <trkpt lat="63.840893497691" lon="20.353686287999">
        <ele>106.8</ele>
        <time>2015-01-01T10:26:05Z</time>
        <extensions><gpxtpx:TrackPointExtension><gpxtpx:hr>161</gpxtpx:hr></gpxtpx:TrackPointExtension></extensions>
      </trkpt>
      <trkpt lat="63.841012353078" lon="20.353485709056">
        <ele>106.8</ele>
        <time>2015-01-01T10:26:10Z</time>
        <extensions><gpxtpx:TrackPointExtension><gpxtpx:hr>161</gpxtpx:hr></gpxtpx:TrackPointExtension></extensions>
      </trkpt>
      <trkpt lat="63.841111762449" lon="20.353234419599">
        <ele>107</ele>
        <time>2015-01-01T10:26:14Z</time>
        <extensions><gpxtpx:TrackPointExtension><gpxtpx:hr>159</gpxtpx:hr></gpxtpx:TrackPointExtension></extensions>
      </trkpt>
      <trkpt lat="63.84127093479" lon="20.352899981663">
        <ele>105.6</ele>
        <time>2015-01-01T10:26:19Z</time>
        <extensions><gpxtpx:TrackPointExtension><gpxtpx:hr>156</gpxtpx:hr></gpxtpx:TrackPointExtension></extensions>
      </trkpt>
      <trkpt lat="63.841296667233" lon="20.352856311947">
        <ele>105.6</ele>
        <time>2015-01-01T10:26:20Z</time>
        <extensions><gpxtpx:TrackPointExtension><gpxtpx:hr>156</gpxtpx:hr></gpxtpx:TrackPointExtension></extensions>
      </trkpt>
      <trkpt lat="63.841370679438" lon="20.352758830413">
        <ele>105</ele>
        <time>2015-01-01T10:26:22Z</time>
        <extensions><gpxtpx:TrackPointExtension><gpxtpx:hr>154</gpxtpx:hr></gpxtpx:TrackPointExtension></extensions>
      </trkpt>
      <trkpt lat="63.841428346932" lon="20.352712143213">
        <ele>104.6</ele>
        <time>2015-01-01T10:26:23Z</time>
        <extensions><gpxtpx:TrackPointExtension><gpxtpx:hr>154</gpxtpx:hr></gpxtpx:TrackPointExtension></extensions>
      </trkpt>
      <trkpt lat="63.841518452391" lon="20.352696971968">
        <ele>104.2</ele>
        <time>2015-01-01T10:26:25Z</time>
        <extensions><gpxtpx:TrackPointExtension><gpxtpx:hr>153</gpxtpx:hr></gpxtpx:TrackPointExtension></extensions>
      </trkpt>
      <trkpt lat="63.841591123492" lon="20.352736115456">
        <ele>103.8</ele>
        <time>2015-01-01T10:26:27Z</time>
        <extensions><gpxtpx:TrackPointExtension><gpxtpx:hr>152</gpxtpx:hr></gpxtpx:TrackPointExtension></extensions>
      </trkpt>
      <trkpt lat="63.841616017744" lon="20.35274785012">
        <ele>103.6</ele>
        <time>2015-01-01T10:26:28Z</time>
        <extensions><gpxtpx:TrackPointExtension><gpxtpx:hr>152</gpxtpx:hr></gpxtpx:TrackPointExtension></extensions>
      </trkpt>
      <trkpt lat="63.841665135697" lon="20.352728990838">
        <ele>103.6</ele>
        <time>2015-01-01T10:26:29Z</time>
        <extensions><gpxtpx:TrackPointExtension><gpxtpx:hr>152</gpxtpx:hr></gpxtpx:TrackPointExtension></extensions>
      </trkpt>
      <trkpt lat="63.84174275212" lon="20.352562442422">
        <ele>104.2</ele>
        <time>2015-01-01T10:26:32Z</time>
        <extensions><gpxtpx:TrackPointExtension><gpxtpx:hr>152</gpxtpx:hr></gpxtpx:TrackPointExtension></extensions>
      </trkpt>
      <trkpt lat="63.841757588089" lon="20.352452304214">
        <ele>104.4</ele>
        <time>2015-01-01T10:26:33Z</time>
        <extensions><gpxtpx:TrackPointExtension><gpxtpx:hr>152</gpxtpx:hr></gpxtpx:TrackPointExtension></extensions>
      </trkpt>
      <trkpt lat="63.841778039932" lon="20.352202858776">
        <ele>104.4</ele>
        <time>2015-01-01T10:26:36Z</time>
        <extensions><gpxtpx:TrackPointExtension><gpxtpx:hr>153</gpxtpx:hr></gpxtpx:TrackPointExtension></extensions>
      </trkpt>
      <trkpt lat="63.841780051589" lon="20.352079225704">
        <ele>104.4</ele>
        <time>2015-01-01T10:26:37Z</time>
        <extensions><gpxtpx:TrackPointExtension><gpxtpx:hr>154</gpxtpx:hr></gpxtpx:TrackPointExtension></extensions>
      </trkpt>
      <trkpt lat="63.841792289168" lon="20.351716708392">
        <ele>104</ele>
        <time>2015-01-01T10:26:41Z</time>
        <extensions><gpxtpx:TrackPointExtension><gpxtpx:hr>155</gpxtpx:hr></gpxtpx:TrackPointExtension></extensions>
      </trkpt>
      <trkpt lat="63.841801844537" lon="20.351353520527">
        <ele>103.4</ele>
        <time>2015-01-01T10:26:45Z</time>
        <extensions><gpxtpx:TrackPointExtension><gpxtpx:hr>155</gpxtpx:hr></gpxtpx:TrackPointExtension></extensions>
      </trkpt>
      <trkpt lat="63.841813914478" lon="20.351221924648">
        <ele>103.4</ele>
        <time>2015-01-01T10:26:47Z</time>
        <extensions><gpxtpx:TrackPointExtension><gpxtpx:hr>155</gpxtpx:hr></gpxtpx:TrackPointExtension></extensions>
      </trkpt>
      <trkpt lat="63.841864708811" lon="20.351029727608">
        <ele>103.4</ele>
        <time>2015-01-01T10:26:50Z</time>
        <extensions><gpxtpx:TrackPointExtension><gpxtpx:hr>155</gpxtpx:hr></gpxtpx:TrackPointExtension></extensions>
      </trkpt>
      <trkpt lat="63.84200762026" lon="20.350801823661">
        <ele>103.4</ele>
        <time>2015-01-01T10:26:56Z</time>
        <extensions><gpxtpx:TrackPointExtension><gpxtpx:hr>155</gpxtpx:hr></gpxtpx:TrackPointExtension></extensions>
      </trkpt>
      <trkpt lat="63.842080542818" lon="20.350998211652">
        <ele>103.4</ele>
        <time>2015-01-01T10:27:00Z</time>
        <extensions><gpxtpx:TrackPointExtension><gpxtpx:hr>155</gpxtpx:hr></gpxtpx:TrackPointExtension></extensions>
      </trkpt>
      <trkpt lat="63.842220772058" lon="20.351142380387">
        <ele>103.8</ele>
        <time>2015-01-01T10:27:05Z</time>
        <extensions><gpxtpx:TrackPointExtension><gpxtpx:hr>156</gpxtpx:hr></gpxtpx:TrackPointExtension></extensions>
      </trkpt>
      <trkpt lat="63.842422440648" lon="20.35125545226">
        <ele>104</ele>
        <time>2015-01-01T10:27:11Z</time>
        <extensions><gpxtpx:TrackPointExtension><gpxtpx:hr>157</gpxtpx:hr></gpxtpx:TrackPointExtension></extensions>
      </trkpt>
      <trkpt lat="63.842639448121" lon="20.3513212502">
        <ele>103.6</ele>
        <time>2015-01-01T10:27:17Z</time>
        <extensions><gpxtpx:TrackPointExtension><gpxtpx:hr>158</gpxtpx:hr></gpxtpx:TrackPointExtension></extensions>
      </trkpt>
      <trkpt lat="63.842840027064" lon="20.351388221607">
        <ele>103.8</ele>
        <time>2015-01-01T10:27:23Z</time>
        <extensions><gpxtpx:TrackPointExtension><gpxtpx:hr>158</gpxtpx:hr></gpxtpx:TrackPointExtension></extensions>
      </trkpt>
      <trkpt lat="63.843041947111" lon="20.351427113637">
        <ele>104.4</ele>
        <time>2015-01-01T10:27:29Z</time>
        <extensions><gpxtpx:TrackPointExtension><gpxtpx:hr>158</gpxtpx:hr></gpxtpx:TrackPointExtension></extensions>
      </trkpt>
      <trkpt lat="63.84318754077" lon="20.351434908807">
        <ele>104.4</ele>
        <time>2015-01-01T10:27:34Z</time>
        <extensions><gpxtpx:TrackPointExtension><gpxtpx:hr>159</gpxtpx:hr></gpxtpx:TrackPointExtension></extensions>
      </trkpt>
      <trkpt lat="63.843257697299" lon="20.351441698149">
        <ele>104.6</ele>
        <time>2015-01-01T10:27:36Z</time>
        <extensions><gpxtpx:TrackPointExtension><gpxtpx:hr>158</gpxtpx:hr></gpxtpx:TrackPointExtension></extensions>
      </trkpt>
      <trkpt lat="63.84331905283" lon="20.351455109194">
        <ele>104.6</ele>
        <time>2015-01-01T10:27:38Z</time>
        <extensions><gpxtpx:TrackPointExtension><gpxtpx:hr>158</gpxtpx:hr></gpxtpx:TrackPointExtension></extensions>
      </trkpt>
      <trkpt lat="63.843510830775" lon="20.35148402676">
        <ele>104.8</ele>
        <time>2015-01-01T10:27:44Z</time>
        <extensions><gpxtpx:TrackPointExtension><gpxtpx:hr>158</gpxtpx:hr></gpxtpx:TrackPointExtension></extensions>
      </trkpt>
      <trkpt lat="63.843665812165" lon="20.35162165761">
        <ele>105.2</ele>
        <time>2015-01-01T10:27:49Z</time>
        <extensions><gpxtpx:TrackPointExtension><gpxtpx:hr>158</gpxtpx:hr></gpxtpx:TrackPointExtension></extensions>
      </trkpt>
      <trkpt lat="63.843797491863" lon="20.351854087785">
        <ele>105.2</ele>
        <time>2015-01-01T10:27:54Z</time>
        <extensions><gpxtpx:TrackPointExtension><gpxtpx:hr>158</gpxtpx:hr></gpxtpx:TrackPointExtension></extensions>
      </trkpt>
      <trkpt lat="63.843921292573" lon="20.351977134123">
        <ele>105</ele>
        <time>2015-01-01T10:27:58Z</time>
        <extensions><gpxtpx:TrackPointExtension><gpxtpx:hr>157</gpxtpx:hr></gpxtpx:TrackPointExtension></extensions>
      </trkpt>
      <trkpt lat="63.844050290063" lon="20.352021055296">
        <ele>105.2</ele>
        <time>2015-01-01T10:28:01Z</time>
        <extensions><gpxtpx:TrackPointExtension><gpxtpx:hr>158</gpxtpx:hr></gpxtpx:TrackPointExtension></extensions>
      </trkpt>
      <trkpt lat="63.844068227336" lon="20.352024659514">
        <ele>105.2</ele>
        <time>2015-01-01T10:28:02Z</time>
        <extensions><gpxtpx:TrackPointExtension><gpxtpx:hr>158</gpxtpx:hr></gpxtpx:TrackPointExtension></extensions>
      </trkpt>
      <trkpt lat="63.844312224537" lon="20.352113256231">
        <ele>105.6</ele>
        <time>2015-01-01T10:28:09Z</time>
        <extensions><gpxtpx:TrackPointExtension><gpxtpx:hr>159</gpxtpx:hr></gpxtpx:TrackPointExtension></extensions>
      </trkpt>
      <trkpt lat="63.844447173178" lon="20.352096576244">
        <ele>105.6</ele>
        <time>2015-01-01T10:28:13Z</time>
        <extensions><gpxtpx:TrackPointExtension><gpxtpx:hr>159</gpxtpx:hr></gpxtpx:TrackPointExtension></extensions>
      </trkpt>
      <trkpt lat="63.84456477128" lon="20.352053409442">
        <ele>106.4</ele>
        <time>2015-01-01T10:28:18Z</time>
        <extensions><gpxtpx:TrackPointExtension><gpxtpx:hr>159</gpxtpx:hr></gpxtpx:TrackPointExtension></extensions>
      </trkpt>
      <trkpt lat="63.844597712159" lon="20.352072855458">
        <ele>106.8</ele>
        <time>2015-01-01T10:28:19Z</time>
        <extensions><gpxtpx:TrackPointExtension><gpxtpx:hr>159</gpxtpx:hr></gpxtpx:TrackPointExtension></extensions>
      </trkpt>
      <trkpt lat="63.844685303047" lon="20.352230267599">
        <ele>107.2</ele>
        <time>2015-01-01T10:28:23Z</time>
        <extensions><gpxtpx:TrackPointExtension><gpxtpx:hr>159</gpxtpx:hr></gpxtpx:TrackPointExtension></extensions>
      </trkpt>
      <trkpt lat="63.844826454297" lon="20.352434366941">
        <ele>107</ele>
        <time>2015-01-01T10:28:28Z</time>
        <extensions><gpxtpx:TrackPointExtension><gpxtpx:hr>157</gpxtpx:hr></gpxtpx:TrackPointExtension></extensions>
      </trkpt>
      <trkpt lat="63.844975484535" lon="20.352726560086">
        <ele>106.2</ele>
        <time>2015-01-01T10:28:33Z</time>
        <extensions><gpxtpx:TrackPointExtension><gpxtpx:hr>156</gpxtpx:hr></gpxtpx:TrackPointExtension></extensions>
      </trkpt>
      <trkpt lat="63.845086377114" lon="20.352925965562">
        <ele>106</ele>
        <time>2015-01-01T10:28:38Z</time>
        <extensions><gpxtpx:TrackPointExtension><gpxtpx:hr>155</gpxtpx:hr></gpxtpx:TrackPointExtension></extensions>
      </trkpt>
      <trkpt lat="63.845151085407" lon="20.353005174547">
        <ele>106</ele>
        <time>2015-01-01T10:28:40Z</time>
        <extensions><gpxtpx:TrackPointExtension><gpxtpx:hr>154</gpxtpx:hr></gpxtpx:TrackPointExtension></extensions>
      </trkpt>
      <trkpt lat="63.845211016014" lon="20.353080946952">
        <ele>105.8</ele>
        <time>2015-01-01T10:28:42Z</time>
        <extensions><gpxtpx:TrackPointExtension><gpxtpx:hr>154</gpxtpx:hr></gpxtpx:TrackPointExtension></extensions>
      </trkpt>
      <trkpt lat="63.845297181979" lon="20.353062758222">
        <ele>105.8</ele>
        <time>2015-01-01T10:28:44Z</time>
        <extensions><gpxtpx:TrackPointExtension><gpxtpx:hr>153</gpxtpx:hr></gpxtpx:TrackPointExtension></extensions>
      </trkpt>
      <trkpt lat="63.845362057909" lon="20.352999893948">
        <ele>105.4</ele>
        <time>2015-01-01T10:28:45Z</time>
        <extensions><gpxtpx:TrackPointExtension><gpxtpx:hr>152</gpxtpx:hr></gpxtpx:TrackPointExtension></extensions>
      </trkpt>
      <trkpt lat="63.845460796729" lon="20.352846086025">
        <ele>104.6</ele>
        <time>2015-01-01T10:28:47Z</time>
        <extensions><gpxtpx:TrackPointExtension><gpxtpx:hr>151</gpxtpx:hr></gpxtpx:TrackPointExtension></extensions>
      </trkpt>
      <trkpt lat="63.845575125888" lon="20.352614410222">
        <ele>103.6</ele>
        <time>2015-01-01T10:28:49Z</time>
        <extensions><gpxtpx:TrackPointExtension><gpxtpx:hr>149</gpxtpx:hr></gpxtpx:TrackPointExtension></extensions>
      </trkpt>
      <trkpt lat="63.845723737031" lon="20.35226572305">
        <ele>102.2</ele>
        <time>2015-01-01T10:28:52Z</time>
        <extensions><gpxtpx:TrackPointExtension><gpxtpx:hr>148</gpxtpx:hr></gpxtpx:TrackPointExtension></extensions>
      </trkpt>
      <trkpt lat="63.845782661811" lon="20.352098923177">
        <ele>101.2</ele>
        <time>2015-01-01T10:28:53Z</time>
        <extensions><gpxtpx:TrackPointExtension><gpxtpx:hr>147</gpxtpx:hr></gpxtpx:TrackPointExtension></extensions>
      </trkpt>
      <trkpt lat="63.845863463357" lon="20.351825421676">
        <ele>99.4</ele>
        <time>2015-01-01T10:28:55Z</time>
        <extensions><gpxtpx:TrackPointExtension><gpxtpx:hr>147</gpxtpx:hr></gpxtpx:TrackPointExtension></extensions>
      </trkpt>
      <trkpt lat="63.845918364823" lon="20.351591147482">
        <ele>97.8</ele>
        <time>2015-01-01T10:28:57Z</time>
        <extensions><gpxtpx:TrackPointExtension><gpxtpx:hr>145</gpxtpx:hr></gpxtpx:TrackPointExtension></extensions>
      </trkpt>
      <trkpt lat="63.845935212448" lon="20.351511854678">
        <ele>97.2</ele>
        <time>2015-01-01T10:28:58Z</time>
        <extensions><gpxtpx:TrackPointExtension><gpxtpx:hr>144</gpxtpx:hr></gpxtpx:TrackPointExtension></extensions>
      </trkpt>
      <trkpt lat="63.845964968204" lon="20.351364752278">
        <ele>96.4</ele>
        <time>2015-01-01T10:28:59Z</time>
        <extensions><gpxtpx:TrackPointExtension><gpxtpx:hr>144</gpxtpx:hr></gpxtpx:TrackPointExtension></extensions>
      </trkpt>
      <trkpt lat="63.846020288765" lon="20.351087227464">
        <ele>95.4</ele>
        <time>2015-01-01T10:29:02Z</time>
        <extensions><gpxtpx:TrackPointExtension><gpxtpx:hr>144</gpxtpx:hr></gpxtpx:TrackPointExtension></extensions>
      </trkpt>
      <trkpt lat="63.846035962924" lon="20.350955883041">
        <ele>95.2</ele>
        <time>2015-01-01T10:29:03Z</time>
        <extensions><gpxtpx:TrackPointExtension><gpxtpx:hr>143</gpxtpx:hr></gpxtpx:TrackPointExtension></extensions>
      </trkpt>
      <trkpt lat="63.846043003723" lon="20.350915398449">
        <ele>95.2</ele>
        <time>2015-01-01T10:29:04Z</time>
        <extensions><gpxtpx:TrackPointExtension><gpxtpx:hr>143</gpxtpx:hr></gpxtpx:TrackPointExtension></extensions>
      </trkpt>
      <trkpt lat="63.846049709246" lon="20.35071012564">
        <ele>95.2</ele>
        <time>2015-01-01T10:29:06Z</time>
        <extensions><gpxtpx:TrackPointExtension><gpxtpx:hr>144</gpxtpx:hr></gpxtpx:TrackPointExtension></extensions>
      </trkpt>
      <trkpt lat="63.846052223817" lon="20.350532345474">
        <ele>95.2</ele>
        <time>2015-01-01T10:29:08Z</time>
        <extensions><gpxtpx:TrackPointExtension><gpxtpx:hr>145</gpxtpx:hr></gpxtpx:TrackPointExtension></extensions>
      </trkpt>
      <trkpt lat="63.846024647355" lon="20.350079471245">
        <ele>96.2</ele>
        <time>2015-01-01T10:29:13Z</time>
        <extensions><gpxtpx:TrackPointExtension><gpxtpx:hr>147</gpxtpx:hr></gpxtpx:TrackPointExtension></extensions>
      </trkpt>
      <trkpt lat="63.845979552716" lon="20.349915521219">
        <ele>96.4</ele>
        <time>2015-01-01T10:29:15Z</time>
        <extensions><gpxtpx:TrackPointExtension><gpxtpx:hr>147</gpxtpx:hr></gpxtpx:TrackPointExtension></extensions>
      </trkpt>
      <trkpt lat="63.845937810838" lon="20.349794905633">
        <ele>96.2</ele>
        <time>2015-01-01T10:29:17Z</time>
        <extensions><gpxtpx:TrackPointExtension><gpxtpx:hr>148</gpxtpx:hr></gpxtpx:TrackPointExtension></extensions>
      </trkpt>
      <trkpt lat="63.845816189423" lon="20.349678983912">
        <ele>96.4</ele>
        <time>2015-01-01T10:29:21Z</time>
        <extensions><gpxtpx:TrackPointExtension><gpxtpx:hr>149</gpxtpx:hr></gpxtpx:TrackPointExtension></extensions>
      </trkpt>
      <trkpt lat="63.845708398148" lon="20.349658280611">
        <ele>97</ele>
        <time>2015-01-01T10:29:25Z</time>
        <extensions><gpxtpx:TrackPointExtension><gpxtpx:hr>152</gpxtpx:hr></gpxtpx:TrackPointExtension></extensions>
      </trkpt>
      <trkpt lat="63.845685347915" lon="20.349647300318">
        <ele>97</ele>
        <time>2015-01-01T10:29:26Z</time>
        <extensions><gpxtpx:TrackPointExtension><gpxtpx:hr>153</gpxtpx:hr></gpxtpx:TrackPointExtension></extensions>
      </trkpt>
      <trkpt lat="63.845678390935" lon="20.349641265348">
        <ele>97.4</ele>
        <time>2015-01-01T10:29:27Z</time>
        <extensions><gpxtpx:TrackPointExtension><gpxtpx:hr>154</gpxtpx:hr></gpxtpx:TrackPointExtension></extensions>
      </trkpt>
      <trkpt lat="63.845602702349" lon="20.349616622552">
        <ele>98</ele>
        <time>2015-01-01T10:29:31Z</time>
        <extensions><gpxtpx:TrackPointExtension><gpxtpx:hr>157</gpxtpx:hr></gpxtpx:TrackPointExtension></extensions>
      </trkpt>
      <trkpt lat="63.845578562468" lon="20.349607570097">
        <ele>98.4</ele>
        <time>2015-01-01T10:29:32Z</time>
        <extensions><gpxtpx:TrackPointExtension><gpxtpx:hr>157</gpxtpx:hr></gpxtpx:TrackPointExtension></extensions>
      </trkpt>
      <trkpt lat="63.845453504473" lon="20.349519057199">
        <ele>99.6</ele>
        <time>2015-01-01T10:29:38Z</time>
        <extensions><gpxtpx:TrackPointExtension><gpxtpx:hr>159</gpxtpx:hr></gpxtpx:TrackPointExtension></extensions>
      </trkpt>
      <trkpt lat="63.845313694328" lon="20.349419815466">
        <ele>100.4</ele>
        <time>2015-01-01T10:29:45Z</time>
        <extensions><gpxtpx:TrackPointExtension><gpxtpx:hr>162</gpxtpx:hr></gpxtpx:TrackPointExtension></extensions>
      </trkpt>
      <trkpt lat="63.845286872238" lon="20.349375139922">
        <ele>100.6</ele>
        <time>2015-01-01T10:29:46Z</time>
        <extensions><gpxtpx:TrackPointExtension><gpxtpx:hr>161</gpxtpx:hr></gpxtpx:TrackPointExtension></extensions>
      </trkpt>
      <trkpt lat="63.845225684345" lon="20.349220158532">
        <ele>100.8</ele>
        <time>2015-01-01T10:29:49Z</time>
        <extensions><gpxtpx:TrackPointExtension><gpxtpx:hr>160</gpxtpx:hr></gpxtpx:TrackPointExtension></extensions>
      </trkpt>
      <trkpt lat="63.845153851435" lon="20.348791172728">
        <ele>101</ele>
        <time>2015-01-01T10:29:53Z</time>
        <extensions><gpxtpx:TrackPointExtension><gpxtpx:hr>158</gpxtpx:hr></gpxtpx:TrackPointExtension></extensions>
      </trkpt>
      <trkpt lat="63.845106828958" lon="20.348654296249">
        <ele>101</ele>
        <time>2015-01-01T10:29:54Z</time>
        <extensions><gpxtpx:TrackPointExtension><gpxtpx:hr>158</gpxtpx:hr></gpxtpx:TrackPointExtension></extensions>
      </trkpt>
      <trkpt lat="63.845024183393" lon="20.348512055352">
        <ele>100.6</ele>
        <time>2015-01-01T10:29:56Z</time>
        <extensions><gpxtpx:TrackPointExtension><gpxtpx:hr>156</gpxtpx:hr></gpxtpx:TrackPointExtension></extensions>
      </trkpt>
      <trkpt lat="63.84493005462" lon="20.348438378423">
        <ele>99</ele>
        <time>2015-01-01T10:29:58Z</time>
        <extensions><gpxtpx:TrackPointExtension><gpxtpx:hr>155</gpxtpx:hr></gpxtpx:TrackPointExtension></extensions>
      </trkpt>
      <trkpt lat="63.844835422933" lon="20.348391775042">
        <ele>97.2</ele>
        <time>2015-01-01T10:30:00Z</time>
        <extensions><gpxtpx:TrackPointExtension><gpxtpx:hr>154</gpxtpx:hr></gpxtpx:TrackPointExtension></extensions>
      </trkpt>
      <trkpt lat="63.844763087109" lon="20.348373251036">
        <ele>96</ele>
        <time>2015-01-01T10:30:02Z</time>
        <extensions><gpxtpx:TrackPointExtension><gpxtpx:hr>153</gpxtpx:hr></gpxtpx:TrackPointExtension></extensions>
      </trkpt>
      <trkpt lat="63.84467725642" lon="20.348337125033">
        <ele>95.4</ele>
        <time>2015-01-01T10:30:04Z</time>
        <extensions><gpxtpx:TrackPointExtension><gpxtpx:hr>152</gpxtpx:hr></gpxtpx:TrackPointExtension></extensions>
      </trkpt>
      <trkpt lat="63.844516323879" lon="20.348278116435">
        <ele>95</ele>
        <time>2015-01-01T10:30:08Z</time>
        <extensions><gpxtpx:TrackPointExtension><gpxtpx:hr>151</gpxtpx:hr></gpxtpx:TrackPointExtension></extensions>
      </trkpt>
      <trkpt lat="63.8444349356" lon="20.348291611299">
        <ele>94.8</ele>
        <time>2015-01-01T10:30:10Z</time>
        <extensions><gpxtpx:TrackPointExtension><gpxtpx:hr>152</gpxtpx:hr></gpxtpx:TrackPointExtension></extensions>
      </trkpt>
      <trkpt lat="63.84435782209" lon="20.348388841376">
        <ele>94.8</ele>
        <time>2015-01-01T10:30:13Z</time>
        <extensions><gpxtpx:TrackPointExtension><gpxtpx:hr>154</gpxtpx:hr></gpxtpx:TrackPointExtension></extensions>
      </trkpt>
      <trkpt lat="63.844339298084" lon="20.348470062017">
        <ele>95</ele>
        <time>2015-01-01T10:30:14Z</time>
        <extensions><gpxtpx:TrackPointExtension><gpxtpx:hr>154</gpxtpx:hr></gpxtpx:TrackPointExtension></extensions>
      </trkpt>
      <trkpt lat="63.844344075769" lon="20.348703498021">
        <ele>95.6</ele>
        <time>2015-01-01T10:30:18Z</time>
        <extensions><gpxtpx:TrackPointExtension><gpxtpx:hr>157</gpxtpx:hr></gpxtpx:TrackPointExtension></extensions>
      </trkpt>
      <trkpt lat="63.84434918873" lon="20.348751693964">
        <ele>96</ele>
        <time>2015-01-01T10:30:19Z</time>
        <extensions><gpxtpx:TrackPointExtension><gpxtpx:hr>158</gpxtpx:hr></gpxtpx:TrackPointExtension></extensions>
      </trkpt>
      <trkpt lat="63.8443552237" lon="20.348780695349">
        <ele>96.2</ele>
        <time>2015-01-01T10:30:20Z</time>
        <extensions><gpxtpx:TrackPointExtension><gpxtpx:hr>159</gpxtpx:hr></gpxtpx:TrackPointExtension></extensions>
      </trkpt>
      <trkpt lat="63.844374082983" lon="20.348972557113">
        <ele>97.4</ele>
        <time>2015-01-01T10:30:24Z</time>
        <extensions><gpxtpx:TrackPointExtension><gpxtpx:hr>162</gpxtpx:hr></gpxtpx:TrackPointExtension></extensions>
      </trkpt>
      <trkpt lat="63.844373999164" lon="20.349022513255">
        <ele>98</ele>
        <time>2015-01-01T10:30:25Z</time>
        <extensions><gpxtpx:TrackPointExtension><gpxtpx:hr>162</gpxtpx:hr></gpxtpx:TrackPointExtension></extensions>
      </trkpt>
      <trkpt lat="63.844394953921" lon="20.349164754152">
        <ele>98.6</ele>
        <time>2015-01-01T10:30:29Z</time>
        <extensions><gpxtpx:TrackPointExtension><gpxtpx:hr>165</gpxtpx:hr></gpxtpx:TrackPointExtension></extensions>
      </trkpt>
      <trkpt lat="63.844391517341" lon="20.349187720567">
        <ele>98.4</ele>
        <time>2015-01-01T10:30:30Z</time>
        <extensions><gpxtpx:TrackPointExtension><gpxtpx:hr>166</gpxtpx:hr></gpxtpx:TrackPointExtension></extensions>
      </trkpt>
      <trkpt lat="63.844396295026" lon="20.349217308685">
        <ele>98.8</ele>
        <time>2015-01-01T10:30:32Z</time>
        <extensions><gpxtpx:TrackPointExtension><gpxtpx:hr>167</gpxtpx:hr></gpxtpx:TrackPointExtension></extensions>
      </trkpt>
      <trkpt lat="63.844407694414" lon="20.349290231243">
        <ele>99.4</ele>
        <time>2015-01-01T10:30:35Z</time>
        <extensions><gpxtpx:TrackPointExtension><gpxtpx:hr>166</gpxtpx:hr></gpxtpx:TrackPointExtension></extensions>
      </trkpt>
      <trkpt lat="63.844417417422" lon="20.349361728877">
        <ele>99.6</ele>
        <time>2015-01-01T10:30:38Z</time>
        <extensions><gpxtpx:TrackPointExtension><gpxtpx:hr>165</gpxtpx:hr></gpxtpx:TrackPointExtension></extensions>
      </trkpt>
      <trkpt lat="63.844430241734" lon="20.349447894841">
        <ele>100.4</ele>
        <time>2015-01-01T10:30:41Z</time>
        <extensions><gpxtpx:TrackPointExtension><gpxtpx:hr>164</gpxtpx:hr></gpxtpx:TrackPointExtension></extensions>
      </trkpt>
      <trkpt lat="63.844432756305" lon="20.349516961724">
        <ele>101.2</ele>
        <time>2015-01-01T10:30:43Z</time>
        <extensions><gpxtpx:TrackPointExtension><gpxtpx:hr>163</gpxtpx:hr></gpxtpx:TrackPointExtension></extensions>
      </trkpt>
      <trkpt lat="63.844432504848" lon="20.349581837654">
        <ele>101.8</ele>
        <time>2015-01-01T10:30:45Z</time>
        <extensions><gpxtpx:TrackPointExtension><gpxtpx:hr>162</gpxtpx:hr></gpxtpx:TrackPointExtension></extensions>
      </trkpt>
      <trkpt lat="63.844437282532" lon="20.349637912586">
        <ele>102.2</ele>
        <time>2015-01-01T10:30:47Z</time>
        <extensions><gpxtpx:TrackPointExtension><gpxtpx:hr>162</gpxtpx:hr></gpxtpx:TrackPointExtension></extensions>
      </trkpt>
      <trkpt lat="63.844444239512" lon="20.349659705535">
        <ele>102.4</ele>
        <time>2015-01-01T10:30:48Z</time>
        <extensions><gpxtpx:TrackPointExtension><gpxtpx:hr>162</gpxtpx:hr></gpxtpx:TrackPointExtension></extensions>
      </trkpt>
      <trkpt lat="63.844464691356" lon="20.34983237274">
        <ele>102.6</ele>
        <time>2015-01-01T10:30:53Z</time>
        <extensions><gpxtpx:TrackPointExtension><gpxtpx:hr>163</gpxtpx:hr></gpxtpx:TrackPointExtension></extensions>
      </trkpt>
      <trkpt lat="63.844475923106" lon="20.350041249767">
        <ele>103.6</ele>
        <time>2015-01-01T10:30:59Z</time>
        <extensions><gpxtpx:TrackPointExtension><gpxtpx:hr>164</gpxtpx:hr></gpxtpx:TrackPointExtension></extensions>
      </trkpt>
      <trkpt lat="63.844485562295" lon="20.350055163726">
        <ele>103.6</ele>
        <time>2015-01-01T10:31:00Z</time>
        <extensions><gpxtpx:TrackPointExtension><gpxtpx:hr>164</gpxtpx:hr></gpxtpx:TrackPointExtension></extensions>
      </trkpt>
      <trkpt lat="63.844486484304" lon="20.350197404623">
        <ele>104.4</ele>
        <time>2015-01-01T10:31:03Z</time>
        <extensions><gpxtpx:TrackPointExtension><gpxtpx:hr>165</gpxtpx:hr></gpxtpx:TrackPointExtension></extensions>
      </trkpt>
      <trkpt lat="63.844481036067" lon="20.350303854793">
        <ele>104.8</ele>
        <time>2015-01-01T10:31:05Z</time>
        <extensions><gpxtpx:TrackPointExtension><gpxtpx:hr>166</gpxtpx:hr></gpxtpx:TrackPointExtension></extensions>
      </trkpt>
      <trkpt lat="63.84447994642" lon="20.350335622206">
        <ele>104.8</ele>
        <time>2015-01-01T10:31:06Z</time>
        <extensions><gpxtpx:TrackPointExtension><gpxtpx:hr>167</gpxtpx:hr></gpxtpx:TrackPointExtension></extensions>
      </trkpt>
      <trkpt lat="63.844481790438" lon="20.350399827585">
        <ele>105.2</ele>
        <time>2015-01-01T10:31:07Z</time>
        <extensions><gpxtpx:TrackPointExtension><gpxtpx:hr>167</gpxtpx:hr></gpxtpx:TrackPointExtension></extensions>
      </trkpt>
      <trkpt lat="63.844477850944" lon="20.350525639951">
        <ele>105.8</ele>
        <time>2015-01-01T10:31:10Z</time>
        <extensions><gpxtpx:TrackPointExtension><gpxtpx:hr>168</gpxtpx:hr></gpxtpx:TrackPointExtension></extensions>
      </trkpt>
      <trkpt lat="63.844471480697" lon="20.350589929149">
        <ele>106</ele>
        <time>2015-01-01T10:31:11Z</time>
        <extensions><gpxtpx:TrackPointExtension><gpxtpx:hr>169</gpxtpx:hr></gpxtpx:TrackPointExtension></extensions>
      </trkpt>
      <trkpt lat="63.844475252554" lon="20.350616164505">
        <ele>106</ele>
        <time>2015-01-01T10:31:12Z</time>
        <extensions><gpxtpx:TrackPointExtension><gpxtpx:hr>169</gpxtpx:hr></gpxtpx:TrackPointExtension></extensions>
      </trkpt>
      <trkpt lat="63.844466367736" lon="20.350789083168">
        <ele>106.4</ele>
        <time>2015-01-01T10:31:15Z</time>
        <extensions><gpxtpx:TrackPointExtension><gpxtpx:hr>169</gpxtpx:hr></gpxtpx:TrackPointExtension></extensions>
      </trkpt>
      <trkpt lat="63.844468966126" lon="20.350823365152">
        <ele>106.4</ele>
        <time>2015-01-01T10:31:16Z</time>
        <extensions><gpxtpx:TrackPointExtension><gpxtpx:hr>169</gpxtpx:hr></gpxtpx:TrackPointExtension></extensions>
      </trkpt>
      <trkpt lat="63.844461338595" lon="20.350949261338">
        <ele>106.4</ele>
        <time>2015-01-01T10:31:18Z</time>
        <extensions><gpxtpx:TrackPointExtension><gpxtpx:hr>169</gpxtpx:hr></gpxtpx:TrackPointExtension></extensions>
      </trkpt>
      <trkpt lat="63.844466870651" lon="20.351035343483">
        <ele>106.4</ele>
        <time>2015-01-01T10:31:19Z</time>
        <extensions><gpxtpx:TrackPointExtension><gpxtpx:hr>169</gpxtpx:hr></gpxtpx:TrackPointExtension></extensions>
      </trkpt>
      <trkpt lat="63.844498721883" lon="20.351171381772">
        <ele>106.6</ele>
        <time>2015-01-01T10:31:22Z</time>
        <extensions><gpxtpx:TrackPointExtension><gpxtpx:hr>169</gpxtpx:hr></gpxtpx:TrackPointExtension></extensions>
      </trkpt>
      <trkpt lat="63.844508696347" lon="20.351296858862">
        <ele>106.8</ele>
        <time>2015-01-01T10:31:24Z</time>
        <extensions><gpxtpx:TrackPointExtension><gpxtpx:hr>169</gpxtpx:hr></gpxtpx:TrackPointExtension></extensions>
      </trkpt>
      <trkpt lat="63.844533758238" lon="20.351490564644">
        <ele>107</ele>
        <time>2015-01-01T10:31:28Z</time>
        <extensions><gpxtpx:TrackPointExtension><gpxtpx:hr>169</gpxtpx:hr></gpxtpx:TrackPointExtension></extensions>
      </trkpt>
      <trkpt lat="63.84452663362" lon="20.351566756144">
        <ele>107.2</ele>
        <time>2015-01-01T10:31:29Z</time>
        <extensions><gpxtpx:TrackPointExtension><gpxtpx:hr>169</gpxtpx:hr></gpxtpx:TrackPointExtension></extensions>
      </trkpt>
      <trkpt lat="63.844470055774" lon="20.351812513545">
        <ele>107.8</ele>
        <time>2015-01-01T10:31:33Z</time>
        <extensions><gpxtpx:TrackPointExtension><gpxtpx:hr>168</gpxtpx:hr></gpxtpx:TrackPointExtension></extensions>
      </trkpt>
      <trkpt lat="63.844449268654" lon="20.351861882955">
        <ele>107.8</ele>
        <time>2015-01-01T10:31:34Z</time>
        <extensions><gpxtpx:TrackPointExtension><gpxtpx:hr>168</gpxtpx:hr></gpxtpx:TrackPointExtension></extensions>
      </trkpt>
      <trkpt lat="63.844406856224" lon="20.351942181587">
        <ele>107.8</ele>
        <time>2015-01-01T10:31:35Z</time>
        <extensions><gpxtpx:TrackPointExtension><gpxtpx:hr>168</gpxtpx:hr></gpxtpx:TrackPointExtension></extensions>
      </trkpt>
      <trkpt lat="63.844334688038" lon="20.351998340338">
        <ele>107.8</ele>
        <time>2015-01-01T10:31:37Z</time>
        <extensions><gpxtpx:TrackPointExtension><gpxtpx:hr>167</gpxtpx:hr></gpxtpx:TrackPointExtension></extensions>
      </trkpt>
      <trkpt lat="63.844170151278" lon="20.352037902921">
        <ele>107</ele>
        <time>2015-01-01T10:31:41Z</time>
        <extensions><gpxtpx:TrackPointExtension><gpxtpx:hr>165</gpxtpx:hr></gpxtpx:TrackPointExtension></extensions>
      </trkpt>
      <trkpt lat="63.844141904265" lon="20.352033125237">
        <ele>106.8</ele>
        <time>2015-01-01T10:31:42Z</time>
        <extensions><gpxtpx:TrackPointExtension><gpxtpx:hr>164</gpxtpx:hr></gpxtpx:TrackPointExtension></extensions>
      </trkpt>
      <trkpt lat="63.844079207629" lon="20.352001274005">
        <ele>106.4</ele>
        <time>2015-01-01T10:31:43Z</time>
        <extensions><gpxtpx:TrackPointExtension><gpxtpx:hr>163</gpxtpx:hr></gpxtpx:TrackPointExtension></extensions>
      </trkpt>
      <trkpt lat="63.844006285071" lon="20.351968416944">
        <ele>105.8</ele>
        <time>2015-01-01T10:31:45Z</time>
        <extensions><gpxtpx:TrackPointExtension><gpxtpx:hr>162</gpxtpx:hr></gpxtpx:TrackPointExtension></extensions>
      </trkpt>
      <trkpt lat="63.843993209302" lon="20.351945282891">
        <ele>105.6</ele>
        <time>2015-01-01T10:31:46Z</time>
        <extensions><gpxtpx:TrackPointExtension><gpxtpx:hr>162</gpxtpx:hr></gpxtpx:TrackPointExtension></extensions>
      </trkpt>
      <trkpt lat="63.843869911507" lon="20.351901110262">
        <ele>104.6</ele>
        <time>2015-01-01T10:31:49Z</time>
        <extensions><gpxtpx:TrackPointExtension><gpxtpx:hr>161</gpxtpx:hr></gpxtpx:TrackPointExtension></extensions>
      </trkpt>
      <trkpt lat="63.843852560967" lon="20.35188652575">
        <ele>104.6</ele>
        <time>2015-01-01T10:31:50Z</time>
        <extensions><gpxtpx:TrackPointExtension><gpxtpx:hr>161</gpxtpx:hr></gpxtpx:TrackPointExtension></extensions>
      </trkpt>
      <trkpt lat="63.843701435253" lon="20.351682761684">
        <ele>104.8</ele>
        <time>2015-01-01T10:31:55Z</time>
        <extensions><gpxtpx:TrackPointExtension><gpxtpx:hr>160</gpxtpx:hr></gpxtpx:TrackPointExtension></extensions>
      </trkpt>
      <trkpt lat="63.843519967049" lon="20.351356538013">
        <ele>105</ele>
        <time>2015-01-01T10:32:02Z</time>
        <extensions><gpxtpx:TrackPointExtension><gpxtpx:hr>160</gpxtpx:hr></gpxtpx:TrackPointExtension></extensions>
      </trkpt>
      <trkpt lat="63.843387784436" lon="20.351275820285">
        <ele>105</ele>
        <time>2015-01-01T10:32:06Z</time>
        <extensions><gpxtpx:TrackPointExtension><gpxtpx:hr>160</gpxtpx:hr></gpxtpx:TrackPointExtension></extensions>
      </trkpt>
      <trkpt lat="63.843327518553" lon="20.351263834164">
        <ele>104.8</ele>
        <time>2015-01-01T10:32:07Z</time>
        <extensions><gpxtpx:TrackPointExtension><gpxtpx:hr>160</gpxtpx:hr></gpxtpx:TrackPointExtension></extensions>
      </trkpt>
      <trkpt lat="63.843251662329" lon="20.35123986192">
        <ele>104.8</ele>
        <time>2015-01-01T10:32:09Z</time>
        <extensions><gpxtpx:TrackPointExtension><gpxtpx:hr>159</gpxtpx:hr></gpxtpx:TrackPointExtension></extensions>
      </trkpt>
      <trkpt lat="63.843096848577" lon="20.3512450587">
        <ele>104.6</ele>
        <time>2015-01-01T10:32:13Z</time>
        <extensions><gpxtpx:TrackPointExtension><gpxtpx:hr>159</gpxtpx:hr></gpxtpx:TrackPointExtension></extensions>
      </trkpt>
      <trkpt lat="63.842943878844" lon="20.351248160005">
        <ele>104</ele>
        <time>2015-01-01T10:32:17Z</time>
        <extensions><gpxtpx:TrackPointExtension><gpxtpx:hr>158</gpxtpx:hr></gpxtpx:TrackPointExtension></extensions>
      </trkpt>
      <trkpt lat="63.842918481678" lon="20.351235503331">
        <ele>103.8</ele>
        <time>2015-01-01T10:32:18Z</time>
        <extensions><gpxtpx:TrackPointExtension><gpxtpx:hr>158</gpxtpx:hr></gpxtpx:TrackPointExtension></extensions>
      </trkpt>
      <trkpt lat="63.842765428126" lon="20.351192336529">
        <ele>104.2</ele>
        <time>2015-01-01T10:32:22Z</time>
        <extensions><gpxtpx:TrackPointExtension><gpxtpx:hr>157</gpxtpx:hr></gpxtpx:TrackPointExtension></extensions>
      </trkpt>
      <trkpt lat="63.842569543049" lon="20.351125784218">
        <ele>104.2</ele>
        <time>2015-01-01T10:32:27Z</time>
        <extensions><gpxtpx:TrackPointExtension><gpxtpx:hr>157</gpxtpx:hr></gpxtpx:TrackPointExtension></extensions>
      </trkpt>
      <trkpt lat="63.842429313809" lon="20.35113341175">
        <ele>103.6</ele>
        <time>2015-01-01T10:32:31Z</time>
        <extensions><gpxtpx:TrackPointExtension><gpxtpx:hr>156</gpxtpx:hr></gpxtpx:TrackPointExtension></extensions>
      </trkpt>
      <trkpt lat="63.842414645478" lon="20.351110864431">
        <ele>103.6</ele>
        <time>2015-01-01T10:32:32Z</time>
        <extensions><gpxtpx:TrackPointExtension><gpxtpx:hr>156</gpxtpx:hr></gpxtpx:TrackPointExtension></extensions>
      </trkpt>
      <trkpt lat="63.842305177823" lon="20.351070379838">
        <ele>103.2</ele>
        <time>2015-01-01T10:32:35Z</time>
        <extensions><gpxtpx:TrackPointExtension><gpxtpx:hr>156</gpxtpx:hr></gpxtpx:TrackPointExtension></extensions>
      </trkpt>
      <trkpt lat="63.842162853107" lon="20.35098111257">
        <ele>103</ele>
        <time>2015-01-01T10:32:39Z</time>
        <extensions><gpxtpx:TrackPointExtension><gpxtpx:hr>155</gpxtpx:hr></gpxtpx:TrackPointExtension></extensions>
      </trkpt>
      <trkpt lat="63.842072077096" lon="20.350882289931">
        <ele>103</ele>
        <time>2015-01-01T10:32:42Z</time>
        <extensions><gpxtpx:TrackPointExtension><gpxtpx:hr>154</gpxtpx:hr></gpxtpx:TrackPointExtension></extensions>
      </trkpt>
      <trkpt lat="63.842031089589" lon="20.350822946057">
        <ele>103.2</ele>
        <time>2015-01-01T10:32:43Z</time>
        <extensions><gpxtpx:TrackPointExtension><gpxtpx:hr>155</gpxtpx:hr></gpxtpx:TrackPointExtension></extensions>
      </trkpt>
      <trkpt lat="63.842012146488" lon="20.350770559162">
        <ele>103.2</ele>
        <time>2015-01-01T10:32:44Z</time>
        <extensions><gpxtpx:TrackPointExtension><gpxtpx:hr>154</gpxtpx:hr></gpxtpx:TrackPointExtension></extensions>
      </trkpt>
      <trkpt lat="63.84195565246" lon="20.350514827296">
        <ele>103.2</ele>
        <time>2015-01-01T10:32:47Z</time>
        <extensions><gpxtpx:TrackPointExtension><gpxtpx:hr>154</gpxtpx:hr></gpxtpx:TrackPointExtension></extensions>
      </trkpt>
      <trkpt lat="63.84197643958" lon="20.35028943792">
        <ele>103.2</ele>
        <time>2015-01-01T10:32:50Z</time>
        <extensions><gpxtpx:TrackPointExtension><gpxtpx:hr>153</gpxtpx:hr></gpxtpx:TrackPointExtension></extensions>
      </trkpt>
      <trkpt lat="63.84199379012" lon="20.350166894495">
        <ele>103</ele>
        <time>2015-01-01T10:32:51Z</time>
        <extensions><gpxtpx:TrackPointExtension><gpxtpx:hr>153</gpxtpx:hr></gpxtpx:TrackPointExtension></extensions>
      </trkpt>
      <trkpt lat="63.842039722949" lon="20.349679235369">
        <ele>102.4</ele>
        <time>2015-01-01T10:32:55Z</time>
        <extensions><gpxtpx:TrackPointExtension><gpxtpx:hr>149</gpxtpx:hr></gpxtpx:TrackPointExtension></extensions>
      </trkpt>
      <trkpt lat="63.842051206157" lon="20.349566331133">
        <ele>102</ele>
        <time>2015-01-01T10:32:56Z</time>
        <extensions><gpxtpx:TrackPointExtension><gpxtpx:hr>148</gpxtpx:hr></gpxtpx:TrackPointExtension></extensions>
      </trkpt>
      <trkpt lat="63.842063946649" lon="20.349459042773">
        <ele>101.2</ele>
        <time>2015-01-01T10:32:57Z</time>
        <extensions><gpxtpx:TrackPointExtension><gpxtpx:hr>148</gpxtpx:hr></gpxtpx:TrackPointExtension></extensions>
      </trkpt>
      <trkpt lat="63.842065036297" lon="20.349119240418">
        <ele>101</ele>
        <time>2015-01-01T10:33:01Z</time>
        <extensions><gpxtpx:TrackPointExtension><gpxtpx:hr>146</gpxtpx:hr></gpxtpx:TrackPointExtension></extensions>
      </trkpt>
      <trkpt lat="63.842046344653" lon="20.348951518536">
        <ele>100.6</ele>
        <time>2015-01-01T10:33:02Z</time>
        <extensions><gpxtpx:TrackPointExtension><gpxtpx:hr>145</gpxtpx:hr></gpxtpx:TrackPointExtension></extensions>
      </trkpt>
      <trkpt lat="63.842033855617" lon="20.348832746968">
        <ele>99.8</ele>
        <time>2015-01-01T10:33:03Z</time>
        <extensions><gpxtpx:TrackPointExtension><gpxtpx:hr>144</gpxtpx:hr></gpxtpx:TrackPointExtension></extensions>
      </trkpt>
      <trkpt lat="63.842005189508" lon="20.348468469456">
        <ele>98.4</ele>
        <time>2015-01-01T10:33:06Z</time>
        <extensions><gpxtpx:TrackPointExtension><gpxtpx:hr>143</gpxtpx:hr></gpxtpx:TrackPointExtension></extensions>
      </trkpt>
      <trkpt lat="63.842004854232" lon="20.348282223567">
        <ele>97.8</ele>
        <time>2015-01-01T10:33:08Z</time>
        <extensions><gpxtpx:TrackPointExtension><gpxtpx:hr>143</gpxtpx:hr></gpxtpx:TrackPointExtension></extensions>
      </trkpt>
      <trkpt lat="63.842015247792" lon="20.348179209977">
        <ele>96.8</ele>
        <time>2015-01-01T10:33:09Z</time>
        <extensions><gpxtpx:TrackPointExtension><gpxtpx:hr>143</gpxtpx:hr></gpxtpx:TrackPointExtension></extensions>
      </trkpt>
      <trkpt lat="63.842043913901" lon="20.347889196128">
        <ele>95.8</ele>
        <time>2015-01-01T10:33:12Z</time>
        <extensions><gpxtpx:TrackPointExtension><gpxtpx:hr>145</gpxtpx:hr></gpxtpx:TrackPointExtension></extensions>
      </trkpt>
      <trkpt lat="63.84204223752" lon="20.347816608846">
        <ele>96.2</ele>
        <time>2015-01-01T10:33:13Z</time>
        <extensions><gpxtpx:TrackPointExtension><gpxtpx:hr>145</gpxtpx:hr></gpxtpx:TrackPointExtension></extensions>
      </trkpt>
      <trkpt lat="63.84203276597" lon="20.347561128438">
        <ele>97</ele>
        <time>2015-01-01T10:33:16Z</time>
        <extensions><gpxtpx:TrackPointExtension><gpxtpx:hr>147</gpxtpx:hr></gpxtpx:TrackPointExtension></extensions>
      </trkpt>
      <trkpt lat="63.842027401552" lon="20.347510501742">
        <ele>97</ele>
        <time>2015-01-01T10:33:17Z</time>
        <extensions><gpxtpx:TrackPointExtension><gpxtpx:hr>147</gpxtpx:hr></gpxtpx:TrackPointExtension></extensions>
      </trkpt>
      <trkpt lat="63.84195825085" lon="20.34705192782">
        <ele>96.6</ele>
        <time>2015-01-01T10:33:23Z</time>
        <extensions><gpxtpx:TrackPointExtension><gpxtpx:hr>148</gpxtpx:hr></gpxtpx:TrackPointExtension></extensions>
      </trkpt>
      <trkpt lat="63.841930842027" lon="20.346870627254">
        <ele>96.6</ele>
        <time>2015-01-01T10:33:25Z</time>
        <extensions><gpxtpx:TrackPointExtension><gpxtpx:hr>149</gpxtpx:hr></gpxtpx:TrackPointExtension></extensions>
      </trkpt>
      <trkpt lat="63.841907372698" lon="20.346693685278">
        <ele>96.8</ele>
        <time>2015-01-01T10:33:27Z</time>
        <extensions><gpxtpx:TrackPointExtension><gpxtpx:hr>149</gpxtpx:hr></gpxtpx:TrackPointExtension></extensions>
      </trkpt>
      <trkpt lat="63.841885412112" lon="20.346580864862">
        <ele>96.8</ele>
        <time>2015-01-01T10:33:28Z</time>
        <extensions><gpxtpx:TrackPointExtension><gpxtpx:hr>149</gpxtpx:hr></gpxtpx:TrackPointExtension></extensions>
      </trkpt>
      <trkpt lat="63.841797737405" lon="20.34622086212">
        <ele>96.4</ele>
        <time>2015-01-01T10:33:32Z</time>
        <extensions><gpxtpx:TrackPointExtension><gpxtpx:hr>148</gpxtpx:hr></gpxtpx:TrackPointExtension></extensions>
      </trkpt>
      <trkpt lat="63.841768149287" lon="20.346160763875">
        <ele>96.2</ele>
        <time>2015-01-01T10:33:33Z</time>
        <extensions><gpxtpx:TrackPointExtension><gpxtpx:hr>148</gpxtpx:hr></gpxtpx:TrackPointExtension></extensions>
      </trkpt>
      <trkpt lat="63.841665806249" lon="20.345982313156">
        <ele>95.8</ele>
        <time>2015-01-01T10:33:36Z</time>
        <extensions><gpxtpx:TrackPointExtension><gpxtpx:hr>147</gpxtpx:hr></gpxtpx:TrackPointExtension></extensions>
      </trkpt>
      <trkpt lat="63.841585256159" lon="20.345890782773">
        <ele>95.6</ele>
        <time>2015-01-01T10:33:38Z</time>
        <extensions><gpxtpx:TrackPointExtension><gpxtpx:hr>147</gpxtpx:hr></gpxtpx:TrackPointExtension></extensions>
      </trkpt>
      <trkpt lat="63.841493306682" lon="20.345823643729">
        <ele>94.8</ele>
        <time>2015-01-01T10:33:40Z</time>
        <extensions><gpxtpx:TrackPointExtension><gpxtpx:hr>146</gpxtpx:hr></gpxtpx:TrackPointExtension></extensions>
      </trkpt>
      <trkpt lat="63.841421054676" lon="20.345802688971">
        <ele>94</ele>
        <time>2015-01-01T10:33:42Z</time>
        <extensions><gpxtpx:TrackPointExtension><gpxtpx:hr>145</gpxtpx:hr></gpxtpx:TrackPointExtension></extensions>
      </trkpt>
      <trkpt lat="63.841381575912" lon="20.345799922943">
        <ele>93.8</ele>
        <time>2015-01-01T10:33:43Z</time>
        <extensions><gpxtpx:TrackPointExtension><gpxtpx:hr>144</gpxtpx:hr></gpxtpx:TrackPointExtension></extensions>
      </trkpt>
      <trkpt lat="63.841254590079" lon="20.345858093351">
        <ele>93.4</ele>
        <time>2015-01-01T10:33:46Z</time>
        <extensions><gpxtpx:TrackPointExtension><gpxtpx:hr>145</gpxtpx:hr></gpxtpx:TrackPointExtension></extensions>
      </trkpt>
      <trkpt lat="63.841190217063" lon="20.345927160233">
        <ele>93.8</ele>
        <time>2015-01-01T10:33:48Z</time>
        <extensions><gpxtpx:TrackPointExtension><gpxtpx:hr>147</gpxtpx:hr></gpxtpx:TrackPointExtension></extensions>
      </trkpt>
      <trkpt lat="63.841138165444" lon="20.346004776657">
        <ele>94.2</ele>
        <time>2015-01-01T10:33:50Z</time>
        <extensions><gpxtpx:TrackPointExtension><gpxtpx:hr>147</gpxtpx:hr></gpxtpx:TrackPointExtension></extensions>
      </trkpt>
      <trkpt lat="63.841064991429" lon="20.346178114414">
        <ele>94.8</ele>
        <time>2015-01-01T10:33:54Z</time>
        <extensions><gpxtpx:TrackPointExtension><gpxtpx:hr>150</gpxtpx:hr></gpxtpx:TrackPointExtension></extensions>
      </trkpt>
      <trkpt lat="63.841039761901" lon="20.346277691424">
        <ele>94.8</ele>
        <time>2015-01-01T10:33:56Z</time>
        <extensions><gpxtpx:TrackPointExtension><gpxtpx:hr>151</gpxtpx:hr></gpxtpx:TrackPointExtension></extensions>
      </trkpt>
      <trkpt lat="63.841000953689" lon="20.346493022516">
        <ele>96</ele>
        <time>2015-01-01T10:34:00Z</time>
        <extensions><gpxtpx:TrackPointExtension><gpxtpx:hr>152</gpxtpx:hr></gpxtpx:TrackPointExtension></extensions>
      </trkpt>
      <trkpt lat="63.840985698625" lon="20.346613638103">
        <ele>96.6</ele>
        <time>2015-01-01T10:34:02Z</time>
        <extensions><gpxtpx:TrackPointExtension><gpxtpx:hr>152</gpxtpx:hr></gpxtpx:TrackPointExtension></extensions>
      </trkpt>
      <trkpt lat="63.840890564024" lon="20.346860066056">
        <ele>97</ele>
        <time>2015-01-01T10:34:07Z</time>
        <extensions><gpxtpx:TrackPointExtension><gpxtpx:hr>153</gpxtpx:hr></gpxtpx:TrackPointExtension></extensions>
      </trkpt>
      <trkpt lat="63.840830046684" lon="20.34691513516">
        <ele>97.2</ele>
        <time>2015-01-01T10:34:09Z</time>
        <extensions><gpxtpx:TrackPointExtension><gpxtpx:hr>154</gpxtpx:hr></gpxtpx:TrackPointExtension></extensions>
      </trkpt>
      <trkpt lat="63.840752094984" lon="20.346941286698">
        <ele>97.4</ele>
        <time>2015-01-01T10:34:11Z</time>
        <extensions><gpxtpx:TrackPointExtension><gpxtpx:hr>153</gpxtpx:hr></gpxtpx:TrackPointExtension></extensions>
      </trkpt>
      <trkpt lat="63.840625612065" lon="20.346945142373">
        <ele>97</ele>
        <time>2015-01-01T10:34:15Z</time>
        <extensions><gpxtpx:TrackPointExtension><gpxtpx:hr>152</gpxtpx:hr></gpxtpx:TrackPointExtension></extensions>
      </trkpt>
      <trkpt lat="63.840581187978" lon="20.346891162917">
        <ele>96.8</ele>
        <time>2015-01-01T10:34:16Z</time>
        <extensions><gpxtpx:TrackPointExtension><gpxtpx:hr>152</gpxtpx:hr></gpxtpx:TrackPointExtension></extensions>
      </trkpt>
      <trkpt lat="63.840516060591" lon="20.346801895648">
        <ele>96.6</ele>
        <time>2015-01-01T10:34:18Z</time>
        <extensions><gpxtpx:TrackPointExtension><gpxtpx:hr>152</gpxtpx:hr></gpxtpx:TrackPointExtension></extensions>
      </trkpt>
      <trkpt lat="63.840489992872" lon="20.346748838201">
        <ele>96.6</ele>
        <time>2015-01-01T10:34:19Z</time>
        <extensions><gpxtpx:TrackPointExtension><gpxtpx:hr>152</gpxtpx:hr></gpxtpx:TrackPointExtension></extensions>
      </trkpt>
      <trkpt lat="63.840380692855" lon="20.346516659483">
        <ele>96.4</ele>
        <time>2015-01-01T10:34:23Z</time>
        <extensions><gpxtpx:TrackPointExtension><gpxtpx:hr>151</gpxtpx:hr></gpxtpx:TrackPointExtension></extensions>
      </trkpt>
      <trkpt lat="63.840311206877" lon="20.346376514062">
        <ele>96.2</ele>
        <time>2015-01-01T10:34:25Z</time>
        <extensions><gpxtpx:TrackPointExtension><gpxtpx:hr>150</gpxtpx:hr></gpxtpx:TrackPointExtension></extensions>
      </trkpt>
      <trkpt lat="63.840224537998" lon="20.34620015882">
        <ele>96</ele>
        <time>2015-01-01T10:34:28Z</time>
        <extensions><gpxtpx:TrackPointExtension><gpxtpx:hr>149</gpxtpx:hr></gpxtpx:TrackPointExtension></extensions>
      </trkpt>
      <trkpt lat="63.840039465576" lon="20.345901343971">
        <ele>94.8</ele>
        <time>2015-01-01T10:34:33Z</time>
        <extensions><gpxtpx:TrackPointExtension><gpxtpx:hr>149</gpxtpx:hr></gpxtpx:TrackPointExtension></extensions>
      </trkpt>
      <trkpt lat="63.839950617403" lon="20.345801766962">
        <ele>93.6</ele>
        <time>2015-01-01T10:34:35Z</time>
        <extensions><gpxtpx:TrackPointExtension><gpxtpx:hr>150</gpxtpx:hr></gpxtpx:TrackPointExtension></extensions>
      </trkpt>
      <trkpt lat="63.839799910784" lon="20.345713673159">
        <ele>93.2</ele>
        <time>2015-01-01T10:34:38Z</time>
        <extensions><gpxtpx:TrackPointExtension><gpxtpx:hr>150</gpxtpx:hr></gpxtpx:TrackPointExtension></extensions>
      </trkpt>
      <trkpt lat="63.839760264382" lon="20.345716523007">
        <ele>93</ele>
        <time>2015-01-01T10:34:39Z</time>
        <extensions><gpxtpx:TrackPointExtension><gpxtpx:hr>150</gpxtpx:hr></gpxtpx:TrackPointExtension></extensions>
      </trkpt>
      <trkpt lat="63.839633362368" lon="20.345795312896">
        <ele>93.2</ele>
        <time>2015-01-01T10:34:42Z</time>
        <extensions><gpxtpx:TrackPointExtension><gpxtpx:hr>151</gpxtpx:hr></gpxtpx:TrackPointExtension></extensions>
      </trkpt>
      <trkpt lat="63.839601930231" lon="20.345833618194">
        <ele>93.2</ele>
        <time>2015-01-01T10:34:43Z</time>
        <extensions><gpxtpx:TrackPointExtension><gpxtpx:hr>151</gpxtpx:hr></gpxtpx:TrackPointExtension></extensions>
      </trkpt>
      <trkpt lat="63.839504616335" lon="20.345978876576">
        <ele>92.8</ele>
        <time>2015-01-01T10:34:46Z</time>
        <extensions><gpxtpx:TrackPointExtension><gpxtpx:hr>152</gpxtpx:hr></gpxtpx:TrackPointExtension></extensions>
      </trkpt>
      <trkpt lat="63.839485002682" lon="20.346014918759">
        <ele>92.6</ele>
        <time>2015-01-01T10:34:47Z</time>
        <extensions><gpxtpx:TrackPointExtension><gpxtpx:hr>152</gpxtpx:hr></gpxtpx:TrackPointExtension></extensions>
      </trkpt>
      <trkpt lat="63.839378552511" lon="20.346235865727">
        <ele>93</ele>
        <time>2015-01-01T10:34:51Z</time>
        <extensions><gpxtpx:TrackPointExtension><gpxtpx:hr>153</gpxtpx:hr></gpxtpx:TrackPointExtension></extensions>
      </trkpt>
      <trkpt lat="63.839321052656" lon="20.346466200426">
        <ele>93.6</ele>
        <time>2015-01-01T10:34:55Z</time>
        <extensions><gpxtpx:TrackPointExtension><gpxtpx:hr>154</gpxtpx:hr></gpxtpx:TrackPointExtension></extensions>
      </trkpt>
      <trkpt lat="63.839307641611" lon="20.346520263702">
        <ele>93.6</ele>
        <time>2015-01-01T10:34:56Z</time>
        <extensions><gpxtpx:TrackPointExtension><gpxtpx:hr>154</gpxtpx:hr></gpxtpx:TrackPointExtension></extensions>
      </trkpt>
      <trkpt lat="63.839210914448" lon="20.346756801009">
        <ele>94.6</ele>
        <time>2015-01-01T10:35:01Z</time>
        <extensions><gpxtpx:TrackPointExtension><gpxtpx:hr>155</gpxtpx:hr></gpxtpx:TrackPointExtension></extensions>
      </trkpt>
      <trkpt lat="63.83913799189" lon="20.346832992509">
        <ele>94.4</ele>
        <time>2015-01-01T10:35:04Z</time>
        <extensions><gpxtpx:TrackPointExtension><gpxtpx:hr>155</gpxtpx:hr></gpxtpx:TrackPointExtension></extensions>
      </trkpt>
      <trkpt lat="63.839107984677" lon="20.346842380241">
        <ele>94.4</ele>
        <time>2015-01-01T10:35:06Z</time>
        <extensions><gpxtpx:TrackPointExtension><gpxtpx:hr>154</gpxtpx:hr></gpxtpx:TrackPointExtension></extensions>
      </trkpt>
      <trkpt lat="63.838918386027" lon="20.346809942275">
        <ele>94.4</ele>
        <time>2015-01-01T10:35:11Z</time>
        <extensions><gpxtpx:TrackPointExtension><gpxtpx:hr>155</gpxtpx:hr></gpxtpx:TrackPointExtension></extensions>
      </trkpt>
      <trkpt lat="63.838752172887" lon="20.346761159599">
        <ele>94.8</ele>
        <time>2015-01-01T10:35:16Z</time>
        <extensions><gpxtpx:TrackPointExtension><gpxtpx:hr>155</gpxtpx:hr></gpxtpx:TrackPointExtension></extensions>
      </trkpt>
      <trkpt lat="63.838611021638" lon="20.346616907045">
        <ele>94.8</ele>
        <time>2015-01-01T10:35:21Z</time>
        <extensions><gpxtpx:TrackPointExtension><gpxtpx:hr>153</gpxtpx:hr></gpxtpx:TrackPointExtension></extensions>
      </trkpt>
      <trkpt lat="63.838604064658" lon="20.346566867083">
        <ele>94.8</ele>
        <time>2015-01-01T10:35:22Z</time>
        <extensions><gpxtpx:TrackPointExtension><gpxtpx:hr>153</gpxtpx:hr></gpxtpx:TrackPointExtension></extensions>
      </trkpt>
      <trkpt lat="63.838608004153" lon="20.346312979236">
        <ele>94.8</ele>
        <time>2015-01-01T10:35:25Z</time>
        <extensions><gpxtpx:TrackPointExtension><gpxtpx:hr>151</gpxtpx:hr></gpxtpx:TrackPointExtension></extensions>
      </trkpt>
      <trkpt lat="63.838635664433" lon="20.345801180229">
        <ele>93.6</ele>
        <time>2015-01-01T10:35:30Z</time>
        <extensions><gpxtpx:TrackPointExtension><gpxtpx:hr>149</gpxtpx:hr></gpxtpx:TrackPointExtension></extensions>
      </trkpt>
      <trkpt lat="63.838644213974" lon="20.34567209892">
        <ele>93.2</ele>
        <time>2015-01-01T10:35:31Z</time>
        <extensions><gpxtpx:TrackPointExtension><gpxtpx:hr>148</gpxtpx:hr></gpxtpx:TrackPointExtension></extensions>
      </trkpt>
      <trkpt lat="63.83866533637" lon="20.345406979322">
        <ele>92.2</ele>
        <time>2015-01-01T10:35:33Z</time>
        <extensions><gpxtpx:TrackPointExtension><gpxtpx:hr>145</gpxtpx:hr></gpxtpx:TrackPointExtension></extensions>
      </trkpt>
      <trkpt lat="63.838690230623" lon="20.345035325736">
        <ele>90.6</ele>
        <time>2015-01-01T10:35:36Z</time>
        <extensions><gpxtpx:TrackPointExtension><gpxtpx:hr>144</gpxtpx:hr></gpxtpx:TrackPointExtension></extensions>
      </trkpt>
      <trkpt lat="63.838712861761" lon="20.344663001597">
        <ele>89.4</ele>
        <time>2015-01-01T10:35:39Z</time>
        <extensions><gpxtpx:TrackPointExtension><gpxtpx:hr>143</gpxtpx:hr></gpxtpx:TrackPointExtension></extensions>
      </trkpt>
      <trkpt lat="63.838725183159" lon="20.344355134293">
        <ele>88.2</ele>
        <time>2015-01-01T10:35:42Z</time>
        <extensions><gpxtpx:TrackPointExtension><gpxtpx:hr>142</gpxtpx:hr></gpxtpx:TrackPointExtension></extensions>
      </trkpt>
      <trkpt lat="63.838735073805" lon="20.344224208966">
        <ele>88</ele>
        <time>2015-01-01T10:35:43Z</time>
        <extensions><gpxtpx:TrackPointExtension><gpxtpx:hr>142</gpxtpx:hr></gpxtpx:TrackPointExtension></extensions>
      </trkpt>
      <trkpt lat="63.838781844825" lon="20.343688772991">
        <ele>87.2</ele>
        <time>2015-01-01T10:35:49Z</time>
        <extensions><gpxtpx:TrackPointExtension><gpxtpx:hr>143</gpxtpx:hr></gpxtpx:TrackPointExtension></extensions>
      </trkpt>
      <trkpt lat="63.838790226728" lon="20.343605624512">
        <ele>87.2</ele>
        <time>2015-01-01T10:35:50Z</time>
        <extensions><gpxtpx:TrackPointExtension><gpxtpx:hr>144</gpxtpx:hr></gpxtpx:TrackPointExtension></extensions>
      </trkpt>
      <trkpt lat="63.838816713542" lon="20.34321108833">
        <ele>87.8</ele>
        <time>2015-01-01T10:35:55Z</time>
        <extensions><gpxtpx:TrackPointExtension><gpxtpx:hr>145</gpxtpx:hr></gpxtpx:TrackPointExtension></extensions>
      </trkpt>
      <trkpt lat="63.838821910322" lon="20.343088964">
        <ele>87.8</ele>
        <time>2015-01-01T10:35:57Z</time>
        <extensions><gpxtpx:TrackPointExtension><gpxtpx:hr>146</gpxtpx:hr></gpxtpx:TrackPointExtension></extensions>
      </trkpt>
      <trkpt lat="63.838824592531" lon="20.342978574336">
        <ele>87.8</ele>
        <time>2015-01-01T10:35:59Z</time>
        <extensions><gpxtpx:TrackPointExtension><gpxtpx:hr>146</gpxtpx:hr></gpxtpx:TrackPointExtension></extensions>
      </trkpt>
      <trkpt lat="63.83881428279" lon="20.342974215746">
        <ele>87.6</ele>
        <time>2015-01-01T10:36:00Z</time>
        <extensions><gpxtpx:TrackPointExtension><gpxtpx:hr>146</gpxtpx:hr></gpxtpx:TrackPointExtension></extensions>
      </trkpt>
      <trkpt lat="63.838798860088" lon="20.343099944293">
        <ele>87.4</ele>
        <time>2015-01-01T10:36:05Z</time>
        <extensions><gpxtpx:TrackPointExtension><gpxtpx:hr>145</gpxtpx:hr></gpxtpx:TrackPointExtension></extensions>
      </trkpt>
      <trkpt lat="63.838784527034" lon="20.343273868784">
        <ele>87.6</ele>
        <time>2015-01-01T10:36:08Z</time>
        <extensions><gpxtpx:TrackPointExtension><gpxtpx:hr>145</gpxtpx:hr></gpxtpx:TrackPointExtension></extensions>
      </trkpt>
      <trkpt lat="63.838763991371" lon="20.34353999421">
        <ele>87.6</ele>
        <time>2015-01-01T10:36:12Z</time>
        <extensions><gpxtpx:TrackPointExtension><gpxtpx:hr>146</gpxtpx:hr></gpxtpx:TrackPointExtension></extensions>
      </trkpt>
      <trkpt lat="63.838719818741" lon="20.34395900555">
        <ele>87.8</ele>
        <time>2015-01-01T10:36:18Z</time>
        <extensions><gpxtpx:TrackPointExtension><gpxtpx:hr>148</gpxtpx:hr></gpxtpx:TrackPointExtension></extensions>
      </trkpt>
      <trkpt lat="63.838698193431" lon="20.344314482063">
        <ele>87.8</ele>
        <time>2015-01-01T10:36:23Z</time>
        <extensions><gpxtpx:TrackPointExtension><gpxtpx:hr>149</gpxtpx:hr></gpxtpx:TrackPointExtension></extensions>
      </trkpt>
      <trkpt lat="63.838678244501" lon="20.344705665484">
        <ele>88.2</ele>
        <time>2015-01-01T10:36:28Z</time>
        <extensions><gpxtpx:TrackPointExtension><gpxtpx:hr>150</gpxtpx:hr></gpxtpx:TrackPointExtension></extensions>
      </trkpt>
      <trkpt lat="63.838650248945" lon="20.345104811713">
        <ele>88.8</ele>
        <time>2015-01-01T10:36:34Z</time>
        <extensions><gpxtpx:TrackPointExtension><gpxtpx:hr>152</gpxtpx:hr></gpxtpx:TrackPointExtension></extensions>
      </trkpt>
      <trkpt lat="63.838636334985" lon="20.345301534981">
        <ele>89.2</ele>
        <time>2015-01-01T10:36:37Z</time>
        <extensions><gpxtpx:TrackPointExtension><gpxtpx:hr>152</gpxtpx:hr></gpxtpx:TrackPointExtension></extensions>
      </trkpt>
      <trkpt lat="63.838611356914" lon="20.345544191077">
        <ele>89.4</ele>
        <time>2015-01-01T10:36:40Z</time>
        <extensions><gpxtpx:TrackPointExtension><gpxtpx:hr>153</gpxtpx:hr></gpxtpx:TrackPointExtension></extensions>
      </trkpt>
      <trkpt lat="63.838580930606" lon="20.345885083079">
        <ele>90</ele>
        <time>2015-01-01T10:36:46Z</time>
        <extensions><gpxtpx:TrackPointExtension><gpxtpx:hr>155</gpxtpx:hr></gpxtpx:TrackPointExtension></extensions>
      </trkpt>
      <trkpt lat="63.838576991111" lon="20.346013242379">
        <ele>90.2</ele>
        <time>2015-01-01T10:36:49Z</time>
        <extensions><gpxtpx:TrackPointExtension><gpxtpx:hr>157</gpxtpx:hr></gpxtpx:TrackPointExtension></extensions>
      </trkpt>
      <trkpt lat="63.83857271634" lon="20.346135031432">
        <ele>90.8</ele>
        <time>2015-01-01T10:36:52Z</time>
        <extensions><gpxtpx:TrackPointExtension><gpxtpx:hr>159</gpxtpx:hr></gpxtpx:TrackPointExtension></extensions>
      </trkpt>
      <trkpt lat="63.838578332216" lon="20.346291521564">
        <ele>91.4</ele>
        <time>2015-01-01T10:36:55Z</time>
        <extensions><gpxtpx:TrackPointExtension><gpxtpx:hr>161</gpxtpx:hr></gpxtpx:TrackPointExtension></extensions>
      </trkpt>
      <trkpt lat="63.838575901464" lon="20.346553204581">
        <ele>92.4</ele>
        <time>2015-01-01T10:37:04Z</time>
        <extensions><gpxtpx:TrackPointExtension><gpxtpx:hr>165</gpxtpx:hr></gpxtpx:TrackPointExtension></extensions>
      </trkpt>
      <trkpt lat="63.838582690805" lon="20.346644399688">
        <ele>92.4</ele>
        <time>2015-01-01T10:37:05Z</time>
        <extensions><gpxtpx:TrackPointExtension><gpxtpx:hr>165</gpxtpx:hr></gpxtpx:TrackPointExtension></extensions>
      </trkpt>
      <trkpt lat="63.83859350346" lon="20.346736181527">
        <ele>92.4</ele>
        <time>2015-01-01T10:37:09Z</time>
        <extensions><gpxtpx:TrackPointExtension><gpxtpx:hr>165</gpxtpx:hr></gpxtpx:TrackPointExtension></extensions>
      </trkpt>
      <trkpt lat="63.838577661663" lon="20.347031224519">
        <ele>93.6</ele>
        <time>2015-01-01T10:37:13Z</time>
        <extensions><gpxtpx:TrackPointExtension><gpxtpx:hr>166</gpxtpx:hr></gpxtpx:TrackPointExtension></extensions>
      </trkpt>
      <trkpt lat="63.838579254225" lon="20.347139518708">
        <ele>94.6</ele>
        <time>2015-01-01T10:37:15Z</time>
        <extensions><gpxtpx:TrackPointExtension><gpxtpx:hr>166</gpxtpx:hr></gpxtpx:TrackPointExtension></extensions>
      </trkpt>
      <trkpt lat="63.838577996939" lon="20.347271701321">
        <ele>95</ele>
        <time>2015-01-01T10:37:17Z</time>
        <extensions><gpxtpx:TrackPointExtension><gpxtpx:hr>165</gpxtpx:hr></gpxtpx:TrackPointExtension></extensions>
      </trkpt>
      <trkpt lat="63.838553605601" lon="20.347645869479">
        <ele>95.2</ele>
        <time>2015-01-01T10:37:23Z</time>
        <extensions><gpxtpx:TrackPointExtension><gpxtpx:hr>164</gpxtpx:hr></gpxtpx:TrackPointExtension></extensions>
      </trkpt>
      <trkpt lat="63.838549833745" lon="20.34797812812">
        <ele>95.6</ele>
        <time>2015-01-01T10:37:27Z</time>
        <extensions><gpxtpx:TrackPointExtension><gpxtpx:hr>163</gpxtpx:hr></gpxtpx:TrackPointExtension></extensions>
      </trkpt>
      <trkpt lat="63.838537177071" lon="20.348118189722">
        <ele>95.6</ele>
        <time>2015-01-01T10:37:29Z</time>
        <extensions><gpxtpx:TrackPointExtension><gpxtpx:hr>163</gpxtpx:hr></gpxtpx:TrackPointExtension></extensions>
      </trkpt>
      <trkpt lat="63.838521922007" lon="20.348385320976">
        <ele>95.2</ele>
        <time>2015-01-01T10:37:32Z</time>
        <extensions><gpxtpx:TrackPointExtension><gpxtpx:hr>163</gpxtpx:hr></gpxtpx:TrackPointExtension></extensions>
      </trkpt>
      <trkpt lat="63.838518317789" lon="20.34853820689">
        <ele>95</ele>
        <time>2015-01-01T10:37:34Z</time>
        <extensions><gpxtpx:TrackPointExtension><gpxtpx:hr>164</gpxtpx:hr></gpxtpx:TrackPointExtension></extensions>
      </trkpt>
      <trkpt lat="63.838539943099" lon="20.348772313446">
        <ele>95</ele>
        <time>2015-01-01T10:37:37Z</time>
        <extensions><gpxtpx:TrackPointExtension><gpxtpx:hr>163</gpxtpx:hr></gpxtpx:TrackPointExtension></extensions>
      </trkpt>
      <trkpt lat="63.838530723006" lon="20.348833836615">
        <ele>95.2</ele>
        <time>2015-01-01T10:37:38Z</time>
        <extensions><gpxtpx:TrackPointExtension><gpxtpx:hr>164</gpxtpx:hr></gpxtpx:TrackPointExtension></extensions>
      </trkpt>
      <trkpt lat="63.838530220091" lon="20.349032655358">
        <ele>95.4</ele>
        <time>2015-01-01T10:37:41Z</time>
        <extensions><gpxtpx:TrackPointExtension><gpxtpx:hr>163</gpxtpx:hr></gpxtpx:TrackPointExtension></extensions>
      </trkpt>
      <trkpt lat="63.838495938107" lon="20.349359465763">
        <ele>96</ele>
        <time>2015-01-01T10:37:47Z</time>
        <extensions><gpxtpx:TrackPointExtension><gpxtpx:hr>164</gpxtpx:hr></gpxtpx:TrackPointExtension></extensions>
      </trkpt>
      <trkpt lat="63.838466014713" lon="20.349570438266">
        <ele>96.6</ele>
        <time>2015-01-01T10:37:52Z</time>
        <extensions><gpxtpx:TrackPointExtension><gpxtpx:hr>165</gpxtpx:hr></gpxtpx:TrackPointExtension></extensions>
      </trkpt>
      <trkpt lat="63.838465930894" lon="20.349623076618">
        <ele>97</ele>
        <time>2015-01-01T10:37:54Z</time>
        <extensions><gpxtpx:TrackPointExtension><gpxtpx:hr>164</gpxtpx:hr></gpxtpx:TrackPointExtension></extensions>
      </trkpt>
      <trkpt lat="63.838498452678" lon="20.349762802944">
        <ele>97.8</ele>
        <time>2015-01-01T10:37:58Z</time>
        <extensions><gpxtpx:TrackPointExtension><gpxtpx:hr>165</gpxtpx:hr></gpxtpx:TrackPointExtension></extensions>
      </trkpt>
      <trkpt lat="63.83851387538" lon="20.349783170968">
        <ele>98</ele>
        <time>2015-01-01T10:37:59Z</time>
        <extensions><gpxtpx:TrackPointExtension><gpxtpx:hr>165</gpxtpx:hr></gpxtpx:TrackPointExtension></extensions>
      </trkpt>
      <trkpt lat="63.838581852615" lon="20.349818961695">
        <ele>98.8</ele>
        <time>2015-01-01T10:38:02Z</time>
        <extensions><gpxtpx:TrackPointExtension><gpxtpx:hr>165</gpxtpx:hr></gpxtpx:TrackPointExtension></extensions>
      </trkpt>
      <trkpt lat="63.838658379391" lon="20.349835138768">
        <ele>99</ele>
        <time>2015-01-01T10:38:05Z</time>
        <extensions><gpxtpx:TrackPointExtension><gpxtpx:hr>164</gpxtpx:hr></gpxtpx:TrackPointExtension></extensions>
      </trkpt>
      <trkpt lat="63.838768936694" lon="20.349780572578">
        <ele>98.8</ele>
        <time>2015-01-01T10:38:09Z</time>
        <extensions><gpxtpx:TrackPointExtension><gpxtpx:hr>163</gpxtpx:hr></gpxtpx:TrackPointExtension></extensions>
      </trkpt>
      <trkpt lat="63.838925845921" lon="20.349625675008">
        <ele>98.8</ele>
        <time>2015-01-01T10:38:13Z</time>
        <extensions><gpxtpx:TrackPointExtension><gpxtpx:hr>162</gpxtpx:hr></gpxtpx:TrackPointExtension></extensions>
      </trkpt>
      <trkpt lat="63.838962223381" lon="20.349576054141">
        <ele>98.8</ele>
        <time>2015-01-01T10:38:14Z</time>
        <extensions><gpxtpx:TrackPointExtension><gpxtpx:hr>162</gpxtpx:hr></gpxtpx:TrackPointExtension></extensions>
      </trkpt>
      <trkpt lat="63.839100021869" lon="20.349417049438">
        <ele>98.6</ele>
        <time>2015-01-01T10:38:18Z</time>
        <extensions><gpxtpx:TrackPointExtension><gpxtpx:hr>160</gpxtpx:hr></gpxtpx:TrackPointExtension></extensions>
      </trkpt>
      <trkpt lat="63.839185265824" lon="20.349329877645">
        <ele>97.8</ele>
        <time>2015-01-01T10:38:21Z</time>
        <extensions><gpxtpx:TrackPointExtension><gpxtpx:hr>158</gpxtpx:hr></gpxtpx:TrackPointExtension></extensions>
      </trkpt>
      <trkpt lat="63.839244777337" lon="20.349219739437">
        <ele>97.2</ele>
        <time>2015-01-01T10:38:23Z</time>
        <extensions><gpxtpx:TrackPointExtension><gpxtpx:hr>158</gpxtpx:hr></gpxtpx:TrackPointExtension></extensions>
      </trkpt>
      <trkpt lat="63.839339576662" lon="20.349140781909">
        <ele>97.2</ele>
        <time>2015-01-01T10:38:26Z</time>
        <extensions><gpxtpx:TrackPointExtension><gpxtpx:hr>158</gpxtpx:hr></gpxtpx:TrackPointExtension></extensions>
      </trkpt>
      <trkpt lat="63.839407302439" lon="20.349170537665">
        <ele>97.4</ele>
        <time>2015-01-01T10:38:28Z</time>
        <extensions><gpxtpx:TrackPointExtension><gpxtpx:hr>158</gpxtpx:hr></gpxtpx:TrackPointExtension></extensions>
      </trkpt>
      <trkpt lat="63.839519955218" lon="20.349428784102">
        <ele>97.4</ele>
        <time>2015-01-01T10:38:33Z</time>
        <extensions><gpxtpx:TrackPointExtension><gpxtpx:hr>159</gpxtpx:hr></gpxtpx:TrackPointExtension></extensions>
      </trkpt>
      <trkpt lat="63.839531186968" lon="20.349601954222">
        <ele>97.4</ele>
        <time>2015-01-01T10:38:36Z</time>
        <extensions><gpxtpx:TrackPointExtension><gpxtpx:hr>159</gpxtpx:hr></gpxtpx:TrackPointExtension></extensions>
      </trkpt>
      <trkpt lat="63.839532025158" lon="20.349652664736">
        <ele>97.4</ele>
        <time>2015-01-01T10:38:37Z</time>
        <extensions><gpxtpx:TrackPointExtension><gpxtpx:hr>160</gpxtpx:hr></gpxtpx:TrackPointExtension></extensions>
      </trkpt>
      <trkpt lat="63.839526409283" lon="20.349943097681">
        <ele>98.6</ele>
        <time>2015-01-01T10:38:43Z</time>
        <extensions><gpxtpx:TrackPointExtension><gpxtpx:hr>161</gpxtpx:hr></gpxtpx:TrackPointExtension></extensions>
      </trkpt>
      <trkpt lat="63.839524900541" lon="20.35000805743">
        <ele>98.8</ele>
        <time>2015-01-01T10:38:44Z</time>
        <extensions><gpxtpx:TrackPointExtension><gpxtpx:hr>161</gpxtpx:hr></gpxtpx:TrackPointExtension></extensions>
      </trkpt>
      <trkpt lat="63.839550381526" lon="20.350386667997">
        <ele>100.2</ele>
        <time>2015-01-01T10:38:50Z</time>
        <extensions><gpxtpx:TrackPointExtension><gpxtpx:hr>163</gpxtpx:hr></gpxtpx:TrackPointExtension></extensions>
      </trkpt>
      <trkpt lat="63.839657083154" lon="20.350745161995">
        <ele>100.6</ele>
        <time>2015-01-01T10:38:56Z</time>
        <extensions><gpxtpx:TrackPointExtension><gpxtpx:hr>163</gpxtpx:hr></gpxtpx:TrackPointExtension></extensions>
      </trkpt>
      <trkpt lat="63.839689185843" lon="20.350874997675">
        <ele>100.8</ele>
        <time>2015-01-01T10:38:58Z</time>
        <extensions><gpxtpx:TrackPointExtension><gpxtpx:hr>163</gpxtpx:hr></gpxtpx:TrackPointExtension></extensions>
      </trkpt>
      <trkpt lat="63.839730927721" lon="20.351016148925">
        <ele>100.8</ele>
        <time>2015-01-01T10:39:00Z</time>
        <extensions><gpxtpx:TrackPointExtension><gpxtpx:hr>163</gpxtpx:hr></gpxtpx:TrackPointExtension></extensions>
      </trkpt>
      <trkpt lat="63.839863864705" lon="20.351423257962">
        <ele>100.6</ele>
        <time>2015-01-01T10:39:06Z</time>
        <extensions><gpxtpx:TrackPointExtension><gpxtpx:hr>163</gpxtpx:hr></gpxtpx:TrackPointExtension></extensions>
      </trkpt>
      <trkpt lat="63.839959837496" lon="20.351829947904">
        <ele>100.8</ele>
        <time>2015-01-01T10:39:12Z</time>
        <extensions><gpxtpx:TrackPointExtension><gpxtpx:hr>163</gpxtpx:hr></gpxtpx:TrackPointExtension></extensions>
      </trkpt>
      <trkpt lat="63.839996047318" lon="20.352061958984">
        <ele>101.2</ele>
        <time>2015-01-01T10:39:16Z</time>
        <extensions><gpxtpx:TrackPointExtension><gpxtpx:hr>164</gpxtpx:hr></gpxtpx:TrackPointExtension></extensions>
      </trkpt>
      <trkpt lat="63.840012643486" lon="20.352189363912">
        <ele>101.4</ele>
        <time>2015-01-01T10:39:18Z</time>
        <extensions><gpxtpx:TrackPointExtension><gpxtpx:hr>164</gpxtpx:hr></gpxtpx:TrackPointExtension></extensions>
      </trkpt>
      <trkpt lat="63.840079614893" lon="20.35262321122">
        <ele>102</ele>
        <time>2015-01-01T10:39:25Z</time>
        <extensions><gpxtpx:TrackPointExtension><gpxtpx:hr>164</gpxtpx:hr></gpxtpx:TrackPointExtension></extensions>
      </trkpt>
      <trkpt lat="63.840081375092" lon="20.35273661837">
        <ele>102.2</ele>
        <time>2015-01-01T10:39:27Z</time>
        <extensions><gpxtpx:TrackPointExtension><gpxtpx:hr>164</gpxtpx:hr></gpxtpx:TrackPointExtension></extensions>
      </trkpt>
      <trkpt lat="63.840070730075" lon="20.352930910885">
        <ele>102.6</ele>
        <time>2015-01-01T10:39:31Z</time>
        <extensions><gpxtpx:TrackPointExtension><gpxtpx:hr>165</gpxtpx:hr></gpxtpx:TrackPointExtension></extensions>
      </trkpt>
      <trkpt lat="63.840074837208" lon="20.353079689667">
        <ele>103.2</ele>
        <time>2015-01-01T10:39:34Z</time>
        <extensions><gpxtpx:TrackPointExtension><gpxtpx:hr>165</gpxtpx:hr></gpxtpx:TrackPointExtension></extensions>
      </trkpt>
      <trkpt lat="63.840097468346" lon="20.353321339935">
        <ele>104</ele>
        <time>2015-01-01T10:39:39Z</time>
        <extensions><gpxtpx:TrackPointExtension><gpxtpx:hr>166</gpxtpx:hr></gpxtpx:TrackPointExtension></extensions>
      </trkpt>
      <trkpt lat="63.84010844864" lon="20.353368278593">
        <ele>104.2</ele>
        <time>2015-01-01T10:39:40Z</time>
        <extensions><gpxtpx:TrackPointExtension><gpxtpx:hr>166</gpxtpx:hr></gpxtpx:TrackPointExtension></extensions>
      </trkpt>
      <trkpt lat="63.840150358155" lon="20.353469951078">
        <ele>104.4</ele>
        <time>2015-01-01T10:39:43Z</time>
        <extensions><gpxtpx:TrackPointExtension><gpxtpx:hr>167</gpxtpx:hr></gpxtpx:TrackPointExtension></extensions>
      </trkpt>
      <trkpt lat="63.840193105862" lon="20.353547483683">
        <ele>104.2</ele>
        <time>2015-01-01T10:39:45Z</time>
        <extensions><gpxtpx:TrackPointExtension><gpxtpx:hr>167</gpxtpx:hr></gpxtpx:TrackPointExtension></extensions>
      </trkpt>
      <trkpt lat="63.840321768075" lon="20.353677151725">
        <ele>104.4</ele>
        <time>2015-01-01T10:39:51Z</time>
        <extensions><gpxtpx:TrackPointExtension><gpxtpx:hr>167</gpxtpx:hr></gpxtpx:TrackPointExtension></extensions>
      </trkpt>
      <trkpt lat="63.840449675918" lon="20.353782344609">
        <ele>105</ele>
        <time>2015-01-01T10:39:57Z</time>
        <extensions><gpxtpx:TrackPointExtension><gpxtpx:hr>167</gpxtpx:hr></gpxtpx:TrackPointExtension></extensions>
      </trkpt>
      <trkpt lat="63.84047373198" lon="20.353783685714">
        <ele>105.6</ele>
        <time>2015-01-01T10:39:58Z</time>
        <extensions><gpxtpx:TrackPointExtension><gpxtpx:hr>167</gpxtpx:hr></gpxtpx:TrackPointExtension></extensions>
      </trkpt>
      <trkpt lat="63.840611698106" lon="20.353823583573">
        <ele>106</ele>
        <time>2015-01-01T10:40:03Z</time>
        <extensions><gpxtpx:TrackPointExtension><gpxtpx:hr>166</gpxtpx:hr></gpxtpx:TrackPointExtension></extensions>
      </trkpt>
      <trkpt lat="63.840734912083" lon="20.353763652965">
        <ele>106.2</ele>
        <time>2015-01-01T10:40:08Z</time>
        <extensions><gpxtpx:TrackPointExtension><gpxtpx:hr>167</gpxtpx:hr></gpxtpx:TrackPointExtension></extensions>
      </trkpt>
      <trkpt lat="63.840802889317" lon="20.353737920523">
        <ele>106.8</ele>
        <time>2015-01-01T10:40:12Z</time>
        <extensions><gpxtpx:TrackPointExtension><gpxtpx:hr>168</gpxtpx:hr></gpxtpx:TrackPointExtension></extensions>
      </trkpt>
      <trkpt lat="63.840875057504" lon="20.353715037927">
        <ele>107.4</ele>
        <time>2015-01-01T10:40:15Z</time>
        <extensions><gpxtpx:TrackPointExtension><gpxtpx:hr>168</gpxtpx:hr></gpxtpx:TrackPointExtension></extensions>
      </trkpt>
      <trkpt lat="63.840948902071" lon="20.353638427332">
        <ele>108</ele>
        <time>2015-01-01T10:40:18Z</time>
        <extensions><gpxtpx:TrackPointExtension><gpxtpx:hr>167</gpxtpx:hr></gpxtpx:TrackPointExtension></extensions>
      </trkpt>
      <trkpt lat="63.840991985053" lon="20.353558212519">
        <ele>108.2</ele>
        <time>2015-01-01T10:40:20Z</time>
        <extensions><gpxtpx:TrackPointExtension><gpxtpx:hr>166</gpxtpx:hr></gpxtpx:TrackPointExtension></extensions>
      </trkpt>
      <trkpt lat="63.841147050261" lon="20.35318756476">
        <ele>108.2</ele>
        <time>2015-01-01T10:40:26Z</time>
        <extensions><gpxtpx:TrackPointExtension><gpxtpx:hr>164</gpxtpx:hr></gpxtpx:TrackPointExtension></extensions>
      </trkpt>
      <trkpt lat="63.841175548732" lon="20.353113636374">
        <ele>108.2</ele>
        <time>2015-01-01T10:40:27Z</time>
        <extensions><gpxtpx:TrackPointExtension><gpxtpx:hr>163</gpxtpx:hr></gpxtpx:TrackPointExtension></extensions>
      </trkpt>
      <trkpt lat="63.841264648363" lon="20.352920182049">
        <ele>107.6</ele>
        <time>2015-01-01T10:40:30Z</time>
        <extensions><gpxtpx:TrackPointExtension><gpxtpx:hr>161</gpxtpx:hr></gpxtpx:TrackPointExtension></extensions>
      </trkpt>
      <trkpt lat="63.841329272836" lon="20.352809708565">
        <ele>106.4</ele>
        <time>2015-01-01T10:40:32Z</time>
        <extensions><gpxtpx:TrackPointExtension><gpxtpx:hr>159</gpxtpx:hr></gpxtpx:TrackPointExtension></extensions>
      </trkpt>
      <trkpt lat="63.841397417709" lon="20.35272966139">
        <ele>105.8</ele>
        <time>2015-01-01T10:40:34Z</time>
        <extensions><gpxtpx:TrackPointExtension><gpxtpx:hr>158</gpxtpx:hr></gpxtpx:TrackPointExtension></extensions>
      </trkpt>
      <trkpt lat="63.841477045789" lon="20.352687081322">
        <ele>105.4</ele>
        <time>2015-01-01T10:40:36Z</time>
        <extensions><gpxtpx:TrackPointExtension><gpxtpx:hr>157</gpxtpx:hr></gpxtpx:TrackPointExtension></extensions>
      </trkpt>
      <trkpt lat="63.841541670263" lon="20.352702923119">
        <ele>105</ele>
        <time>2015-01-01T10:40:38Z</time>
        <extensions><gpxtpx:TrackPointExtension><gpxtpx:hr>157</gpxtpx:hr></gpxtpx:TrackPointExtension></extensions>
      </trkpt>
      <trkpt lat="63.841574611142" lon="20.352720776573">
        <ele>104.8</ele>
        <time>2015-01-01T10:40:39Z</time>
        <extensions><gpxtpx:TrackPointExtension><gpxtpx:hr>156</gpxtpx:hr></gpxtpx:TrackPointExtension></extensions>
      </trkpt>
      <trkpt lat="63.841719282791" lon="20.352610806003">
        <ele>105.4</ele>
        <time>2015-01-01T10:40:44Z</time>
        <extensions><gpxtpx:TrackPointExtension><gpxtpx:hr>157</gpxtpx:hr></gpxtpx:TrackPointExtension></extensions>
      </trkpt>
      <trkpt lat="63.841742835939" lon="20.352433864027">
        <ele>105.8</ele>
        <time>2015-01-01T10:40:46Z</time>
        <extensions><gpxtpx:TrackPointExtension><gpxtpx:hr>157</gpxtpx:hr></gpxtpx:TrackPointExtension></extensions>
      </trkpt>
      <trkpt lat="63.841750714928" lon="20.352271338925">
        <ele>105.6</ele>
        <time>2015-01-01T10:40:48Z</time>
        <extensions><gpxtpx:TrackPointExtension><gpxtpx:hr>158</gpxtpx:hr></gpxtpx:TrackPointExtension></extensions>
      </trkpt>
      <trkpt lat="63.841769238934" lon="20.35144421272">
        <ele>104.6</ele>
        <time>2015-01-01T10:40:57Z</time>
        <extensions><gpxtpx:TrackPointExtension><gpxtpx:hr>159</gpxtpx:hr></gpxtpx:TrackPointExtension></extensions>
      </trkpt>
      <trkpt lat="63.841808717698" lon="20.351080521941">
        <ele>104.6</ele>
        <time>2015-01-01T10:41:02Z</time>
        <extensions><gpxtpx:TrackPointExtension><gpxtpx:hr>159</gpxtpx:hr></gpxtpx:TrackPointExtension></extensions>
      </trkpt>
      <trkpt lat="63.841949868947" lon="20.350805595517">
        <ele>104.4</ele>
        <time>2015-01-01T10:41:08Z</time>
        <extensions><gpxtpx:TrackPointExtension><gpxtpx:hr>158</gpxtpx:hr></gpxtpx:TrackPointExtension></extensions>
      </trkpt>
      <trkpt lat="63.841991946101" lon="20.350849181414">
        <ele>104.4</ele>
        <time>2015-01-01T10:41:10Z</time>
        <extensions><gpxtpx:TrackPointExtension><gpxtpx:hr>158</gpxtpx:hr></gpxtpx:TrackPointExtension></extensions>
      </trkpt>
      <trkpt lat="63.842035448179" lon="20.350948004052">
        <ele>104.6</ele>
        <time>2015-01-01T10:41:12Z</time>
        <extensions><gpxtpx:TrackPointExtension><gpxtpx:hr>158</gpxtpx:hr></gpxtpx:TrackPointExtension></extensions>
      </trkpt>
      <trkpt lat="63.84217986837" lon="20.351155204698">
        <ele>104.8</ele>
        <time>2015-01-01T10:41:18Z</time>
        <extensions><gpxtpx:TrackPointExtension><gpxtpx:hr>158</gpxtpx:hr></gpxtpx:TrackPointExtension></extensions>
      </trkpt>
      <trkpt lat="63.842431996018" lon="20.351274395362">
        <ele>105</ele>
        <time>2015-01-01T10:41:26Z</time>
        <extensions><gpxtpx:TrackPointExtension><gpxtpx:hr>159</gpxtpx:hr></gpxtpx:TrackPointExtension></extensions>
      </trkpt>
      <trkpt lat="63.842657217756" lon="20.351349161938">
        <ele>105.4</ele>
        <time>2015-01-01T10:41:32Z</time>
        <extensions><gpxtpx:TrackPointExtension><gpxtpx:hr>160</gpxtpx:hr></gpxtpx:TrackPointExtension></extensions>
      </trkpt>
      <trkpt lat="63.842877326533" lon="20.351408170536">
        <ele>105.6</ele>
        <time>2015-01-01T10:41:39Z</time>
        <extensions><gpxtpx:TrackPointExtension><gpxtpx:hr>161</gpxtpx:hr></gpxtpx:TrackPointExtension></extensions>
      </trkpt>
      <trkpt lat="63.843113863841" lon="20.351404901594">
        <ele>106</ele>
        <time>2015-01-01T10:41:46Z</time>
        <extensions><gpxtpx:TrackPointExtension><gpxtpx:hr>161</gpxtpx:hr></gpxtpx:TrackPointExtension></extensions>
      </trkpt>
      <trkpt lat="63.843357525766" lon="20.351400710642">
        <ele>106.4</ele>
        <time>2015-01-01T10:41:54Z</time>
        <extensions><gpxtpx:TrackPointExtension><gpxtpx:hr>162</gpxtpx:hr></gpxtpx:TrackPointExtension></extensions>
      </trkpt>
      <trkpt lat="63.843555925414" lon="20.351483607665">
        <ele>106.6</ele>
        <time>2015-01-01T10:42:01Z</time>
        <extensions><gpxtpx:TrackPointExtension><gpxtpx:hr>162</gpxtpx:hr></gpxtpx:TrackPointExtension></extensions>
      </trkpt>
      <trkpt lat="63.843743763864" lon="20.351747889072">
        <ele>106.8</ele>
        <time>2015-01-01T10:42:08Z</time>
        <extensions><gpxtpx:TrackPointExtension><gpxtpx:hr>161</gpxtpx:hr></gpxtpx:TrackPointExtension></extensions>
      </trkpt>
      <trkpt lat="63.843933194876" lon="20.351954754442">
        <ele>107</ele>
        <time>2015-01-01T10:42:14Z</time>
        <extensions><gpxtpx:TrackPointExtension><gpxtpx:hr>160</gpxtpx:hr></gpxtpx:TrackPointExtension></extensions>
      </trkpt>
      <trkpt lat="63.844132935628" lon="20.352060198784">
        <ele>107.2</ele>
        <time>2015-01-01T10:42:20Z</time>
        <extensions><gpxtpx:TrackPointExtension><gpxtpx:hr>160</gpxtpx:hr></gpxtpx:TrackPointExtension></extensions>
      </trkpt>
      <trkpt lat="63.844208456576" lon="20.35208819434">
        <ele>107.2</ele>
        <time>2015-01-01T10:42:22Z</time>
        <extensions><gpxtpx:TrackPointExtension><gpxtpx:hr>160</gpxtpx:hr></gpxtpx:TrackPointExtension></extensions>
      </trkpt>
      <trkpt lat="63.844276936725" lon="20.352113675326">
        <ele>107</ele>
        <time>2015-01-01T10:42:24Z</time>
        <extensions><gpxtpx:TrackPointExtension><gpxtpx:hr>160</gpxtpx:hr></gpxtpx:TrackPointExtension></extensions>
      </trkpt>
      <trkpt lat="63.844347177073" lon="20.35211593844">
        <ele>107</ele>
        <time>2015-01-01T10:42:26Z</time>
        <extensions><gpxtpx:TrackPointExtension><gpxtpx:hr>161</gpxtpx:hr></gpxtpx:TrackPointExtension></extensions>
      </trkpt>
      <trkpt lat="63.844527471811" lon="20.351998005062">
        <ele>107.6</ele>
        <time>2015-01-01T10:42:32Z</time>
        <extensions><gpxtpx:TrackPointExtension><gpxtpx:hr>161</gpxtpx:hr></gpxtpx:TrackPointExtension></extensions>
      </trkpt>
      <trkpt lat="63.844661246985" lon="20.352074028924">
        <ele>108.4</ele>
        <time>2015-01-01T10:42:37Z</time>
        <extensions><gpxtpx:TrackPointExtension><gpxtpx:hr>162</gpxtpx:hr></gpxtpx:TrackPointExtension></extensions>
      </trkpt>
      <trkpt lat="63.844725536183" lon="20.352201266214">
        <ele>108.6</ele>
        <time>2015-01-01T10:42:40Z</time>
        <extensions><gpxtpx:TrackPointExtension><gpxtpx:hr>162</gpxtpx:hr></gpxtpx:TrackPointExtension></extensions>
      </trkpt>
      <trkpt lat="63.844786891714" lon="20.352289695293">
        <ele>108.4</ele>
        <time>2015-01-01T10:42:42Z</time>
        <extensions><gpxtpx:TrackPointExtension><gpxtpx:hr>161</gpxtpx:hr></gpxtpx:TrackPointExtension></extensions>
      </trkpt>
      <trkpt lat="63.844969952479" lon="20.352558754385">
        <ele>107.6</ele>
        <time>2015-01-01T10:42:48Z</time>
        <extensions><gpxtpx:TrackPointExtension><gpxtpx:hr>160</gpxtpx:hr></gpxtpx:TrackPointExtension></extensions>
      </trkpt>
      <trkpt lat="63.844994595274" lon="20.352598819882">
        <ele>107.6</ele>
        <time>2015-01-01T10:42:49Z</time>
        <extensions><gpxtpx:TrackPointExtension><gpxtpx:hr>160</gpxtpx:hr></gpxtpx:TrackPointExtension></extensions>
      </trkpt>
      <trkpt lat="63.845155779272" lon="20.35286905244">
        <ele>107.2</ele>
        <time>2015-01-01T10:42:55Z</time>
        <extensions><gpxtpx:TrackPointExtension><gpxtpx:hr>159</gpxtpx:hr></gpxtpx:TrackPointExtension></extensions>
      </trkpt>
      <trkpt lat="63.845244375989" lon="20.352985812351">
        <ele>107.6</ele>
        <time>2015-01-01T10:42:58Z</time>
        <extensions><gpxtpx:TrackPointExtension><gpxtpx:hr>159</gpxtpx:hr></gpxtpx:TrackPointExtension></extensions>
      </trkpt>
      <trkpt lat="63.845331547782" lon="20.35296510905">
        <ele>107.4</ele>
        <time>2015-01-01T10:43:00Z</time>
        <extensions><gpxtpx:TrackPointExtension><gpxtpx:hr>159</gpxtpx:hr></gpxtpx:TrackPointExtension></extensions>
      </trkpt>
      <trkpt lat="63.845426682383" lon="20.352853126824">
        <ele>106.6</ele>
        <time>2015-01-01T10:43:02Z</time>
        <extensions><gpxtpx:TrackPointExtension><gpxtpx:hr>158</gpxtpx:hr></gpxtpx:TrackPointExtension></extensions>
      </trkpt>
      <trkpt lat="63.845475800335" lon="20.352783557028">
        <ele>106.4</ele>
        <time>2015-01-01T10:43:03Z</time>
        <extensions><gpxtpx:TrackPointExtension><gpxtpx:hr>157</gpxtpx:hr></gpxtpx:TrackPointExtension></extensions>
      </trkpt>
      <trkpt lat="63.845534138381" lon="20.35266646184">
        <ele>106.2</ele>
        <time>2015-01-01T10:43:04Z</time>
        <extensions><gpxtpx:TrackPointExtension><gpxtpx:hr>157</gpxtpx:hr></gpxtpx:TrackPointExtension></extensions>
      </trkpt>
      <trkpt lat="63.845648970455" lon="20.352433947846">
        <ele>105.4</ele>
        <time>2015-01-01T10:43:06Z</time>
        <extensions><gpxtpx:TrackPointExtension><gpxtpx:hr>155</gpxtpx:hr></gpxtpx:TrackPointExtension></extensions>
      </trkpt>
      <trkpt lat="63.845753157511" lon="20.352176707238">
        <ele>104.4</ele>
        <time>2015-01-01T10:43:08Z</time>
        <extensions><gpxtpx:TrackPointExtension><gpxtpx:hr>153</gpxtpx:hr></gpxtpx:TrackPointExtension></extensions>
      </trkpt>
      <trkpt lat="63.845799257979" lon="20.352044440806">
        <ele>104</ele>
        <time>2015-01-01T10:43:09Z</time>
        <extensions><gpxtpx:TrackPointExtension><gpxtpx:hr>152</gpxtpx:hr></gpxtpx:TrackPointExtension></extensions>
      </trkpt>
      <trkpt lat="63.845839994028" lon="20.351900774986">
        <ele>102.8</ele>
        <time>2015-01-01T10:43:10Z</time>
        <extensions><gpxtpx:TrackPointExtension><gpxtpx:hr>151</gpxtpx:hr></gpxtpx:TrackPointExtension></extensions>
      </trkpt>
      <trkpt lat="63.84590562433" lon="20.351645797491">
        <ele>101</ele>
        <time>2015-01-01T10:43:12Z</time>
        <extensions><gpxtpx:TrackPointExtension><gpxtpx:hr>150</gpxtpx:hr></gpxtpx:TrackPointExtension></extensions>
      </trkpt>
      <trkpt lat="63.845935547724" lon="20.351524930447">
        <ele>100.2</ele>
        <time>2015-01-01T10:43:13Z</time>
        <extensions><gpxtpx:TrackPointExtension><gpxtpx:hr>150</gpxtpx:hr></gpxtpx:TrackPointExtension></extensions>
      </trkpt>
      <trkpt lat="63.84596102871" lon="20.351417558268">
        <ele>99.4</ele>
        <time>2015-01-01T10:43:14Z</time>
        <extensions><gpxtpx:TrackPointExtension><gpxtpx:hr>150</gpxtpx:hr></gpxtpx:TrackPointExtension></extensions>
      </trkpt>
      <trkpt lat="63.84600779973" lon="20.351195186377">
        <ele>98.2</ele>
        <time>2015-01-01T10:43:16Z</time>
        <extensions><gpxtpx:TrackPointExtension><gpxtpx:hr>149</gpxtpx:hr></gpxtpx:TrackPointExtension></extensions>
      </trkpt>
      <trkpt lat="63.846036214381" lon="20.351007096469">
        <ele>97.6</ele>
        <time>2015-01-01T10:43:18Z</time>
        <extensions><gpxtpx:TrackPointExtension><gpxtpx:hr>149</gpxtpx:hr></gpxtpx:TrackPointExtension></extensions>
      </trkpt>
      <trkpt lat="63.846057504416" lon="20.350793106481">
        <ele>97.4</ele>
        <time>2015-01-01T10:43:20Z</time>
        <extensions><gpxtpx:TrackPointExtension><gpxtpx:hr>149</gpxtpx:hr></gpxtpx:TrackPointExtension></extensions>
      </trkpt>
      <trkpt lat="63.846066053957" lon="20.350415585563">
        <ele>97.8</ele>
        <time>2015-01-01T10:43:24Z</time>
        <extensions><gpxtpx:TrackPointExtension><gpxtpx:hr>151</gpxtpx:hr></gpxtpx:TrackPointExtension></extensions>
      </trkpt>
      <trkpt lat="63.84604585357" lon="20.350072430447">
        <ele>98.2</ele>
        <time>2015-01-01T10:43:28Z</time>
        <extensions><gpxtpx:TrackPointExtension><gpxtpx:hr>152</gpxtpx:hr></gpxtpx:TrackPointExtension></extensions>
      </trkpt>
      <trkpt lat="63.846002016217" lon="20.349822062999">
        <ele>98.2</ele>
        <time>2015-01-01T10:43:31Z</time>
        <extensions><gpxtpx:TrackPointExtension><gpxtpx:hr>152</gpxtpx:hr></gpxtpx:TrackPointExtension></extensions>
      </trkpt>
      <trkpt lat="63.845971254632" lon="20.349766239524">
        <ele>98</ele>
        <time>2015-01-01T10:43:32Z</time>
        <extensions><gpxtpx:TrackPointExtension><gpxtpx:hr>152</gpxtpx:hr></gpxtpx:TrackPointExtension></extensions>
      </trkpt>
      <trkpt lat="63.845888944343" lon="20.349641013891">
        <ele>98.2</ele>
        <time>2015-01-01T10:43:35Z</time>
        <extensions><gpxtpx:TrackPointExtension><gpxtpx:hr>153</gpxtpx:hr></gpxtpx:TrackPointExtension></extensions>
      </trkpt>
      <trkpt lat="63.845746871084" lon="20.349590051919">
        <ele>98.6</ele>
        <time>2015-01-01T10:43:40Z</time>
        <extensions><gpxtpx:TrackPointExtension><gpxtpx:hr>155</gpxtpx:hr></gpxtpx:TrackPointExtension></extensions>
      </trkpt>
      <trkpt lat="63.8456606213" lon="20.349584184587">
        <ele>99.4</ele>
        <time>2015-01-01T10:43:44Z</time>
        <extensions><gpxtpx:TrackPointExtension><gpxtpx:hr>158</gpxtpx:hr></gpxtpx:TrackPointExtension></extensions>
      </trkpt>
      <trkpt lat="63.845627428964" lon="20.349584603682">
        <ele>99.8</ele>
        <time>2015-01-01T10:43:46Z</time>
        <extensions><gpxtpx:TrackPointExtension><gpxtpx:hr>159</gpxtpx:hr></gpxtpx:TrackPointExtension></extensions>
      </trkpt>
      <trkpt lat="63.845585938543" lon="20.34957613796">
        <ele>100.6</ele>
        <time>2015-01-01T10:43:48Z</time>
        <extensions><gpxtpx:TrackPointExtension><gpxtpx:hr>160</gpxtpx:hr></gpxtpx:TrackPointExtension></extensions>
      </trkpt>
      <trkpt lat="63.845499772578" lon="20.349522326142">
        <ele>101.6</ele>
        <time>2015-01-01T10:43:53Z</time>
        <extensions><gpxtpx:TrackPointExtension><gpxtpx:hr>163</gpxtpx:hr></gpxtpx:TrackPointExtension></extensions>
      </trkpt>
      <trkpt lat="63.845479823649" lon="20.349511848763">
        <ele>101.6</ele>
        <time>2015-01-01T10:43:54Z</time>
        <extensions><gpxtpx:TrackPointExtension><gpxtpx:hr>163</gpxtpx:hr></gpxtpx:TrackPointExtension></extensions>
      </trkpt>
      <trkpt lat="63.845463227481" lon="20.34950078465">
        <ele>101.8</ele>
        <time>2015-01-01T10:43:55Z</time>
        <extensions><gpxtpx:TrackPointExtension><gpxtpx:hr>164</gpxtpx:hr></gpxtpx:TrackPointExtension></extensions>
      </trkpt>
      <trkpt lat="63.845315203071" lon="20.349410595372">
        <ele>102.8</ele>
        <time>2015-01-01T10:44:02Z</time>
        <extensions><gpxtpx:TrackPointExtension><gpxtpx:hr>166</gpxtpx:hr></gpxtpx:TrackPointExtension></extensions>
      </trkpt>
      <trkpt lat="63.845275975764" lon="20.349376816303">
        <ele>103.2</ele>
        <time>2015-01-01T10:44:04Z</time>
        <extensions><gpxtpx:TrackPointExtension><gpxtpx:hr>166</gpxtpx:hr></gpxtpx:TrackPointExtension></extensions>
      </trkpt>
      <trkpt lat="63.84520707652" lon="20.349186295643">
        <ele>103.4</ele>
        <time>2015-01-01T10:44:08Z</time>
        <extensions><gpxtpx:TrackPointExtension><gpxtpx:hr>166</gpxtpx:hr></gpxtpx:TrackPointExtension></extensions>
      </trkpt>
      <trkpt lat="63.845126945525" lon="20.348786395043">
        <ele>102.6</ele>
        <time>2015-01-01T10:44:12Z</time>
        <extensions><gpxtpx:TrackPointExtension><gpxtpx:hr>164</gpxtpx:hr></gpxtpx:TrackPointExtension></extensions>
      </trkpt>
      <trkpt lat="63.84510230273" lon="20.348682543263">
        <ele>102.4</ele>
        <time>2015-01-01T10:44:13Z</time>
        <extensions><gpxtpx:TrackPointExtension><gpxtpx:hr>163</gpxtpx:hr></gpxtpx:TrackPointExtension></extensions>
      </trkpt>
      <trkpt lat="63.845059638843" lon="20.34859973006">
        <ele>102</ele>
        <time>2015-01-01T10:44:14Z</time>
        <extensions><gpxtpx:TrackPointExtension><gpxtpx:hr>163</gpxtpx:hr></gpxtpx:TrackPointExtension></extensions>
      </trkpt>
      <trkpt lat="63.84502091445" lon="20.348521526903">
        <ele>101.6</ele>
        <time>2015-01-01T10:44:15Z</time>
        <extensions><gpxtpx:TrackPointExtension><gpxtpx:hr>163</gpxtpx:hr></gpxtpx:TrackPointExtension></extensions>
      </trkpt>
      <trkpt lat="63.84497246705" lon="20.348486658186">
        <ele>100.8</ele>
        <time>2015-01-01T10:44:16Z</time>
        <extensions><gpxtpx:TrackPointExtension><gpxtpx:hr>162</gpxtpx:hr></gpxtpx:TrackPointExtension></extensions>
      </trkpt>
      <trkpt lat="63.844926450402" lon="20.348447849974">
        <ele>100.4</ele>
        <time>2015-01-01T10:44:17Z</time>
        <extensions><gpxtpx:TrackPointExtension><gpxtpx:hr>161</gpxtpx:hr></gpxtpx:TrackPointExtension></extensions>
      </trkpt>
      <trkpt lat="63.8448850438" lon="20.348422788084">
        <ele>99.8</ele>
        <time>2015-01-01T10:44:18Z</time>
        <extensions><gpxtpx:TrackPointExtension><gpxtpx:hr>161</gpxtpx:hr></gpxtpx:TrackPointExtension></extensions>
      </trkpt>
      <trkpt lat="63.844843637198" lon="20.348399905488">
        <ele>99.4</ele>
        <time>2015-01-01T10:44:19Z</time>
        <extensions><gpxtpx:TrackPointExtension><gpxtpx:hr>161</gpxtpx:hr></gpxtpx:TrackPointExtension></extensions>
      </trkpt>
      <trkpt lat="63.844723859802" lon="20.348350200802">
        <ele>98.2</ele>
        <time>2015-01-01T10:44:22Z</time>
        <extensions><gpxtpx:TrackPointExtension><gpxtpx:hr>159</gpxtpx:hr></gpxtpx:TrackPointExtension></extensions>
      </trkpt>
      <trkpt lat="63.844529064372" lon="20.348233357072">
        <ele>97.6</ele>
        <time>2015-01-01T10:44:27Z</time>
        <extensions><gpxtpx:TrackPointExtension><gpxtpx:hr>156</gpxtpx:hr></gpxtpx:TrackPointExtension></extensions>
      </trkpt>
      <trkpt lat="63.844493860379" lon="20.348249534145">
        <ele>97.6</ele>
        <time>2015-01-01T10:44:28Z</time>
        <extensions><gpxtpx:TrackPointExtension><gpxtpx:hr>157</gpxtpx:hr></gpxtpx:TrackPointExtension></extensions>
      </trkpt>
      <trkpt lat="63.844378693029" lon="20.348400659859">
        <ele>97.6</ele>
        <time>2015-01-01T10:44:32Z</time>
        <extensions><gpxtpx:TrackPointExtension><gpxtpx:hr>158</gpxtpx:hr></gpxtpx:TrackPointExtension></extensions>
      </trkpt>
      <trkpt lat="63.844360169023" lon="20.348465284333">
        <ele>97.8</ele>
        <time>2015-01-01T10:44:33Z</time>
        <extensions><gpxtpx:TrackPointExtension><gpxtpx:hr>158</gpxtpx:hr></gpxtpx:TrackPointExtension></extensions>
      </trkpt>
      <trkpt lat="63.84436134249" lon="20.348520101979">
        <ele>97.8</ele>
        <time>2015-01-01T10:44:34Z</time>
        <extensions><gpxtpx:TrackPointExtension><gpxtpx:hr>159</gpxtpx:hr></gpxtpx:TrackPointExtension></extensions>
      </trkpt>
      <trkpt lat="63.844370227307" lon="20.348615823314">
        <ele>98</ele>
        <time>2015-01-01T10:44:36Z</time>
        <extensions><gpxtpx:TrackPointExtension><gpxtpx:hr>160</gpxtpx:hr></gpxtpx:TrackPointExtension></extensions>
      </trkpt>
      <trkpt lat="63.844388248399" lon="20.348739624023">
        <ele>98.2</ele>
        <time>2015-01-01T10:44:39Z</time>
        <extensions><gpxtpx:TrackPointExtension><gpxtpx:hr>163</gpxtpx:hr></gpxtpx:TrackPointExtension></extensions>
      </trkpt>
      <trkpt lat="63.844398893416" lon="20.348778683692">
        <ele>98.4</ele>
        <time>2015-01-01T10:44:40Z</time>
        <extensions><gpxtpx:TrackPointExtension><gpxtpx:hr>164</gpxtpx:hr></gpxtpx:TrackPointExtension></extensions>
      </trkpt>
      <trkpt lat="63.844416495413" lon="20.348844062537">
        <ele>98.8</ele>
        <time>2015-01-01T10:44:42Z</time>
        <extensions><gpxtpx:TrackPointExtension><gpxtpx:hr>166</gpxtpx:hr></gpxtpx:TrackPointExtension></extensions>
      </trkpt>
      <trkpt lat="63.844423033297" lon="20.34888362512">
        <ele>99</ele>
        <time>2015-01-01T10:44:43Z</time>
        <extensions><gpxtpx:TrackPointExtension><gpxtpx:hr>166</gpxtpx:hr></gpxtpx:TrackPointExtension></extensions>
      </trkpt>
      <trkpt lat="63.844425631687" lon="20.348941041157">
        <ele>99.4</ele>
        <time>2015-01-01T10:44:44Z</time>
        <extensions><gpxtpx:TrackPointExtension><gpxtpx:hr>167</gpxtpx:hr></gpxtpx:TrackPointExtension></extensions>
      </trkpt>
      <trkpt lat="63.84444013238" lon="20.349059980363">
        <ele>100</ele>
        <time>2015-01-01T10:44:47Z</time>
        <extensions><gpxtpx:TrackPointExtension><gpxtpx:hr>170</gpxtpx:hr></gpxtpx:TrackPointExtension></extensions>
      </trkpt>
      <trkpt lat="63.844442311674" lon="20.349091496319">
        <ele>100.4</ele>
        <time>2015-01-01T10:44:48Z</time>
        <extensions><gpxtpx:TrackPointExtension><gpxtpx:hr>170</gpxtpx:hr></gpxtpx:TrackPointExtension></extensions>
      </trkpt>
      <trkpt lat="63.844446083531" lon="20.349171292037">
        <ele>101</ele>
        <time>2015-01-01T10:44:50Z</time>
        <extensions><gpxtpx:TrackPointExtension><gpxtpx:hr>171</gpxtpx:hr></gpxtpx:TrackPointExtension></extensions>
      </trkpt>
      <trkpt lat="63.84445480071" lon="20.349246226251">
        <ele>101.8</ele>
        <time>2015-01-01T10:44:52Z</time>
        <extensions><gpxtpx:TrackPointExtension><gpxtpx:hr>172</gpxtpx:hr></gpxtpx:TrackPointExtension></extensions>
      </trkpt>
      <trkpt lat="63.844470558688" lon="20.349395591766">
        <ele>102.8</ele>
        <time>2015-01-01T10:44:56Z</time>
        <extensions><gpxtpx:TrackPointExtension><gpxtpx:hr>174</gpxtpx:hr></gpxtpx:TrackPointExtension></extensions>
      </trkpt>
      <trkpt lat="63.844496458769" lon="20.349519811571">
        <ele>103.2</ele>
        <time>2015-01-01T10:44:59Z</time>
        <extensions><gpxtpx:TrackPointExtension><gpxtpx:hr>174</gpxtpx:hr></gpxtpx:TrackPointExtension></extensions>
      </trkpt>
      <trkpt lat="63.844522107393" lon="20.349717121571">
        <ele>103.8</ele>
        <time>2015-01-01T10:45:03Z</time>
        <extensions><gpxtpx:TrackPointExtension><gpxtpx:hr>175</gpxtpx:hr></gpxtpx:TrackPointExtension></extensions>
      </trkpt>
      <trkpt lat="63.844537781551" lon="20.349844358861">
        <ele>104.4</ele>
        <time>2015-01-01T10:45:06Z</time>
        <extensions><gpxtpx:TrackPointExtension><gpxtpx:hr>175</gpxtpx:hr></gpxtpx:TrackPointExtension></extensions>
      </trkpt>
      <trkpt lat="63.844547085464" lon="20.349954161793">
        <ele>105</ele>
        <time>2015-01-01T10:45:09Z</time>
        <extensions><gpxtpx:TrackPointExtension><gpxtpx:hr>176</gpxtpx:hr></gpxtpx:TrackPointExtension></extensions>
      </trkpt>
      <trkpt lat="63.84454825893" lon="20.350130349398">
        <ele>106</ele>
        <time>2015-01-01T10:45:12Z</time>
        <extensions><gpxtpx:TrackPointExtension><gpxtpx:hr>176</gpxtpx:hr></gpxtpx:TrackPointExtension></extensions>
      </trkpt>
      <trkpt lat="63.844548761845" lon="20.350174689665">
        <ele>106.2</ele>
        <time>2015-01-01T10:45:13Z</time>
        <extensions><gpxtpx:TrackPointExtension><gpxtpx:hr>176</gpxtpx:hr></gpxtpx:TrackPointExtension></extensions>
      </trkpt>
      <trkpt lat="63.844537697732" lon="20.3503413219">
        <ele>107.2</ele>
        <time>2015-01-01T10:45:16Z</time>
        <extensions><gpxtpx:TrackPointExtension><gpxtpx:hr>177</gpxtpx:hr></gpxtpx:TrackPointExtension></extensions>
      </trkpt>
      <trkpt lat="63.844545157626" lon="20.350447772071">
        <ele>107.6</ele>
        <time>2015-01-01T10:45:18Z</time>
        <extensions><gpxtpx:TrackPointExtension><gpxtpx:hr>176</gpxtpx:hr></gpxtpx:TrackPointExtension></extensions>
      </trkpt>
      <trkpt lat="63.844549097121" lon="20.350812720135">
        <ele>108.2</ele>
        <time>2015-01-01T10:45:24Z</time>
        <extensions><gpxtpx:TrackPointExtension><gpxtpx:hr>177</gpxtpx:hr></gpxtpx:TrackPointExtension></extensions>
      </trkpt>
      <trkpt lat="63.844559658319" lon="20.350908190012">
        <ele>108.4</ele>
        <time>2015-01-01T10:45:26Z</time>
        <extensions><gpxtpx:TrackPointExtension><gpxtpx:hr>177</gpxtpx:hr></gpxtpx:TrackPointExtension></extensions>
      </trkpt>
      <trkpt lat="63.84459075518" lon="20.351068619639">
        <ele>108.4</ele>
        <time>2015-01-01T10:45:29Z</time>
        <extensions><gpxtpx:TrackPointExtension><gpxtpx:hr>176</gpxtpx:hr></gpxtpx:TrackPointExtension></extensions>
      </trkpt>
      <trkpt lat="63.84464347735" lon="20.351340025663">
        <ele>108.8</ele>
        <time>2015-01-01T10:45:34Z</time>
        <extensions><gpxtpx:TrackPointExtension><gpxtpx:hr>175</gpxtpx:hr></gpxtpx:TrackPointExtension></extensions>
      </trkpt>
      <trkpt lat="63.844636688009" lon="20.351459551603">
        <ele>109</ele>
        <time>2015-01-01T10:45:36Z</time>
        <extensions><gpxtpx:TrackPointExtension><gpxtpx:hr>174</gpxtpx:hr></gpxtpx:TrackPointExtension></extensions>
      </trkpt>
      <trkpt lat="63.844613553956" lon="20.351593745872">
        <ele>109.4</ele>
        <time>2015-01-01T10:45:38Z</time>
        <extensions><gpxtpx:TrackPointExtension><gpxtpx:hr>174</gpxtpx:hr></gpxtpx:TrackPointExtension></extensions>
      </trkpt>
      <trkpt lat="63.844487573951" lon="20.351850399747">
        <ele>109.2</ele>
        <time>2015-01-01T10:45:42Z</time>
        <extensions><gpxtpx:TrackPointExtension><gpxtpx:hr>174</gpxtpx:hr></gpxtpx:TrackPointExtension></extensions>
      </trkpt>
      <trkpt lat="63.844449855387" lon="20.351890465245">
        <ele>109.2</ele>
        <time>2015-01-01T10:45:43Z</time>
        <extensions><gpxtpx:TrackPointExtension><gpxtpx:hr>173</gpxtpx:hr></gpxtpx:TrackPointExtension></extensions>
      </trkpt>
      <trkpt lat="63.844403084368" lon="20.351911503822">
        <ele>108.8</ele>
        <time>2015-01-01T10:45:44Z</time>
        <extensions><gpxtpx:TrackPointExtension><gpxtpx:hr>173</gpxtpx:hr></gpxtpx:TrackPointExtension></extensions>
      </trkpt>
      <trkpt lat="63.844313062727" lon="20.351942097768">
        <ele>108.2</ele>
        <time>2015-01-01T10:45:46Z</time>
        <extensions><gpxtpx:TrackPointExtension><gpxtpx:hr>172</gpxtpx:hr></gpxtpx:TrackPointExtension></extensions>
      </trkpt>
      <trkpt lat="63.84422538802" lon="20.351944360882">
        <ele>107.6</ele>
        <time>2015-01-01T10:45:48Z</time>
        <extensions><gpxtpx:TrackPointExtension><gpxtpx:hr>170</gpxtpx:hr></gpxtpx:TrackPointExtension></extensions>
      </trkpt>
      <trkpt lat="63.844131678343" lon="20.351914102212">
        <ele>107</ele>
        <time>2015-01-01T10:45:50Z</time>
        <extensions><gpxtpx:TrackPointExtension><gpxtpx:hr>169</gpxtpx:hr></gpxtpx:TrackPointExtension></extensions>
      </trkpt>
      <trkpt lat="63.843940403312" lon="20.351855512708">
        <ele>106</ele>
        <time>2015-01-01T10:45:55Z</time>
        <extensions><gpxtpx:TrackPointExtension><gpxtpx:hr>167</gpxtpx:hr></gpxtpx:TrackPointExtension></extensions>
      </trkpt>
      <trkpt lat="63.843852560967" lon="20.351807316765">
        <ele>106.2</ele>
        <time>2015-01-01T10:45:58Z</time>
        <extensions><gpxtpx:TrackPointExtension><gpxtpx:hr>168</gpxtpx:hr></gpxtpx:TrackPointExtension></extensions>
      </trkpt>
      <trkpt lat="63.843824900687" lon="20.35177831538">
        <ele>106.2</ele>
        <time>2015-01-01T10:45:59Z</time>
        <extensions><gpxtpx:TrackPointExtension><gpxtpx:hr>167</gpxtpx:hr></gpxtpx:TrackPointExtension></extensions>
      </trkpt>
      <trkpt lat="63.843652233481" lon="20.351455779746">
        <ele>106.2</ele>
        <time>2015-01-01T10:46:05Z</time>
        <extensions><gpxtpx:TrackPointExtension><gpxtpx:hr>168</gpxtpx:hr></gpxtpx:TrackPointExtension></extensions>
      </trkpt>
      <trkpt lat="63.843503370881" lon="20.351274646819">
        <ele>106.4</ele>
        <time>2015-01-01T10:46:10Z</time>
        <extensions><gpxtpx:TrackPointExtension><gpxtpx:hr>167</gpxtpx:hr></gpxtpx:TrackPointExtension></extensions>
      </trkpt>
      <trkpt lat="63.843266582116" lon="20.351186636835">
        <ele>106.4</ele>
        <time>2015-01-01T10:46:17Z</time>
        <extensions><gpxtpx:TrackPointExtension><gpxtpx:hr>167</gpxtpx:hr></gpxtpx:TrackPointExtension></extensions>
      </trkpt>
      <trkpt lat="63.843119479716" lon="20.351212034002">
        <ele>106.2</ele>
        <time>2015-01-01T10:46:21Z</time>
        <extensions><gpxtpx:TrackPointExtension><gpxtpx:hr>167</gpxtpx:hr></gpxtpx:TrackPointExtension></extensions>
      </trkpt>
      <trkpt lat="63.843064829707" lon="20.351200634614">
        <ele>106.2</ele>
        <time>2015-01-01T10:46:22Z</time>
        <extensions><gpxtpx:TrackPointExtension><gpxtpx:hr>167</gpxtpx:hr></gpxtpx:TrackPointExtension></extensions>
      </trkpt>
      <trkpt lat="63.843024428934" lon="20.351190660149">
        <ele>106</ele>
        <time>2015-01-01T10:46:23Z</time>
        <extensions><gpxtpx:TrackPointExtension><gpxtpx:hr>167</gpxtpx:hr></gpxtpx:TrackPointExtension></extensions>
      </trkpt>
      <trkpt lat="63.84293650277" lon="20.351171297953">
        <ele>105.6</ele>
        <time>2015-01-01T10:46:25Z</time>
        <extensions><gpxtpx:TrackPointExtension><gpxtpx:hr>167</gpxtpx:hr></gpxtpx:TrackPointExtension></extensions>
      </trkpt>
      <trkpt lat="63.842748748139" lon="20.351129053161">
        <ele>105.2</ele>
        <time>2015-01-01T10:46:30Z</time>
        <extensions><gpxtpx:TrackPointExtension><gpxtpx:hr>166</gpxtpx:hr></gpxtpx:TrackPointExtension></extensions>
      </trkpt>
      <trkpt lat="63.842594353482" lon="20.351073397323">
        <ele>105.2</ele>
        <time>2015-01-01T10:46:34Z</time>
        <extensions><gpxtpx:TrackPointExtension><gpxtpx:hr>165</gpxtpx:hr></gpxtpx:TrackPointExtension></extensions>
      </trkpt>
      <trkpt lat="63.8425270468" lon="20.351043641567">
        <ele>105.2</ele>
        <time>2015-01-01T10:46:36Z</time>
        <extensions><gpxtpx:TrackPointExtension><gpxtpx:hr>165</gpxtpx:hr></gpxtpx:TrackPointExtension></extensions>
      </trkpt>
      <trkpt lat="63.842304591089" lon="20.350960660726">
        <ele>105</ele>
        <time>2015-01-01T10:46:42Z</time>
        <extensions><gpxtpx:TrackPointExtension><gpxtpx:hr>164</gpxtpx:hr></gpxtpx:TrackPointExtension></extensions>
      </trkpt>
      <trkpt lat="63.842097977176" lon="20.350835183635">
        <ele>104.8</ele>
        <time>2015-01-01T10:46:48Z</time>
        <extensions><gpxtpx:TrackPointExtension><gpxtpx:hr>163</gpxtpx:hr></gpxtpx:TrackPointExtension></extensions>
      </trkpt>
      <trkpt lat="63.841992281377" lon="20.350613901392">
        <ele>104.6</ele>
        <time>2015-01-01T10:46:52Z</time>
        <extensions><gpxtpx:TrackPointExtension><gpxtpx:hr>162</gpxtpx:hr></gpxtpx:TrackPointExtension></extensions>
      </trkpt>
      <trkpt lat="63.841969314963" lon="20.350526310503">
        <ele>104.6</ele>
        <time>2015-01-01T10:46:53Z</time>
        <extensions><gpxtpx:TrackPointExtension><gpxtpx:hr>162</gpxtpx:hr></gpxtpx:TrackPointExtension></extensions>
      </trkpt>
      <trkpt lat="63.841979792342" lon="20.350454645231">
        <ele>104.4</ele>
        <time>2015-01-01T10:46:54Z</time>
        <extensions><gpxtpx:TrackPointExtension><gpxtpx:hr>162</gpxtpx:hr></gpxtpx:TrackPointExtension></extensions>
      </trkpt>
      <trkpt lat="63.841995382681" lon="20.350283319131">
        <ele>104.2</ele>
        <time>2015-01-01T10:46:56Z</time>
        <extensions><gpxtpx:TrackPointExtension><gpxtpx:hr>161</gpxtpx:hr></gpxtpx:TrackPointExtension></extensions>
      </trkpt>
      <trkpt lat="63.842023126781" lon="20.349962795153">
        <ele>104</ele>
        <time>2015-01-01T10:46:59Z</time>
        <extensions><gpxtpx:TrackPointExtension><gpxtpx:hr>160</gpxtpx:hr></gpxtpx:TrackPointExtension></extensions>
      </trkpt>
      <trkpt lat="63.842080291361" lon="20.349485445768">
        <ele>103</ele>
        <time>2015-01-01T10:47:03Z</time>
        <extensions><gpxtpx:TrackPointExtension><gpxtpx:hr>158</gpxtpx:hr></gpxtpx:TrackPointExtension></extensions>
      </trkpt>
      <trkpt lat="63.842090936378" lon="20.349370529875">
        <ele>102.6</ele>
        <time>2015-01-01T10:47:04Z</time>
        <extensions><gpxtpx:TrackPointExtension><gpxtpx:hr>157</gpxtpx:hr></gpxtpx:TrackPointExtension></extensions>
      </trkpt>
      <trkpt lat="63.842094959691" lon="20.349133154377">
        <ele>101.8</ele>
        <time>2015-01-01T10:47:06Z</time>
        <extensions><gpxtpx:TrackPointExtension><gpxtpx:hr>156</gpxtpx:hr></gpxtpx:TrackPointExtension></extensions>
      </trkpt>
      <trkpt lat="63.842091690749" lon="20.349015891552">
        <ele>101.2</ele>
        <time>2015-01-01T10:47:07Z</time>
        <extensions><gpxtpx:TrackPointExtension><gpxtpx:hr>155</gpxtpx:hr></gpxtpx:TrackPointExtension></extensions>
      </trkpt>
      <trkpt lat="63.842074088752" lon="20.348887732252">
        <ele>100.4</ele>
        <time>2015-01-01T10:47:08Z</time>
        <extensions><gpxtpx:TrackPointExtension><gpxtpx:hr>154</gpxtpx:hr></gpxtpx:TrackPointExtension></extensions>
      </trkpt>
      <trkpt lat="63.84206126444" lon="20.348755298182">
        <ele>100</ele>
        <time>2015-01-01T10:47:09Z</time>
        <extensions><gpxtpx:TrackPointExtension><gpxtpx:hr>153</gpxtpx:hr></gpxtpx:TrackPointExtension></extensions>
      </trkpt>
      <trkpt lat="63.84203444235" lon="20.348379286006">
        <ele>98.2</ele>
        <time>2015-01-01T10:47:12Z</time>
        <extensions><gpxtpx:TrackPointExtension><gpxtpx:hr>152</gpxtpx:hr></gpxtpx:TrackPointExtension></extensions>
      </trkpt>
      <trkpt lat="63.842042572796" lon="20.348176946864">
        <ele>97.6</ele>
        <time>2015-01-01T10:47:14Z</time>
        <extensions><gpxtpx:TrackPointExtension><gpxtpx:hr>151</gpxtpx:hr></gpxtpx:TrackPointExtension></extensions>
      </trkpt>
      <trkpt lat="63.84205958806" lon="20.347990114242">
        <ele>97.2</ele>
        <time>2015-01-01T10:47:16Z</time>
        <extensions><gpxtpx:TrackPointExtension><gpxtpx:hr>151</gpxtpx:hr></gpxtpx:TrackPointExtension></extensions>
      </trkpt>
      <trkpt lat="63.842076603323" lon="20.347633715719">
        <ele>97.6</ele>
        <time>2015-01-01T10:47:20Z</time>
        <extensions><gpxtpx:TrackPointExtension><gpxtpx:hr>153</gpxtpx:hr></gpxtpx:TrackPointExtension></extensions>
      </trkpt>
      <trkpt lat="63.842071741819" lon="20.347466245294">
        <ele>98</ele>
        <time>2015-01-01T10:47:22Z</time>
        <extensions><gpxtpx:TrackPointExtension><gpxtpx:hr>154</gpxtpx:hr></gpxtpx:TrackPointExtension></extensions>
      </trkpt>
      <trkpt lat="63.842030670494" lon="20.34717480652">
        <ele>98.6</ele>
        <time>2015-01-01T10:47:26Z</time>
        <extensions><gpxtpx:TrackPointExtension><gpxtpx:hr>156</gpxtpx:hr></gpxtpx:TrackPointExtension></extensions>
      </trkpt>
      <trkpt lat="63.842003680766" lon="20.34701731056">
        <ele>98.8</ele>
        <time>2015-01-01T10:47:28Z</time>
        <extensions><gpxtpx:TrackPointExtension><gpxtpx:hr>156</gpxtpx:hr></gpxtpx:TrackPointExtension></extensions>
      </trkpt>
      <trkpt lat="63.841901086271" lon="20.346490424126">
        <ele>98.4</ele>
        <time>2015-01-01T10:47:34Z</time>
        <extensions><gpxtpx:TrackPointExtension><gpxtpx:hr>156</gpxtpx:hr></gpxtpx:TrackPointExtension></extensions>
      </trkpt>
      <trkpt lat="63.841872923076" lon="20.346395708621">
        <ele>98.4</ele>
        <time>2015-01-01T10:47:35Z</time>
        <extensions><gpxtpx:TrackPointExtension><gpxtpx:hr>156</gpxtpx:hr></gpxtpx:TrackPointExtension></extensions>
      </trkpt>
      <trkpt lat="63.841744763777" lon="20.346026737243">
        <ele>97.8</ele>
        <time>2015-01-01T10:47:40Z</time>
        <extensions><gpxtpx:TrackPointExtension><gpxtpx:hr>154</gpxtpx:hr></gpxtpx:TrackPointExtension></extensions>
      </trkpt>
      <trkpt lat="63.841679384932" lon="20.345919951797">
        <ele>97.4</ele>
        <time>2015-01-01T10:47:42Z</time>
        <extensions><gpxtpx:TrackPointExtension><gpxtpx:hr>153</gpxtpx:hr></gpxtpx:TrackPointExtension></extensions>
      </trkpt>
      <trkpt lat="63.841506885365" lon="20.345742339268">
        <ele>96.8</ele>
        <time>2015-01-01T10:47:46Z</time>
        <extensions><gpxtpx:TrackPointExtension><gpxtpx:hr>152</gpxtpx:hr></gpxtpx:TrackPointExtension></extensions>
      </trkpt>
      <trkpt lat="63.841420384124" lon="20.345724569634">
        <ele>96.6</ele>
        <time>2015-01-01T10:47:48Z</time>
        <extensions><gpxtpx:TrackPointExtension><gpxtpx:hr>152</gpxtpx:hr></gpxtpx:TrackPointExtension></extensions>
      </trkpt>
      <trkpt lat="63.84133673273" lon="20.34576212056">
        <ele>96.2</ele>
        <time>2015-01-01T10:47:50Z</time>
        <extensions><gpxtpx:TrackPointExtension><gpxtpx:hr>153</gpxtpx:hr></gpxtpx:TrackPointExtension></extensions>
      </trkpt>
      <trkpt lat="63.841298511252" lon="20.345797324553">
        <ele>96</ele>
        <time>2015-01-01T10:47:51Z</time>
        <extensions><gpxtpx:TrackPointExtension><gpxtpx:hr>153</gpxtpx:hr></gpxtpx:TrackPointExtension></extensions>
      </trkpt>
      <trkpt lat="63.841183176264" lon="20.34598801285">
        <ele>96</ele>
        <time>2015-01-01T10:47:55Z</time>
        <extensions><gpxtpx:TrackPointExtension><gpxtpx:hr>154</gpxtpx:hr></gpxtpx:TrackPointExtension></extensions>
      </trkpt>
      <trkpt lat="63.841101955622" lon="20.346165290102">
        <ele>96.2</ele>
        <time>2015-01-01T10:47:59Z</time>
        <extensions><gpxtpx:TrackPointExtension><gpxtpx:hr>156</gpxtpx:hr></gpxtpx:TrackPointExtension></extensions>
      </trkpt>
      <trkpt lat="63.841043533757" lon="20.346507355571">
        <ele>97.4</ele>
        <time>2015-01-01T10:48:05Z</time>
        <extensions><gpxtpx:TrackPointExtension><gpxtpx:hr>158</gpxtpx:hr></gpxtpx:TrackPointExtension></extensions>
      </trkpt>
      <trkpt lat="63.841034565121" lon="20.346579523757">
        <ele>97.6</ele>
        <time>2015-01-01T10:48:06Z</time>
        <extensions><gpxtpx:TrackPointExtension><gpxtpx:hr>160</gpxtpx:hr></gpxtpx:TrackPointExtension></extensions>
      </trkpt>
      <trkpt lat="63.841016208753" lon="20.346711203456">
        <ele>97.8</ele>
        <time>2015-01-01T10:48:08Z</time>
        <extensions><gpxtpx:TrackPointExtension><gpxtpx:hr>160</gpxtpx:hr></gpxtpx:TrackPointExtension></extensions>
      </trkpt>
      <trkpt lat="63.840967928991" lon="20.346808852628">
        <ele>98</ele>
        <time>2015-01-01T10:48:10Z</time>
        <extensions><gpxtpx:TrackPointExtension><gpxtpx:hr>161</gpxtpx:hr></gpxtpx:TrackPointExtension></extensions>
      </trkpt>
      <trkpt lat="63.840907327831" lon="20.346875069663">
        <ele>98.4</ele>
        <time>2015-01-01T10:48:12Z</time>
        <extensions><gpxtpx:TrackPointExtension><gpxtpx:hr>162</gpxtpx:hr></gpxtpx:TrackPointExtension></extensions>
      </trkpt>
      <trkpt lat="63.840747987852" lon="20.346956290305">
        <ele>98.8</ele>
        <time>2015-01-01T10:48:16Z</time>
        <extensions><gpxtpx:TrackPointExtension><gpxtpx:hr>163</gpxtpx:hr></gpxtpx:TrackPointExtension></extensions>
      </trkpt>
      <trkpt lat="63.840600550175" lon="20.346902729943">
        <ele>98.8</ele>
        <time>2015-01-01T10:48:20Z</time>
        <extensions><gpxtpx:TrackPointExtension><gpxtpx:hr>164</gpxtpx:hr></gpxtpx:TrackPointExtension></extensions>
      </trkpt>
      <trkpt lat="63.840445317328" lon="20.346677424386">
        <ele>98</ele>
        <time>2015-01-01T10:48:25Z</time>
        <extensions><gpxtpx:TrackPointExtension><gpxtpx:hr>164</gpxtpx:hr></gpxtpx:TrackPointExtension></extensions>
      </trkpt>
      <trkpt lat="63.840299639851" lon="20.346367880702">
        <ele>97.8</ele>
        <time>2015-01-01T10:48:30Z</time>
        <extensions><gpxtpx:TrackPointExtension><gpxtpx:hr>164</gpxtpx:hr></gpxtpx:TrackPointExtension></extensions>
      </trkpt>
      <trkpt lat="63.840237949044" lon="20.346245840192">
        <ele>97.4</ele>
        <time>2015-01-01T10:48:32Z</time>
        <extensions><gpxtpx:TrackPointExtension><gpxtpx:hr>164</gpxtpx:hr></gpxtpx:TrackPointExtension></extensions>
      </trkpt>
      <trkpt lat="63.840159662068" lon="20.346095301211">
        <ele>97.4</ele>
        <time>2015-01-01T10:48:34Z</time>
        <extensions><gpxtpx:TrackPointExtension><gpxtpx:hr>164</gpxtpx:hr></gpxtpx:TrackPointExtension></extensions>
      </trkpt>
      <trkpt lat="63.840121440589" lon="20.346026569605">
        <ele>97.2</ele>
        <time>2015-01-01T10:48:35Z</time>
        <extensions><gpxtpx:TrackPointExtension><gpxtpx:hr>163</gpxtpx:hr></gpxtpx:TrackPointExtension></extensions>
      </trkpt>
      <trkpt lat="63.840078609064" lon="20.345965968445">
        <ele>97.2</ele>
        <time>2015-01-01T10:48:36Z</time>
        <extensions><gpxtpx:TrackPointExtension><gpxtpx:hr>163</gpxtpx:hr></gpxtpx:TrackPointExtension></extensions>
      </trkpt>
      <trkpt lat="63.839887836948" lon="20.345762455836">
        <ele>96.4</ele>
        <time>2015-01-01T10:48:40Z</time>
        <extensions><gpxtpx:TrackPointExtension><gpxtpx:hr>161</gpxtpx:hr></gpxtpx:TrackPointExtension></extensions>
      </trkpt>
      <trkpt lat="63.839795216918" lon="20.345746781677">
        <ele>95.4</ele>
        <time>2015-01-01T10:48:42Z</time>
        <extensions><gpxtpx:TrackPointExtension><gpxtpx:hr>159</gpxtpx:hr></gpxtpx:TrackPointExtension></extensions>
      </trkpt>
      <trkpt lat="63.839751966298" lon="20.345751559362">
        <ele>95</ele>
        <time>2015-01-01T10:48:43Z</time>
        <extensions><gpxtpx:TrackPointExtension><gpxtpx:hr>159</gpxtpx:hr></gpxtpx:TrackPointExtension></extensions>
      </trkpt>
      <trkpt lat="63.839712906629" lon="20.34578550607">
        <ele>94.4</ele>
        <time>2015-01-01T10:48:44Z</time>
        <extensions><gpxtpx:TrackPointExtension><gpxtpx:hr>158</gpxtpx:hr></gpxtpx:TrackPointExtension></extensions>
      </trkpt>
      <trkpt lat="63.839672589675" lon="20.345818949863">
        <ele>94</ele>
        <time>2015-01-01T10:48:45Z</time>
        <extensions><gpxtpx:TrackPointExtension><gpxtpx:hr>159</gpxtpx:hr></gpxtpx:TrackPointExtension></extensions>
      </trkpt>
      <trkpt lat="63.83946605958" lon="20.34604174085">
        <ele>94.4</ele>
        <time>2015-01-01T10:48:51Z</time>
        <extensions><gpxtpx:TrackPointExtension><gpxtpx:hr>160</gpxtpx:hr></gpxtpx:TrackPointExtension></extensions>
      </trkpt>
      <trkpt lat="63.839370086789" lon="20.3463040106">
        <ele>94.6</ele>
        <time>2015-01-01T10:48:56Z</time>
        <extensions><gpxtpx:TrackPointExtension><gpxtpx:hr>161</gpxtpx:hr></gpxtpx:TrackPointExtension></extensions>
      </trkpt>
      <trkpt lat="63.839303785935" lon="20.346560496837">
        <ele>95</ele>
        <time>2015-01-01T10:49:01Z</time>
        <extensions><gpxtpx:TrackPointExtension><gpxtpx:hr>163</gpxtpx:hr></gpxtpx:TrackPointExtension></extensions>
      </trkpt>
      <trkpt lat="63.839270593598" lon="20.346661750227">
        <ele>95.2</ele>
        <time>2015-01-01T10:49:03Z</time>
        <extensions><gpxtpx:TrackPointExtension><gpxtpx:hr>163</gpxtpx:hr></gpxtpx:TrackPointExtension></extensions>
      </trkpt>
      <trkpt lat="63.839187277481" lon="20.346817485988">
        <ele>95.8</ele>
        <time>2015-01-01T10:49:07Z</time>
        <extensions><gpxtpx:TrackPointExtension><gpxtpx:hr>164</gpxtpx:hr></gpxtpx:TrackPointExtension></extensions>
      </trkpt>
      <trkpt lat="63.839135728776" lon="20.346844978631">
        <ele>96.2</ele>
        <time>2015-01-01T10:49:09Z</time>
        <extensions><gpxtpx:TrackPointExtension><gpxtpx:hr>164</gpxtpx:hr></gpxtpx:TrackPointExtension></extensions>
      </trkpt>
      <trkpt lat="63.839085102081" lon="20.346833076328">
        <ele>96.2</ele>
        <time>2015-01-01T10:49:11Z</time>
        <extensions><gpxtpx:TrackPointExtension><gpxtpx:hr>164</gpxtpx:hr></gpxtpx:TrackPointExtension></extensions>
      </trkpt>
      <trkpt lat="63.838979071006" lon="20.346836596727">
        <ele>96.2</ele>
        <time>2015-01-01T10:49:14Z</time>
        <extensions><gpxtpx:TrackPointExtension><gpxtpx:hr>164</gpxtpx:hr></gpxtpx:TrackPointExtension></extensions>
      </trkpt>
      <trkpt lat="63.838805565611" lon="20.346768787131">
        <ele>96.2</ele>
        <time>2015-01-01T10:49:19Z</time>
        <extensions><gpxtpx:TrackPointExtension><gpxtpx:hr>164</gpxtpx:hr></gpxtpx:TrackPointExtension></extensions>
      </trkpt>
      <trkpt lat="63.838637843728" lon="20.346536273137">
        <ele>96</ele>
        <time>2015-01-01T10:49:25Z</time>
        <extensions><gpxtpx:TrackPointExtension><gpxtpx:hr>163</gpxtpx:hr></gpxtpx:TrackPointExtension></extensions>
      </trkpt>
      <trkpt lat="63.838639268652" lon="20.346383387223">
        <ele>96</ele>
        <time>2015-01-01T10:49:27Z</time>
        <extensions><gpxtpx:TrackPointExtension><gpxtpx:hr>162</gpxtpx:hr></gpxtpx:TrackPointExtension></extensions>
      </trkpt>
      <trkpt lat="63.838652679697" lon="20.346188340336">
        <ele>95.8</ele>
        <time>2015-01-01T10:49:29Z</time>
        <extensions><gpxtpx:TrackPointExtension><gpxtpx:hr>162</gpxtpx:hr></gpxtpx:TrackPointExtension></extensions>
      </trkpt>
      <trkpt lat="63.838661564514" lon="20.346083818004">
        <ele>95.8</ele>
        <time>2015-01-01T10:49:30Z</time>
        <extensions><gpxtpx:TrackPointExtension><gpxtpx:hr>162</gpxtpx:hr></gpxtpx:TrackPointExtension></extensions>
      </trkpt>
      <trkpt lat="63.838679669425" lon="20.345740830526">
        <ele>94.8</ele>
        <time>2015-01-01T10:49:33Z</time>
        <extensions><gpxtpx:TrackPointExtension><gpxtpx:hr>161</gpxtpx:hr></gpxtpx:TrackPointExtension></extensions>
      </trkpt>
      <trkpt lat="63.838696349412" lon="20.345488870516">
        <ele>93.2</ele>
        <time>2015-01-01T10:49:35Z</time>
        <extensions><gpxtpx:TrackPointExtension><gpxtpx:hr>160</gpxtpx:hr></gpxtpx:TrackPointExtension></extensions>
      </trkpt>
      <trkpt lat="63.838718309999" lon="20.345203047618">
        <ele>92</ele>
        <time>2015-01-01T10:49:37Z</time>
        <extensions><gpxtpx:TrackPointExtension><gpxtpx:hr>159</gpxtpx:hr></gpxtpx:TrackPointExtension></extensions>
      </trkpt>
      <trkpt lat="63.838736582547" lon="20.344836171716">
        <ele>90.8</ele>
        <time>2015-01-01T10:49:40Z</time>
        <extensions><gpxtpx:TrackPointExtension><gpxtpx:hr>156</gpxtpx:hr></gpxtpx:TrackPointExtension></extensions>
      </trkpt>
      <trkpt lat="63.838759046048" lon="20.344406012446">
        <ele>89.8</ele>
        <time>2015-01-01T10:49:44Z</time>
        <extensions><gpxtpx:TrackPointExtension><gpxtpx:hr>154</gpxtpx:hr></gpxtpx:TrackPointExtension></extensions>
      </trkpt>
      <trkpt lat="63.838791148737" lon="20.343912485987">
        <ele>89.2</ele>
        <time>2015-01-01T10:49:49Z</time>
        <extensions><gpxtpx:TrackPointExtension><gpxtpx:hr>151</gpxtpx:hr></gpxtpx:TrackPointExtension></extensions>
      </trkpt>
      <trkpt lat="63.838804056868" lon="20.343749290332">
        <ele>89</ele>
        <time>2015-01-01T10:49:51Z</time>
        <extensions><gpxtpx:TrackPointExtension><gpxtpx:hr>150</gpxtpx:hr></gpxtpx:TrackPointExtension></extensions>
      </trkpt>
      <trkpt lat="63.838820653036" lon="20.343536138535">
        <ele>88.6</ele>
        <time>2015-01-01T10:49:54Z</time>
        <extensions><gpxtpx:TrackPointExtension><gpxtpx:hr>149</gpxtpx:hr></gpxtpx:TrackPointExtension></extensions>
      </trkpt>
      <trkpt lat="63.838843284175" lon="20.343225505203">
        <ele>88.6</ele>
        <time>2015-01-01T10:49:59Z</time>
        <extensions><gpxtpx:TrackPointExtension><gpxtpx:hr>150</gpxtpx:hr></gpxtpx:TrackPointExtension></extensions>
      </trkpt>
      <trkpt lat="63.844216922298" lon="20.351953832433">
        <ele>108.8</ele>
        <time>2015-01-01T10:59:48Z</time>
        <extensions><gpxtpx:TrackPointExtension><gpxtpx:hr>173</gpxtpx:hr></gpxtpx:TrackPointExtension></extensions>
      </trkpt>
      <trkpt lat="63.844198230654" lon="20.35194628872">
        <ele>108.6</ele>
        <time>2015-01-01T10:59:49Z</time>
        <extensions><gpxtpx:TrackPointExtension><gpxtpx:hr>172</gpxtpx:hr></gpxtpx:TrackPointExtension></extensions>
      </trkpt>
      <trkpt lat="63.844007542357" lon="20.351880071685">
        <ele>108</ele>
        <time>2015-01-01T10:59:54Z</time>
        <extensions><gpxtpx:TrackPointExtension><gpxtpx:hr>171</gpxtpx:hr></gpxtpx:TrackPointExtension></extensions>
      </trkpt>
      <trkpt lat="63.843921879306" lon="20.351857859641">
        <ele>107.8</ele>
        <time>2015-01-01T10:59:56Z</time>
        <extensions><gpxtpx:TrackPointExtension><gpxtpx:hr>170</gpxtpx:hr></gpxtpx:TrackPointExtension></extensions>
      </trkpt>
      <trkpt lat="63.843792295083" lon="20.351792480797">
        <ele>108</ele>
        <time>2015-01-01T11:00:00Z</time>
        <extensions><gpxtpx:TrackPointExtension><gpxtpx:hr>170</gpxtpx:hr></gpxtpx:TrackPointExtension></extensions>
      </trkpt>
      <trkpt lat="63.843684000894" lon="20.351574802771">
        <ele>107.8</ele>
        <time>2015-01-01T11:00:04Z</time>
        <extensions><gpxtpx:TrackPointExtension><gpxtpx:hr>169</gpxtpx:hr></gpxtpx:TrackPointExtension></extensions>
      </trkpt>
      <trkpt lat="63.843535222113" lon="20.351349245757">
        <ele>107.4</ele>
        <time>2015-01-01T11:00:09Z</time>
        <extensions><gpxtpx:TrackPointExtension><gpxtpx:hr>168</gpxtpx:hr></gpxtpx:TrackPointExtension></extensions>
      </trkpt>
      <trkpt lat="63.843320058659" lon="20.351224187762">
        <ele>107.6</ele>
        <time>2015-01-01T11:00:15Z</time>
        <extensions><gpxtpx:TrackPointExtension><gpxtpx:hr>167</gpxtpx:hr></gpxtpx:TrackPointExtension></extensions>
      </trkpt>
      <trkpt lat="63.843085281551" lon="20.351220164448">
        <ele>107</ele>
        <time>2015-01-01T11:00:21Z</time>
        <extensions><gpxtpx:TrackPointExtension><gpxtpx:hr>167</gpxtpx:hr></gpxtpx:TrackPointExtension></extensions>
      </trkpt>
      <trkpt lat="63.842932898551" lon="20.351222176105">
        <ele>106.6</ele>
        <time>2015-01-01T11:00:25Z</time>
        <extensions><gpxtpx:TrackPointExtension><gpxtpx:hr>166</gpxtpx:hr></gpxtpx:TrackPointExtension></extensions>
      </trkpt>
      <trkpt lat="63.842854779214" lon="20.351206418127">
        <ele>106.6</ele>
        <time>2015-01-01T11:00:27Z</time>
        <extensions><gpxtpx:TrackPointExtension><gpxtpx:hr>167</gpxtpx:hr></gpxtpx:TrackPointExtension></extensions>
      </trkpt>
      <trkpt lat="63.842773810029" lon="20.351184960455">
        <ele>106.4</ele>
        <time>2015-01-01T11:00:29Z</time>
        <extensions><gpxtpx:TrackPointExtension><gpxtpx:hr>166</gpxtpx:hr></gpxtpx:TrackPointExtension></extensions>
      </trkpt>
      <trkpt lat="63.842527298257" lon="20.351083623245">
        <ele>106.2</ele>
        <time>2015-01-01T11:00:35Z</time>
        <extensions><gpxtpx:TrackPointExtension><gpxtpx:hr>166</gpxtpx:hr></gpxtpx:TrackPointExtension></extensions>
      </trkpt>
      <trkpt lat="63.842261424288" lon="20.35097071901">
        <ele>105.8</ele>
        <time>2015-01-01T11:00:42Z</time>
        <extensions><gpxtpx:TrackPointExtension><gpxtpx:hr>165</gpxtpx:hr></gpxtpx:TrackPointExtension></extensions>
      </trkpt>
      <trkpt lat="63.842091271654" lon="20.350877679884">
        <ele>106.2</ele>
        <time>2015-01-01T11:00:47Z</time>
        <extensions><gpxtpx:TrackPointExtension><gpxtpx:hr>164</gpxtpx:hr></gpxtpx:TrackPointExtension></extensions>
      </trkpt>
      <trkpt lat="63.841950958595" lon="20.35064776428">
        <ele>106.4</ele>
        <time>2015-01-01T11:00:52Z</time>
        <extensions><gpxtpx:TrackPointExtension><gpxtpx:hr>163</gpxtpx:hr></gpxtpx:TrackPointExtension></extensions>
      </trkpt>
      <trkpt lat="63.841946851462" lon="20.350399240851">
        <ele>105.8</ele>
        <time>2015-01-01T11:00:55Z</time>
        <extensions><gpxtpx:TrackPointExtension><gpxtpx:hr>161</gpxtpx:hr></gpxtpx:TrackPointExtension></extensions>
      </trkpt>
      <trkpt lat="63.841951796785" lon="20.35032489337">
        <ele>105.8</ele>
        <time>2015-01-01T11:00:56Z</time>
        <extensions><gpxtpx:TrackPointExtension><gpxtpx:hr>160</gpxtpx:hr></gpxtpx:TrackPointExtension></extensions>
      </trkpt>
      <trkpt lat="63.841961938888" lon="20.350245935842">
        <ele>105.6</ele>
        <time>2015-01-01T11:00:57Z</time>
        <extensions><gpxtpx:TrackPointExtension><gpxtpx:hr>159</gpxtpx:hr></gpxtpx:TrackPointExtension></extensions>
      </trkpt>
      <trkpt lat="63.841987168416" lon="20.349956508726">
        <ele>105</ele>
        <time>2015-01-01T11:01:00Z</time>
        <extensions><gpxtpx:TrackPointExtension><gpxtpx:hr>156</gpxtpx:hr></gpxtpx:TrackPointExtension></extensions>
      </trkpt>
      <trkpt lat="63.842005189508" lon="20.349842011929">
        <ele>104.4</ele>
        <time>2015-01-01T11:01:01Z</time>
        <extensions><gpxtpx:TrackPointExtension><gpxtpx:hr>155</gpxtpx:hr></gpxtpx:TrackPointExtension></extensions>
      </trkpt>
      <trkpt lat="63.842018181458" lon="20.349740004167">
        <ele>104.2</ele>
        <time>2015-01-01T11:01:02Z</time>
        <extensions><gpxtpx:TrackPointExtension><gpxtpx:hr>154</gpxtpx:hr></gpxtpx:TrackPointExtension></extensions>
      </trkpt>
      <trkpt lat="63.842034777626" lon="20.349639588967">
        <ele>103.2</ele>
        <time>2015-01-01T11:01:03Z</time>
        <extensions><gpxtpx:TrackPointExtension><gpxtpx:hr>153</gpxtpx:hr></gpxtpx:TrackPointExtension></extensions>
      </trkpt>
      <trkpt lat="63.842052463442" lon="20.349450241774">
        <ele>102.6</ele>
        <time>2015-01-01T11:01:05Z</time>
        <extensions><gpxtpx:TrackPointExtension><gpxtpx:hr>153</gpxtpx:hr></gpxtpx:TrackPointExtension></extensions>
      </trkpt>
      <trkpt lat="63.842068472877" lon="20.349277239293">
        <ele>102.4</ele>
        <time>2015-01-01T11:01:08Z</time>
        <extensions><gpxtpx:TrackPointExtension><gpxtpx:hr>152</gpxtpx:hr></gpxtpx:TrackPointExtension></extensions>
      </trkpt>
      <trkpt lat="63.842065790668" lon="20.349093256518">
        <ele>102</ele>
        <time>2015-01-01T11:01:09Z</time>
        <extensions><gpxtpx:TrackPointExtension><gpxtpx:hr>151</gpxtpx:hr></gpxtpx:TrackPointExtension></extensions>
      </trkpt>
      <trkpt lat="63.84202580899" lon="20.348717747256">
        <ele>102</ele>
        <time>2015-01-01T11:01:11Z</time>
        <extensions><gpxtpx:TrackPointExtension><gpxtpx:hr>149</gpxtpx:hr></gpxtpx:TrackPointExtension></extensions>
      </trkpt>
      <trkpt lat="63.842008290812" lon="20.348596712574">
        <ele>101.8</ele>
        <time>2015-01-01T11:01:12Z</time>
        <extensions><gpxtpx:TrackPointExtension><gpxtpx:hr>148</gpxtpx:hr></gpxtpx:TrackPointExtension></extensions>
      </trkpt>
      <trkpt lat="63.842002758756" lon="20.348480455577">
        <ele>101.4</ele>
        <time>2015-01-01T11:01:13Z</time>
        <extensions><gpxtpx:TrackPointExtension><gpxtpx:hr>148</gpxtpx:hr></gpxtpx:TrackPointExtension></extensions>
      </trkpt>
      <trkpt lat="63.842008961365" lon="20.348268644884">
        <ele>100.4</ele>
        <time>2015-01-01T11:01:15Z</time>
        <extensions><gpxtpx:TrackPointExtension><gpxtpx:hr>148</gpxtpx:hr></gpxtpx:TrackPointExtension></extensions>
      </trkpt>
      <trkpt lat="63.842026982456" lon="20.348019031808">
        <ele>99.4</ele>
        <time>2015-01-01T11:01:18Z</time>
        <extensions><gpxtpx:TrackPointExtension><gpxtpx:hr>149</gpxtpx:hr></gpxtpx:TrackPointExtension></extensions>
      </trkpt>
      <trkpt lat="63.842044416815" lon="20.347640672699">
        <ele>99</ele>
        <time>2015-01-01T11:01:22Z</time>
        <extensions><gpxtpx:TrackPointExtension><gpxtpx:hr>152</gpxtpx:hr></gpxtpx:TrackPointExtension></extensions>
      </trkpt>
      <trkpt lat="63.842047099024" lon="20.347561212257">
        <ele>99.2</ele>
        <time>2015-01-01T11:01:23Z</time>
        <extensions><gpxtpx:TrackPointExtension><gpxtpx:hr>152</gpxtpx:hr></gpxtpx:TrackPointExtension></extensions>
      </trkpt>
      <trkpt lat="63.842033017427" lon="20.347331296653">
        <ele>99.6</ele>
        <time>2015-01-01T11:01:26Z</time>
        <extensions><gpxtpx:TrackPointExtension><gpxtpx:hr>155</gpxtpx:hr></gpxtpx:TrackPointExtension></extensions>
      </trkpt>
      <trkpt lat="63.84202061221" lon="20.347262732685">
        <ele>99.8</ele>
        <time>2015-01-01T11:01:27Z</time>
        <extensions><gpxtpx:TrackPointExtension><gpxtpx:hr>155</gpxtpx:hr></gpxtpx:TrackPointExtension></extensions>
      </trkpt>
      <trkpt lat="63.841936793178" lon="20.346706844866">
        <ele>99.8</ele>
        <time>2015-01-01T11:01:34Z</time>
        <extensions><gpxtpx:TrackPointExtension><gpxtpx:hr>156</gpxtpx:hr></gpxtpx:TrackPointExtension></extensions>
      </trkpt>
      <trkpt lat="63.841877030209" lon="20.34642169252">
        <ele>99.6</ele>
        <time>2015-01-01T11:01:37Z</time>
        <extensions><gpxtpx:TrackPointExtension><gpxtpx:hr>156</gpxtpx:hr></gpxtpx:TrackPointExtension></extensions>
      </trkpt>
      <trkpt lat="63.841835875064" lon="20.346231758595">
        <ele>99.4</ele>
        <time>2015-01-01T11:01:39Z</time>
        <extensions><gpxtpx:TrackPointExtension><gpxtpx:hr>156</gpxtpx:hr></gpxtpx:TrackPointExtension></extensions>
      </trkpt>
      <trkpt lat="63.841782063246" lon="20.346093708649">
        <ele>99.4</ele>
        <time>2015-01-01T11:01:41Z</time>
        <extensions><gpxtpx:TrackPointExtension><gpxtpx:hr>155</gpxtpx:hr></gpxtpx:TrackPointExtension></extensions>
      </trkpt>
      <trkpt lat="63.841709727421" lon="20.345974434167">
        <ele>98.8</ele>
        <time>2015-01-01T11:01:43Z</time>
        <extensions><gpxtpx:TrackPointExtension><gpxtpx:hr>155</gpxtpx:hr></gpxtpx:TrackPointExtension></extensions>
      </trkpt>
      <trkpt lat="63.841632110998" lon="20.345861781389">
        <ele>98.6</ele>
        <time>2015-01-01T11:01:45Z</time>
        <extensions><gpxtpx:TrackPointExtension><gpxtpx:hr>155</gpxtpx:hr></gpxtpx:TrackPointExtension></extensions>
      </trkpt>
      <trkpt lat="63.841557344422" lon="20.345768826082">
        <ele>98</ele>
        <time>2015-01-01T11:01:47Z</time>
        <extensions><gpxtpx:TrackPointExtension><gpxtpx:hr>155</gpxtpx:hr></gpxtpx:TrackPointExtension></extensions>
      </trkpt>
      <trkpt lat="63.841514680535" lon="20.345739154145">
        <ele>97.8</ele>
        <time>2015-01-01T11:01:48Z</time>
        <extensions><gpxtpx:TrackPointExtension><gpxtpx:hr>154</gpxtpx:hr></gpxtpx:TrackPointExtension></extensions>
      </trkpt>
      <trkpt lat="63.841359531507" lon="20.345722725615">
        <ele>97</ele>
        <time>2015-01-01T11:01:51Z</time>
        <extensions><gpxtpx:TrackPointExtension><gpxtpx:hr>153</gpxtpx:hr></gpxtpx:TrackPointExtension></extensions>
      </trkpt>
      <trkpt lat="63.84132466279" lon="20.345743764192">
        <ele>96.8</ele>
        <time>2015-01-01T11:01:52Z</time>
        <extensions><gpxtpx:TrackPointExtension><gpxtpx:hr>153</gpxtpx:hr></gpxtpx:TrackPointExtension></extensions>
      </trkpt>
      <trkpt lat="63.841285016388" lon="20.345786008984">
        <ele>96.8</ele>
        <time>2015-01-01T11:01:53Z</time>
        <extensions><gpxtpx:TrackPointExtension><gpxtpx:hr>153</gpxtpx:hr></gpxtpx:TrackPointExtension></extensions>
      </trkpt>
      <trkpt lat="63.84118870832" lon="20.345914587379">
        <ele>96.6</ele>
        <time>2015-01-01T11:01:56Z</time>
        <extensions><gpxtpx:TrackPointExtension><gpxtpx:hr>154</gpxtpx:hr></gpxtpx:TrackPointExtension></extensions>
      </trkpt>
      <trkpt lat="63.841105308384" lon="20.34610058181">
        <ele>96.8</ele>
        <time>2015-01-01T11:02:00Z</time>
        <extensions><gpxtpx:TrackPointExtension><gpxtpx:hr>157</gpxtpx:hr></gpxtpx:TrackPointExtension></extensions>
      </trkpt>
      <trkpt lat="63.841052921489" lon="20.346273332834">
        <ele>97.6</ele>
        <time>2015-01-01T11:02:03Z</time>
        <extensions><gpxtpx:TrackPointExtension><gpxtpx:hr>159</gpxtpx:hr></gpxtpx:TrackPointExtension></extensions>
      </trkpt>
      <trkpt lat="63.841029703617" lon="20.34640526399">
        <ele>98</ele>
        <time>2015-01-01T11:02:05Z</time>
        <extensions><gpxtpx:TrackPointExtension><gpxtpx:hr>160</gpxtpx:hr></gpxtpx:TrackPointExtension></extensions>
      </trkpt>
      <trkpt lat="63.840976143256" lon="20.346669629216">
        <ele>98.6</ele>
        <time>2015-01-01T11:02:09Z</time>
        <extensions><gpxtpx:TrackPointExtension><gpxtpx:hr>162</gpxtpx:hr></gpxtpx:TrackPointExtension></extensions>
      </trkpt>
      <trkpt lat="63.840952506289" lon="20.34672729671">
        <ele>98.8</ele>
        <time>2015-01-01T11:02:10Z</time>
        <extensions><gpxtpx:TrackPointExtension><gpxtpx:hr>163</gpxtpx:hr></gpxtpx:TrackPointExtension></extensions>
      </trkpt>
      <trkpt lat="63.84092384018" lon="20.346749257296">
        <ele>99.2</ele>
        <time>2015-01-01T11:02:11Z</time>
        <extensions><gpxtpx:TrackPointExtension><gpxtpx:hr>163</gpxtpx:hr></gpxtpx:TrackPointExtension></extensions>
      </trkpt>
      <trkpt lat="63.840854438022" lon="20.346807176247">
        <ele>99.4</ele>
        <time>2015-01-01T11:02:13Z</time>
        <extensions><gpxtpx:TrackPointExtension><gpxtpx:hr>163</gpxtpx:hr></gpxtpx:TrackPointExtension></extensions>
      </trkpt>
      <trkpt lat="63.840815043077" lon="20.346836009994">
        <ele>99.6</ele>
        <time>2015-01-01T11:02:14Z</time>
        <extensions><gpxtpx:TrackPointExtension><gpxtpx:hr>164</gpxtpx:hr></gpxtpx:TrackPointExtension></extensions>
      </trkpt>
      <trkpt lat="63.840609937906" lon="20.346834585071">
        <ele>99.6</ele>
        <time>2015-01-01T11:02:19Z</time>
        <extensions><gpxtpx:TrackPointExtension><gpxtpx:hr>165</gpxtpx:hr></gpxtpx:TrackPointExtension></extensions>
      </trkpt>
      <trkpt lat="63.840400222689" lon="20.34659050405">
        <ele>99.2</ele>
        <time>2015-01-01T11:02:25Z</time>
        <extensions><gpxtpx:TrackPointExtension><gpxtpx:hr>165</gpxtpx:hr></gpxtpx:TrackPointExtension></extensions>
      </trkpt>
      <trkpt lat="63.840296035632" lon="20.346388332546">
        <ele>99</ele>
        <time>2015-01-01T11:02:29Z</time>
        <extensions><gpxtpx:TrackPointExtension><gpxtpx:hr>166</gpxtpx:hr></gpxtpx:TrackPointExtension></extensions>
      </trkpt>
      <trkpt lat="63.840246163309" lon="20.346268638968">
        <ele>99</ele>
        <time>2015-01-01T11:02:31Z</time>
        <extensions><gpxtpx:TrackPointExtension><gpxtpx:hr>166</gpxtpx:hr></gpxtpx:TrackPointExtension></extensions>
      </trkpt>
      <trkpt lat="63.840122530237" lon="20.346019277349">
        <ele>98.4</ele>
        <time>2015-01-01T11:02:36Z</time>
        <extensions><gpxtpx:TrackPointExtension><gpxtpx:hr>166</gpxtpx:hr></gpxtpx:TrackPointExtension></extensions>
      </trkpt>
      <trkpt lat="63.839931171387" lon="20.345826242119">
        <ele>97.4</ele>
        <time>2015-01-01T11:02:39Z</time>
        <extensions><gpxtpx:TrackPointExtension><gpxtpx:hr>164</gpxtpx:hr></gpxtpx:TrackPointExtension></extensions>
      </trkpt>
      <trkpt lat="63.839839138091" lon="20.345771173015">
        <ele>96.6</ele>
        <time>2015-01-01T11:02:41Z</time>
        <extensions><gpxtpx:TrackPointExtension><gpxtpx:hr>164</gpxtpx:hr></gpxtpx:TrackPointExtension></extensions>
      </trkpt>
      <trkpt lat="63.839794714004" lon="20.345767233521">
        <ele>96.2</ele>
        <time>2015-01-01T11:02:42Z</time>
        <extensions><gpxtpx:TrackPointExtension><gpxtpx:hr>163</gpxtpx:hr></gpxtpx:TrackPointExtension></extensions>
      </trkpt>
      <trkpt lat="63.839748529717" lon="20.345788858831">
        <ele>95.6</ele>
        <time>2015-01-01T11:02:43Z</time>
        <extensions><gpxtpx:TrackPointExtension><gpxtpx:hr>163</gpxtpx:hr></gpxtpx:TrackPointExtension></extensions>
      </trkpt>
      <trkpt lat="63.839705446735" lon="20.345812244341">
        <ele>95.6</ele>
        <time>2015-01-01T11:02:44Z</time>
        <extensions><gpxtpx:TrackPointExtension><gpxtpx:hr>163</gpxtpx:hr></gpxtpx:TrackPointExtension></extensions>
      </trkpt>
      <trkpt lat="63.839664375409" lon="20.345849711448">
        <ele>95.2</ele>
        <time>2015-01-01T11:02:45Z</time>
        <extensions><gpxtpx:TrackPointExtension><gpxtpx:hr>162</gpxtpx:hr></gpxtpx:TrackPointExtension></extensions>
      </trkpt>
      <trkpt lat="63.839523643255" lon="20.346024474129">
        <ele>94.6</ele>
        <time>2015-01-01T11:02:49Z</time>
        <extensions><gpxtpx:TrackPointExtension><gpxtpx:hr>162</gpxtpx:hr></gpxtpx:TrackPointExtension></extensions>
      </trkpt>
      <trkpt lat="63.839410068467" lon="20.346312727779">
        <ele>95.6</ele>
        <time>2015-01-01T11:02:54Z</time>
        <extensions><gpxtpx:TrackPointExtension><gpxtpx:hr>164</gpxtpx:hr></gpxtpx:TrackPointExtension></extensions>
      </trkpt>
      <trkpt lat="63.839342426509" lon="20.346593605354">
        <ele>96.2</ele>
        <time>2015-01-01T11:02:58Z</time>
        <extensions><gpxtpx:TrackPointExtension><gpxtpx:hr>166</gpxtpx:hr></gpxtpx:TrackPointExtension></extensions>
      </trkpt>
      <trkpt lat="63.839269755408" lon="20.34676711075">
        <ele>96.8</ele>
        <time>2015-01-01T11:03:01Z</time>
        <extensions><gpxtpx:TrackPointExtension><gpxtpx:hr>167</gpxtpx:hr></gpxtpx:TrackPointExtension></extensions>
      </trkpt>
      <trkpt lat="63.839211752638" lon="20.346834920347">
        <ele>97</ele>
        <time>2015-01-01T11:03:03Z</time>
        <extensions><gpxtpx:TrackPointExtension><gpxtpx:hr>168</gpxtpx:hr></gpxtpx:TrackPointExtension></extensions>
      </trkpt>
      <trkpt lat="63.839146625251" lon="20.346852606162">
        <ele>97</ele>
        <time>2015-01-01T11:03:05Z</time>
        <extensions><gpxtpx:TrackPointExtension><gpxtpx:hr>168</gpxtpx:hr></gpxtpx:TrackPointExtension></extensions>
      </trkpt>
      <trkpt lat="63.839086024091" lon="20.346854282543">
        <ele>97.4</ele>
        <time>2015-01-01T11:03:07Z</time>
        <extensions><gpxtpx:TrackPointExtension><gpxtpx:hr>169</gpxtpx:hr></gpxtpx:TrackPointExtension></extensions>
      </trkpt>
      <trkpt lat="63.83882551454" lon="20.346786221489">
        <ele>97.6</ele>
        <time>2015-01-01T11:03:15Z</time>
        <extensions><gpxtpx:TrackPointExtension><gpxtpx:hr>169</gpxtpx:hr></gpxtpx:TrackPointExtension></extensions>
      </trkpt>
      <trkpt lat="63.838629964739" lon="20.34664423205">
        <ele>97.6</ele>
        <time>2015-01-01T11:03:21Z</time>
        <extensions><gpxtpx:TrackPointExtension><gpxtpx:hr>169</gpxtpx:hr></gpxtpx:TrackPointExtension></extensions>
      </trkpt>
      <trkpt lat="63.838610602543" lon="20.346593353897">
        <ele>97.4</ele>
        <time>2015-01-01T11:03:22Z</time>
        <extensions><gpxtpx:TrackPointExtension><gpxtpx:hr>168</gpxtpx:hr></gpxtpx:TrackPointExtension></extensions>
      </trkpt>
      <trkpt lat="63.838608842343" lon="20.346524370834">
        <ele>97.2</ele>
        <time>2015-01-01T11:03:23Z</time>
        <extensions><gpxtpx:TrackPointExtension><gpxtpx:hr>168</gpxtpx:hr></gpxtpx:TrackPointExtension></extensions>
      </trkpt>
      <trkpt lat="63.838618565351" lon="20.346321025863">
        <ele>97</ele>
        <time>2015-01-01T11:03:25Z</time>
        <extensions><gpxtpx:TrackPointExtension><gpxtpx:hr>167</gpxtpx:hr></gpxtpx:TrackPointExtension></extensions>
      </trkpt>
      <trkpt lat="63.83864111267" lon="20.345913497731">
        <ele>96.2</ele>
        <time>2015-01-01T11:03:29Z</time>
        <extensions><gpxtpx:TrackPointExtension><gpxtpx:hr>165</gpxtpx:hr></gpxtpx:TrackPointExtension></extensions>
      </trkpt>
      <trkpt lat="63.838665923104" lon="20.345559362322">
        <ele>95</ele>
        <time>2015-01-01T11:03:32Z</time>
        <extensions><gpxtpx:TrackPointExtension><gpxtpx:hr>164</gpxtpx:hr></gpxtpx:TrackPointExtension></extensions>
      </trkpt>
      <trkpt lat="63.838696936145" lon="20.345180165023">
        <ele>93.8</ele>
        <time>2015-01-01T11:03:35Z</time>
        <extensions><gpxtpx:TrackPointExtension><gpxtpx:hr>161</gpxtpx:hr></gpxtpx:TrackPointExtension></extensions>
      </trkpt>
      <trkpt lat="63.8387112692" lon="20.344928791746">
        <ele>93.4</ele>
        <time>2015-01-01T11:03:37Z</time>
        <extensions><gpxtpx:TrackPointExtension><gpxtpx:hr>160</gpxtpx:hr></gpxtpx:TrackPointExtension></extensions>
      </trkpt>
      <trkpt lat="63.838725853711" lon="20.344686470926">
        <ele>92.6</ele>
        <time>2015-01-01T11:03:39Z</time>
        <extensions><gpxtpx:TrackPointExtension><gpxtpx:hr>159</gpxtpx:hr></gpxtpx:TrackPointExtension></extensions>
      </trkpt>
      <trkpt lat="63.83873892948" lon="20.344372484833">
        <ele>91.4</ele>
        <time>2015-01-01T11:03:42Z</time>
        <extensions><gpxtpx:TrackPointExtension><gpxtpx:hr>158</gpxtpx:hr></gpxtpx:TrackPointExtension></extensions>
      </trkpt>
      <trkpt lat="63.838749071583" lon="20.344270812348">
        <ele>90.8</ele>
        <time>2015-01-01T11:03:43Z</time>
        <extensions><gpxtpx:TrackPointExtension><gpxtpx:hr>157</gpxtpx:hr></gpxtpx:TrackPointExtension></extensions>
      </trkpt>
      <trkpt lat="63.838763907552" lon="20.344077944756">
        <ele>90.4</ele>
        <time>2015-01-01T11:03:45Z</time>
        <extensions><gpxtpx:TrackPointExtension><gpxtpx:hr>157</gpxtpx:hr></gpxtpx:TrackPointExtension></extensions>
      </trkpt>
      <trkpt lat="63.838768433779" lon="20.343990353867">
        <ele>90.2</ele>
        <time>2015-01-01T11:03:46Z</time>
        <extensions><gpxtpx:TrackPointExtension><gpxtpx:hr>156</gpxtpx:hr></gpxtpx:TrackPointExtension></extensions>
      </trkpt>
      <trkpt lat="63.838812941685" lon="20.343481069431">
        <ele>90.2</ele>
        <time>2015-01-01T11:03:53Z</time>
        <extensions><gpxtpx:TrackPointExtension><gpxtpx:hr>156</gpxtpx:hr></gpxtpx:TrackPointExtension></extensions>
      </trkpt>
      <trkpt lat="63.838834064081" lon="20.343213602901">
        <ele>90.6</ele>
        <time>2015-01-01T11:03:57Z</time>
        <extensions><gpxtpx:TrackPointExtension><gpxtpx:hr>155</gpxtpx:hr></gpxtpx:TrackPointExtension></extensions>
      </trkpt>
      <trkpt lat="63.83882811293" lon="20.343007408082">
        <ele>90.6</ele>
        <time>2015-01-01T11:04:01Z</time>
        <extensions><gpxtpx:TrackPointExtension><gpxtpx:hr>154</gpxtpx:hr></gpxtpx:TrackPointExtension></extensions>
      </trkpt>
      <trkpt lat="63.838814366609" lon="20.343006486073">
        <ele>90.4</ele>
        <time>2015-01-01T11:04:06Z</time>
        <extensions><gpxtpx:TrackPointExtension><gpxtpx:hr>153</gpxtpx:hr></gpxtpx:TrackPointExtension></extensions>
      </trkpt>
      <trkpt lat="63.838805900887" lon="20.343066751957">
        <ele>90.4</ele>
        <time>2015-01-01T11:04:08Z</time>
        <extensions><gpxtpx:TrackPointExtension><gpxtpx:hr>152</gpxtpx:hr></gpxtpx:TrackPointExtension></extensions>
      </trkpt>
      <trkpt lat="63.838795842603" lon="20.343191642314">
        <ele>90.6</ele>
        <time>2015-01-01T11:04:11Z</time>
        <extensions><gpxtpx:TrackPointExtension><gpxtpx:hr>151</gpxtpx:hr></gpxtpx:TrackPointExtension></extensions>
      </trkpt>
      <trkpt lat="63.838774887845" lon="20.343439159915">
        <ele>90.6</ele>
        <time>2015-01-01T11:04:16Z</time>
        <extensions><gpxtpx:TrackPointExtension><gpxtpx:hr>153</gpxtpx:hr></gpxtpx:TrackPointExtension></extensions>
      </trkpt>
      <trkpt lat="63.838741779327" lon="20.343842497095">
        <ele>90.4</ele>
        <time>2015-01-01T11:04:23Z</time>
        <extensions><gpxtpx:TrackPointExtension><gpxtpx:hr>154</gpxtpx:hr></gpxtpx:TrackPointExtension></extensions>
      </trkpt>
      <trkpt lat="63.838713113219" lon="20.344240888953">
        <ele>91</ele>
        <time>2015-01-01T11:04:29Z</time>
        <extensions><gpxtpx:TrackPointExtension><gpxtpx:hr>157</gpxtpx:hr></gpxtpx:TrackPointExtension></extensions>
      </trkpt>
      <trkpt lat="63.838705904782" lon="20.344387739897">
        <ele>91.2</ele>
        <time>2015-01-01T11:04:31Z</time>
        <extensions><gpxtpx:TrackPointExtension><gpxtpx:hr>157</gpxtpx:hr></gpxtpx:TrackPointExtension></extensions>
      </trkpt>
      <trkpt lat="63.838697690517" lon="20.344588570297">
        <ele>91.4</ele>
        <time>2015-01-01T11:04:34Z</time>
        <extensions><gpxtpx:TrackPointExtension><gpxtpx:hr>157</gpxtpx:hr></gpxtpx:TrackPointExtension></extensions>
      </trkpt>
      <trkpt lat="63.838675813749" lon="20.344928875566">
        <ele>91.6</ele>
        <time>2015-01-01T11:04:40Z</time>
        <extensions><gpxtpx:TrackPointExtension><gpxtpx:hr>159</gpxtpx:hr></gpxtpx:TrackPointExtension></extensions>
      </trkpt>
      <trkpt lat="63.838626863435" lon="20.345516363159">
        <ele>92.4</ele>
        <time>2015-01-01T11:04:49Z</time>
        <extensions><gpxtpx:TrackPointExtension><gpxtpx:hr>160</gpxtpx:hr></gpxtpx:TrackPointExtension></extensions>
      </trkpt>
      <trkpt lat="63.838631724939" lon="20.345576545224">
        <ele>92.4</ele>
        <time>2015-01-01T11:04:50Z</time>
        <extensions><gpxtpx:TrackPointExtension><gpxtpx:hr>160</gpxtpx:hr></gpxtpx:TrackPointExtension></extensions>
      </trkpt>
      <trkpt lat="63.838630383834" lon="20.345674613491">
        <ele>92.6</ele>
        <time>2015-01-01T11:04:52Z</time>
        <extensions><gpxtpx:TrackPointExtension><gpxtpx:hr>161</gpxtpx:hr></gpxtpx:TrackPointExtension></extensions>
      </trkpt>
      <trkpt lat="63.838626360521" lon="20.345725324005">
        <ele>92.6</ele>
        <time>2015-01-01T11:04:53Z</time>
        <extensions><gpxtpx:TrackPointExtension><gpxtpx:hr>162</gpxtpx:hr></gpxtpx:TrackPointExtension></extensions>
      </trkpt>
      <trkpt lat="63.838607585058" lon="20.346047608182">
        <ele>93.6</ele>
        <time>2015-01-01T11:05:00Z</time>
        <extensions><gpxtpx:TrackPointExtension><gpxtpx:hr>165</gpxtpx:hr></gpxtpx:TrackPointExtension></extensions>
      </trkpt>
      <trkpt lat="63.838604316115" lon="20.346100497991">
        <ele>93.8</ele>
        <time>2015-01-01T11:05:01Z</time>
        <extensions><gpxtpx:TrackPointExtension><gpxtpx:hr>166</gpxtpx:hr></gpxtpx:TrackPointExtension></extensions>
      </trkpt>
      <trkpt lat="63.83860565722" lon="20.34630660899">
        <ele>94.6</ele>
        <time>2015-01-01T11:05:05Z</time>
        <extensions><gpxtpx:TrackPointExtension><gpxtpx:hr>167</gpxtpx:hr></gpxtpx:TrackPointExtension></extensions>
      </trkpt>
      <trkpt lat="63.838604735211" lon="20.346403336152">
        <ele>95.2</ele>
        <time>2015-01-01T11:05:07Z</time>
        <extensions><gpxtpx:TrackPointExtension><gpxtpx:hr>169</gpxtpx:hr></gpxtpx:TrackPointExtension></extensions>
      </trkpt>
      <trkpt lat="63.838591575623" lon="20.346605759114">
        <ele>95.8</ele>
        <time>2015-01-01T11:05:11Z</time>
        <extensions><gpxtpx:TrackPointExtension><gpxtpx:hr>170</gpxtpx:hr></gpxtpx:TrackPointExtension></extensions>
      </trkpt>
      <trkpt lat="63.838585456833" lon="20.346660409123">
        <ele>96.4</ele>
        <time>2015-01-01T11:05:13Z</time>
        <extensions><gpxtpx:TrackPointExtension><gpxtpx:hr>170</gpxtpx:hr></gpxtpx:TrackPointExtension></extensions>
      </trkpt>
      <trkpt lat="63.838584534824" lon="20.346787981689">
        <ele>97.2</ele>
        <time>2015-01-01T11:05:16Z</time>
        <extensions><gpxtpx:TrackPointExtension><gpxtpx:hr>171</gpxtpx:hr></gpxtpx:TrackPointExtension></extensions>
      </trkpt>
      <trkpt lat="63.838582606986" lon="20.346935251728">
        <ele>97.6</ele>
        <time>2015-01-01T11:05:19Z</time>
        <extensions><gpxtpx:TrackPointExtension><gpxtpx:hr>171</gpxtpx:hr></gpxtpx:TrackPointExtension></extensions>
      </trkpt>
      <trkpt lat="63.838561819866" lon="20.34740597941">
        <ele>97.8</ele>
        <time>2015-01-01T11:05:26Z</time>
        <extensions><gpxtpx:TrackPointExtension><gpxtpx:hr>171</gpxtpx:hr></gpxtpx:TrackPointExtension></extensions>
      </trkpt>
      <trkpt lat="63.838552096859" lon="20.347822140902">
        <ele>98</ele>
        <time>2015-01-01T11:05:32Z</time>
        <extensions><gpxtpx:TrackPointExtension><gpxtpx:hr>172</gpxtpx:hr></gpxtpx:TrackPointExtension></extensions>
      </trkpt>
      <trkpt lat="63.8385329023" lon="20.348378615454">
        <ele>97.8</ele>
        <time>2015-01-01T11:05:39Z</time>
        <extensions><gpxtpx:TrackPointExtension><gpxtpx:hr>171</gpxtpx:hr></gpxtpx:TrackPointExtension></extensions>
      </trkpt>
      <trkpt lat="63.838515048847" lon="20.348853869364">
        <ele>98.2</ele>
        <time>2015-01-01T11:05:47Z</time>
        <extensions><gpxtpx:TrackPointExtension><gpxtpx:hr>171</gpxtpx:hr></gpxtpx:TrackPointExtension></extensions>
      </trkpt>
      <trkpt lat="63.838509265333" lon="20.348894605413">
        <ele>98.2</ele>
        <time>2015-01-01T11:05:48Z</time>
        <extensions><gpxtpx:TrackPointExtension><gpxtpx:hr>171</gpxtpx:hr></gpxtpx:TrackPointExtension></extensions>
      </trkpt>
      <trkpt lat="63.83849920705" lon="20.349156707525">
        <ele>98.2</ele>
        <time>2015-01-01T11:05:52Z</time>
        <extensions><gpxtpx:TrackPointExtension><gpxtpx:hr>171</gpxtpx:hr></gpxtpx:TrackPointExtension></extensions>
      </trkpt>
      <trkpt lat="63.838494680822" lon="20.349279083312">
        <ele>98.4</ele>
        <time>2015-01-01T11:05:54Z</time>
        <extensions><gpxtpx:TrackPointExtension><gpxtpx:hr>171</gpxtpx:hr></gpxtpx:TrackPointExtension></extensions>
      </trkpt>
      <trkpt lat="63.838488897309" lon="20.349374972284">
        <ele>98.8</ele>
        <time>2015-01-01T11:05:56Z</time>
        <extensions><gpxtpx:TrackPointExtension><gpxtpx:hr>171</gpxtpx:hr></gpxtpx:TrackPointExtension></extensions>
      </trkpt>
      <trkpt lat="63.838499290869" lon="20.349446972832">
        <ele>99.2</ele>
        <time>2015-01-01T11:05:58Z</time>
        <extensions><gpxtpx:TrackPointExtension><gpxtpx:hr>172</gpxtpx:hr></gpxtpx:TrackPointExtension></extensions>
      </trkpt>
      <trkpt lat="63.838543128222" lon="20.349565828219">
        <ele>99.8</ele>
        <time>2015-01-01T11:06:01Z</time>
        <extensions><gpxtpx:TrackPointExtension><gpxtpx:hr>173</gpxtpx:hr></gpxtpx:TrackPointExtension></extensions>
      </trkpt>
      <trkpt lat="63.838610099629" lon="20.349645707756">
        <ele>100.6</ele>
        <time>2015-01-01T11:06:04Z</time>
        <extensions><gpxtpx:TrackPointExtension><gpxtpx:hr>173</gpxtpx:hr></gpxtpx:TrackPointExtension></extensions>
      </trkpt>
      <trkpt lat="63.838632227853" lon="20.349653419107">
        <ele>100.6</ele>
        <time>2015-01-01T11:06:05Z</time>
        <extensions><gpxtpx:TrackPointExtension><gpxtpx:hr>174</gpxtpx:hr></gpxtpx:TrackPointExtension></extensions>
      </trkpt>
      <trkpt lat="63.838793914765" lon="20.34958217293">
        <ele>101.6</ele>
        <time>2015-01-01T11:06:11Z</time>
        <extensions><gpxtpx:TrackPointExtension><gpxtpx:hr>174</gpxtpx:hr></gpxtpx:TrackPointExtension></extensions>
      </trkpt>
      <trkpt lat="63.839010670781" lon="20.34936147742">
        <ele>100.6</ele>
        <time>2015-01-01T11:06:18Z</time>
        <extensions><gpxtpx:TrackPointExtension><gpxtpx:hr>173</gpxtpx:hr></gpxtpx:TrackPointExtension></extensions>
      </trkpt>
      <trkpt lat="63.839085102081" lon="20.349287549034">
        <ele>100</ele>
        <time>2015-01-01T11:06:20Z</time>
        <extensions><gpxtpx:TrackPointExtension><gpxtpx:hr>172</gpxtpx:hr></gpxtpx:TrackPointExtension></extensions>
      </trkpt>
      <trkpt lat="63.839193731546" lon="20.349172968417">
        <ele>99.8</ele>
        <time>2015-01-01T11:06:23Z</time>
        <extensions><gpxtpx:TrackPointExtension><gpxtpx:hr>171</gpxtpx:hr></gpxtpx:TrackPointExtension></extensions>
      </trkpt>
      <trkpt lat="63.83929381147" lon="20.349056124687">
        <ele>100.2</ele>
        <time>2015-01-01T11:06:26Z</time>
        <extensions><gpxtpx:TrackPointExtension><gpxtpx:hr>171</gpxtpx:hr></gpxtpx:TrackPointExtension></extensions>
      </trkpt>
      <trkpt lat="63.839392801747" lon="20.349016645923">
        <ele>100.2</ele>
        <time>2015-01-01T11:06:29Z</time>
        <extensions><gpxtpx:TrackPointExtension><gpxtpx:hr>171</gpxtpx:hr></gpxtpx:TrackPointExtension></extensions>
      </trkpt>
      <trkpt lat="63.839430185035" lon="20.349035924301">
        <ele>100.2</ele>
        <time>2015-01-01T11:06:30Z</time>
        <extensions><gpxtpx:TrackPointExtension><gpxtpx:hr>171</gpxtpx:hr></gpxtpx:TrackPointExtension></extensions>
      </trkpt>
      <trkpt lat="63.839488271624" lon="20.349128795788">
        <ele>100</ele>
        <time>2015-01-01T11:06:32Z</time>
        <extensions><gpxtpx:TrackPointExtension><gpxtpx:hr>171</gpxtpx:hr></gpxtpx:TrackPointExtension></extensions>
      </trkpt>
      <trkpt lat="63.839512243867" lon="20.349168106914">
        <ele>99.8</ele>
        <time>2015-01-01T11:06:33Z</time>
        <extensions><gpxtpx:TrackPointExtension><gpxtpx:hr>171</gpxtpx:hr></gpxtpx:TrackPointExtension></extensions>
      </trkpt>
      <trkpt lat="63.839569743723" lon="20.349466251209">
        <ele>100.2</ele>
        <time>2015-01-01T11:06:38Z</time>
        <extensions><gpxtpx:TrackPointExtension><gpxtpx:hr>171</gpxtpx:hr></gpxtpx:TrackPointExtension></extensions>
      </trkpt>
      <trkpt lat="63.839582232758" lon="20.349667668343">
        <ele>101.2</ele>
        <time>2015-01-01T11:06:44Z</time>
        <extensions><gpxtpx:TrackPointExtension><gpxtpx:hr>170</gpxtpx:hr></gpxtpx:TrackPointExtension></extensions>
      </trkpt>
      <trkpt lat="63.839585166425" lon="20.349795743823">
        <ele>101.6</ele>
        <time>2015-01-01T11:06:47Z</time>
        <extensions><gpxtpx:TrackPointExtension><gpxtpx:hr>170</gpxtpx:hr></gpxtpx:TrackPointExtension></extensions>
      </trkpt>
      <trkpt lat="63.83957779035" lon="20.349948210642">
        <ele>101.6</ele>
        <time>2015-01-01T11:06:50Z</time>
        <extensions><gpxtpx:TrackPointExtension><gpxtpx:hr>170</gpxtpx:hr></gpxtpx:TrackPointExtension></extensions>
      </trkpt>
      <trkpt lat="63.839605115354" lon="20.350160021335">
        <ele>102</ele>
        <time>2015-01-01T11:06:54Z</time>
        <extensions><gpxtpx:TrackPointExtension><gpxtpx:hr>170</gpxtpx:hr></gpxtpx:TrackPointExtension></extensions>
      </trkpt>
      <trkpt lat="63.839632356539" lon="20.350288432091">
        <ele>102.2</ele>
        <time>2015-01-01T11:06:56Z</time>
        <extensions><gpxtpx:TrackPointExtension><gpxtpx:hr>170</gpxtpx:hr></gpxtpx:TrackPointExtension></extensions>
      </trkpt>
      <trkpt lat="63.83964786306" lon="20.350369401276">
        <ele>102.6</ele>
        <time>2015-01-01T11:06:57Z</time>
        <extensions><gpxtpx:TrackPointExtension><gpxtpx:hr>170</gpxtpx:hr></gpxtpx:TrackPointExtension></extensions>
      </trkpt>
      <trkpt lat="63.839751211926" lon="20.350793357939">
        <ele>103</ele>
        <time>2015-01-01T11:07:03Z</time>
        <extensions><gpxtpx:TrackPointExtension><gpxtpx:hr>169</gpxtpx:hr></gpxtpx:TrackPointExtension></extensions>
      </trkpt>
      <trkpt lat="63.839840730652" lon="20.35119401291">
        <ele>103</ele>
        <time>2015-01-01T11:07:09Z</time>
        <extensions><gpxtpx:TrackPointExtension><gpxtpx:hr>169</gpxtpx:hr></gpxtpx:TrackPointExtension></extensions>
      </trkpt>
      <trkpt lat="63.839928572997" lon="20.351649150252">
        <ele>103.2</ele>
        <time>2015-01-01T11:07:16Z</time>
        <extensions><gpxtpx:TrackPointExtension><gpxtpx:hr>170</gpxtpx:hr></gpxtpx:TrackPointExtension></extensions>
      </trkpt>
      <trkpt lat="63.839978612959" lon="20.351887112483">
        <ele>103.6</ele>
        <time>2015-01-01T11:07:21Z</time>
        <extensions><gpxtpx:TrackPointExtension><gpxtpx:hr>170</gpxtpx:hr></gpxtpx:TrackPointExtension></extensions>
      </trkpt>
      <trkpt lat="63.839990850538" lon="20.351941427216">
        <ele>104</ele>
        <time>2015-01-01T11:07:22Z</time>
        <extensions><gpxtpx:TrackPointExtension><gpxtpx:hr>170</gpxtpx:hr></gpxtpx:TrackPointExtension></extensions>
      </trkpt>
      <trkpt lat="63.840042399243" lon="20.35217737779">
        <ele>104</ele>
        <time>2015-01-01T11:07:26Z</time>
        <extensions><gpxtpx:TrackPointExtension><gpxtpx:hr>169</gpxtpx:hr></gpxtpx:TrackPointExtension></extensions>
      </trkpt>
      <trkpt lat="63.84005304426" lon="20.352243511006">
        <ele>104.2</ele>
        <time>2015-01-01T11:07:27Z</time>
        <extensions><gpxtpx:TrackPointExtension><gpxtpx:hr>169</gpxtpx:hr></gpxtpx:TrackPointExtension></extensions>
      </trkpt>
      <trkpt lat="63.840115405619" lon="20.35259203054">
        <ele>104.2</ele>
        <time>2015-01-01T11:07:33Z</time>
        <extensions><gpxtpx:TrackPointExtension><gpxtpx:hr>170</gpxtpx:hr></gpxtpx:TrackPointExtension></extensions>
      </trkpt>
      <trkpt lat="63.840106436983" lon="20.352740138769">
        <ele>104.6</ele>
        <time>2015-01-01T11:07:36Z</time>
        <extensions><gpxtpx:TrackPointExtension><gpxtpx:hr>170</gpxtpx:hr></gpxtpx:TrackPointExtension></extensions>
      </trkpt>
      <trkpt lat="63.840105095878" lon="20.352858491242">
        <ele>105</ele>
        <time>2015-01-01T11:07:38Z</time>
        <extensions><gpxtpx:TrackPointExtension><gpxtpx:hr>171</gpxtpx:hr></gpxtpx:TrackPointExtension></extensions>
      </trkpt>
      <trkpt lat="63.840114986524" lon="20.352990673855">
        <ele>105.6</ele>
        <time>2015-01-01T11:07:40Z</time>
        <extensions><gpxtpx:TrackPointExtension><gpxtpx:hr>171</gpxtpx:hr></gpxtpx:TrackPointExtension></extensions>
      </trkpt>
      <trkpt lat="63.840155554935" lon="20.353186978027">
        <ele>106.2</ele>
        <time>2015-01-01T11:07:44Z</time>
        <extensions><gpxtpx:TrackPointExtension><gpxtpx:hr>172</gpxtpx:hr></gpxtpx:TrackPointExtension></extensions>
      </trkpt>
      <trkpt lat="63.840279858559" lon="20.353420749307">
        <ele>106.6</ele>
        <time>2015-01-01T11:07:50Z</time>
        <extensions><gpxtpx:TrackPointExtension><gpxtpx:hr>174</gpxtpx:hr></gpxtpx:TrackPointExtension></extensions>
      </trkpt>
      <trkpt lat="63.840326461941" lon="20.353476069868">
        <ele>106.8</ele>
        <time>2015-01-01T11:07:52Z</time>
        <extensions><gpxtpx:TrackPointExtension><gpxtpx:hr>174</gpxtpx:hr></gpxtpx:TrackPointExtension></extensions>
      </trkpt>
      <trkpt lat="63.8404443115" lon="20.353586459532">
        <ele>107</ele>
        <time>2015-01-01T11:07:57Z</time>
        <extensions><gpxtpx:TrackPointExtension><gpxtpx:hr>175</gpxtpx:hr></gpxtpx:TrackPointExtension></extensions>
      </trkpt>
      <trkpt lat="63.840577919036" lon="20.353657454252">
        <ele>107.8</ele>
        <time>2015-01-01T11:08:02Z</time>
        <extensions><gpxtpx:TrackPointExtension><gpxtpx:hr>175</gpxtpx:hr></gpxtpx:TrackPointExtension></extensions>
      </trkpt>
      <trkpt lat="63.840608512983" lon="20.353668099269">
        <ele>108</ele>
        <time>2015-01-01T11:08:03Z</time>
        <extensions><gpxtpx:TrackPointExtension><gpxtpx:hr>175</gpxtpx:hr></gpxtpx:TrackPointExtension></extensions>
      </trkpt>
      <trkpt lat="63.840738097206" lon="20.353661393747">
        <ele>109</ele>
        <time>2015-01-01T11:08:09Z</time>
        <extensions><gpxtpx:TrackPointExtension><gpxtpx:hr>176</gpxtpx:hr></gpxtpx:TrackPointExtension></extensions>
      </trkpt>
      <trkpt lat="63.840901125222" lon="20.353589560837">
        <ele>110</ele>
        <time>2015-01-01T11:08:16Z</time>
        <extensions><gpxtpx:TrackPointExtension><gpxtpx:hr>175</gpxtpx:hr></gpxtpx:TrackPointExtension></extensions>
      </trkpt>
      <trkpt lat="63.840942950919" lon="20.353541700169">
        <ele>110</ele>
        <time>2015-01-01T11:08:18Z</time>
        <extensions><gpxtpx:TrackPointExtension><gpxtpx:hr>175</gpxtpx:hr></gpxtpx:TrackPointExtension></extensions>
      </trkpt>
      <trkpt lat="63.841038839892" lon="20.353309521452">
        <ele>110.4</ele>
        <time>2015-01-01T11:08:22Z</time>
        <extensions><gpxtpx:TrackPointExtension><gpxtpx:hr>174</gpxtpx:hr></gpxtpx:TrackPointExtension></extensions>
      </trkpt>
      <trkpt lat="63.8410710264" lon="20.353248836473">
        <ele>110.6</ele>
        <time>2015-01-01T11:08:23Z</time>
        <extensions><gpxtpx:TrackPointExtension><gpxtpx:hr>174</gpxtpx:hr></gpxtpx:TrackPointExtension></extensions>
      </trkpt>
      <trkpt lat="63.841193486005" lon="20.352935353294">
        <ele>109.4</ele>
        <time>2015-01-01T11:08:28Z</time>
        <extensions><gpxtpx:TrackPointExtension><gpxtpx:hr>173</gpxtpx:hr></gpxtpx:TrackPointExtension></extensions>
      </trkpt>
      <trkpt lat="63.841222906485" lon="20.352878859267">
        <ele>109</ele>
        <time>2015-01-01T11:08:29Z</time>
        <extensions><gpxtpx:TrackPointExtension><gpxtpx:hr>172</gpxtpx:hr></gpxtpx:TrackPointExtension></extensions>
      </trkpt>
      <trkpt lat="63.841325836256" lon="20.352717926726">
        <ele>107.6</ele>
        <time>2015-01-01T11:08:32Z</time>
        <extensions><gpxtpx:TrackPointExtension><gpxtpx:hr>171</gpxtpx:hr></gpxtpx:TrackPointExtension></extensions>
      </trkpt>
      <trkpt lat="63.841403117403" lon="20.352657744661">
        <ele>107.2</ele>
        <time>2015-01-01T11:08:34Z</time>
        <extensions><gpxtpx:TrackPointExtension><gpxtpx:hr>169</gpxtpx:hr></gpxtpx:TrackPointExtension></extensions>
      </trkpt>
      <trkpt lat="63.841536808759" lon="20.352636370808">
        <ele>106.6</ele>
        <time>2015-01-01T11:08:38Z</time>
        <extensions><gpxtpx:TrackPointExtension><gpxtpx:hr>168</gpxtpx:hr></gpxtpx:TrackPointExtension></extensions>
      </trkpt>
      <trkpt lat="63.841598080471" lon="20.352683058009">
        <ele>106.8</ele>
        <time>2015-01-01T11:08:40Z</time>
        <extensions><gpxtpx:TrackPointExtension><gpxtpx:hr>167</gpxtpx:hr></gpxtpx:TrackPointExtension></extensions>
      </trkpt>
      <trkpt lat="63.841656250879" lon="20.352653386071">
        <ele>107</ele>
        <time>2015-01-01T11:08:42Z</time>
        <extensions><gpxtpx:TrackPointExtension><gpxtpx:hr>167</gpxtpx:hr></gpxtpx:TrackPointExtension></extensions>
      </trkpt>
      <trkpt lat="63.841689862311" lon="20.352525310591">
        <ele>107.2</ele>
        <time>2015-01-01T11:08:44Z</time>
        <extensions><gpxtpx:TrackPointExtension><gpxtpx:hr>167</gpxtpx:hr></gpxtpx:TrackPointExtension></extensions>
      </trkpt>
      <trkpt lat="63.841726910323" lon="20.352118369192">
        <ele>107.6</ele>
        <time>2015-01-01T11:08:49Z</time>
        <extensions><gpxtpx:TrackPointExtension><gpxtpx:hr>167</gpxtpx:hr></gpxtpx:TrackPointExtension></extensions>
      </trkpt>
      <trkpt lat="63.841747865081" lon="20.351921813563">
        <ele>107.4</ele>
        <time>2015-01-01T11:08:51Z</time>
        <extensions><gpxtpx:TrackPointExtension><gpxtpx:hr>168</gpxtpx:hr></gpxtpx:TrackPointExtension></extensions>
      </trkpt>
      <trkpt lat="63.84177736938" lon="20.351315969601">
        <ele>106.8</ele>
        <time>2015-01-01T11:08:58Z</time>
        <extensions><gpxtpx:TrackPointExtension><gpxtpx:hr>168</gpxtpx:hr></gpxtpx:TrackPointExtension></extensions>
      </trkpt>
      <trkpt lat="63.841815255582" lon="20.35100877285">
        <ele>107</ele>
        <time>2015-01-01T11:09:02Z</time>
        <extensions><gpxtpx:TrackPointExtension><gpxtpx:hr>168</gpxtpx:hr></gpxtpx:TrackPointExtension></extensions>
      </trkpt>
      <trkpt lat="63.841836042702" lon="20.35094993189">
        <ele>107</ele>
        <time>2015-01-01T11:09:03Z</time>
        <extensions><gpxtpx:TrackPointExtension><gpxtpx:hr>168</gpxtpx:hr></gpxtpx:TrackPointExtension></extensions>
      </trkpt>
      <trkpt lat="63.841986665502" lon="20.350748347118">
        <ele>106.6</ele>
        <time>2015-01-01T11:09:09Z</time>
        <extensions><gpxtpx:TrackPointExtension><gpxtpx:hr>167</gpxtpx:hr></gpxtpx:TrackPointExtension></extensions>
      </trkpt>
      <trkpt lat="63.842043913901" lon="20.350922606885">
        <ele>106.8</ele>
        <time>2015-01-01T11:09:12Z</time>
        <extensions><gpxtpx:TrackPointExtension><gpxtpx:hr>167</gpxtpx:hr></gpxtpx:TrackPointExtension></extensions>
      </trkpt>
      <trkpt lat="63.842214653268" lon="20.35112218">
        <ele>107.6</ele>
        <time>2015-01-01T11:09:19Z</time>
        <extensions><gpxtpx:TrackPointExtension><gpxtpx:hr>168</gpxtpx:hr></gpxtpx:TrackPointExtension></extensions>
      </trkpt>
      <trkpt lat="63.842368377373" lon="20.351206585765">
        <ele>107.8</ele>
        <time>2015-01-01T11:09:24Z</time>
        <extensions><gpxtpx:TrackPointExtension><gpxtpx:hr>168</gpxtpx:hr></gpxtpx:TrackPointExtension></extensions>
      </trkpt>
      <trkpt lat="63.842520425096" lon="20.351255619898">
        <ele>107.8</ele>
        <time>2015-01-01T11:09:29Z</time>
        <extensions><gpxtpx:TrackPointExtension><gpxtpx:hr>169</gpxtpx:hr></gpxtpx:TrackPointExtension></extensions>
      </trkpt>
      <trkpt lat="63.842719914392" lon="20.351358884946">
        <ele>107.8</ele>
        <time>2015-01-01T11:09:35Z</time>
        <extensions><gpxtpx:TrackPointExtension><gpxtpx:hr>168</gpxtpx:hr></gpxtpx:TrackPointExtension></extensions>
      </trkpt>
      <trkpt lat="63.842932227999" lon="20.351422335953">
        <ele>108.4</ele>
        <time>2015-01-01T11:09:42Z</time>
        <extensions><gpxtpx:TrackPointExtension><gpxtpx:hr>169</gpxtpx:hr></gpxtpx:TrackPointExtension></extensions>
      </trkpt>
      <trkpt lat="63.843167005107" lon="20.351429292932">
        <ele>108.4</ele>
        <time>2015-01-01T11:09:50Z</time>
        <extensions><gpxtpx:TrackPointExtension><gpxtpx:hr>169</gpxtpx:hr></gpxtpx:TrackPointExtension></extensions>
      </trkpt>
      <trkpt lat="63.843329781666" lon="20.351402722299">
        <ele>108.6</ele>
        <time>2015-01-01T11:09:56Z</time>
        <extensions><gpxtpx:TrackPointExtension><gpxtpx:hr>168</gpxtpx:hr></gpxtpx:TrackPointExtension></extensions>
      </trkpt>
      <trkpt lat="63.843359705061" lon="20.351413283497">
        <ele>108.6</ele>
        <time>2015-01-01T11:09:57Z</time>
        <extensions><gpxtpx:TrackPointExtension><gpxtpx:hr>167</gpxtpx:hr></gpxtpx:TrackPointExtension></extensions>
      </trkpt>
      <trkpt lat="63.843383928761" lon="20.35141822882">
        <ele>108.8</ele>
        <time>2015-01-01T11:09:58Z</time>
        <extensions><gpxtpx:TrackPointExtension><gpxtpx:hr>168</gpxtpx:hr></gpxtpx:TrackPointExtension></extensions>
      </trkpt>
      <trkpt lat="63.843571683392" lon="20.351520990953">
        <ele>109</ele>
        <time>2015-01-01T11:10:05Z</time>
        <extensions><gpxtpx:TrackPointExtension><gpxtpx:hr>168</gpxtpx:hr></gpxtpx:TrackPointExtension></extensions>
      </trkpt>
      <trkpt lat="63.843636726961" lon="20.35163632594">
        <ele>109.6</ele>
        <time>2015-01-01T11:10:08Z</time>
        <extensions><gpxtpx:TrackPointExtension><gpxtpx:hr>168</gpxtpx:hr></gpxtpx:TrackPointExtension></extensions>
      </trkpt>
      <trkpt lat="63.843690035865" lon="20.351735483855">
        <ele>109.6</ele>
        <time>2015-01-01T11:10:10Z</time>
        <extensions><gpxtpx:TrackPointExtension><gpxtpx:hr>167</gpxtpx:hr></gpxtpx:TrackPointExtension></extensions>
      </trkpt>
      <trkpt lat="63.843798246235" lon="20.35190035589">
        <ele>109.6</ele>
        <time>2015-01-01T11:10:14Z</time>
        <extensions><gpxtpx:TrackPointExtension><gpxtpx:hr>168</gpxtpx:hr></gpxtpx:TrackPointExtension></extensions>
      </trkpt>
      <trkpt lat="63.843863960356" lon="20.351946623996">
        <ele>109.2</ele>
        <time>2015-01-01T11:10:16Z</time>
        <extensions><gpxtpx:TrackPointExtension><gpxtpx:hr>167</gpxtpx:hr></gpxtpx:TrackPointExtension></extensions>
      </trkpt>
      <trkpt lat="63.844110053033" lon="20.352009320632">
        <ele>109.4</ele>
        <time>2015-01-01T11:10:24Z</time>
        <extensions><gpxtpx:TrackPointExtension><gpxtpx:hr>168</gpxtpx:hr></gpxtpx:TrackPointExtension></extensions>
      </trkpt>
      <trkpt lat="63.844309793785" lon="20.352049134672">
        <ele>109.6</ele>
        <time>2015-01-01T11:10:30Z</time>
        <extensions><gpxtpx:TrackPointExtension><gpxtpx:hr>167</gpxtpx:hr></gpxtpx:TrackPointExtension></extensions>
      </trkpt>
      <trkpt lat="63.84446519427" lon="20.35198518075">
        <ele>109.8</ele>
        <time>2015-01-01T11:10:36Z</time>
        <extensions><gpxtpx:TrackPointExtension><gpxtpx:hr>167</gpxtpx:hr></gpxtpx:TrackPointExtension></extensions>
      </trkpt>
      <trkpt lat="63.84448857978" lon="20.351966908202">
        <ele>110</ele>
        <time>2015-01-01T11:10:37Z</time>
        <extensions><gpxtpx:TrackPointExtension><gpxtpx:hr>168</gpxtpx:hr></gpxtpx:TrackPointExtension></extensions>
      </trkpt>
      <trkpt lat="63.844592766836" lon="20.352044524625">
        <ele>110.8</ele>
        <time>2015-01-01T11:10:42Z</time>
        <extensions><gpxtpx:TrackPointExtension><gpxtpx:hr>167</gpxtpx:hr></gpxtpx:TrackPointExtension></extensions>
      </trkpt>
      <trkpt lat="63.844756716862" lon="20.352303860709">
        <ele>111</ele>
        <time>2015-01-01T11:10:49Z</time>
        <extensions><gpxtpx:TrackPointExtension><gpxtpx:hr>166</gpxtpx:hr></gpxtpx:TrackPointExtension></extensions>
      </trkpt>
      <trkpt lat="63.844837350771" lon="20.35244056955">
        <ele>111</ele>
        <time>2015-01-01T11:10:51Z</time>
        <extensions><gpxtpx:TrackPointExtension><gpxtpx:hr>165</gpxtpx:hr></gpxtpx:TrackPointExtension></extensions>
      </trkpt>
      <trkpt lat="63.844970958307" lon="20.352672412992">
        <ele>109.6</ele>
        <time>2015-01-01T11:10:56Z</time>
        <extensions><gpxtpx:TrackPointExtension><gpxtpx:hr>163</gpxtpx:hr></gpxtpx:TrackPointExtension></extensions>
      </trkpt>
      <trkpt lat="63.845169609413" lon="20.35296603106">
        <ele>110</ele>
        <time>2015-01-01T11:11:04Z</time>
        <extensions><gpxtpx:TrackPointExtension><gpxtpx:hr>163</gpxtpx:hr></gpxtpx:TrackPointExtension></extensions>
      </trkpt>
      <trkpt lat="63.845240268856" lon="20.352994110435">
        <ele>110</ele>
        <time>2015-01-01T11:11:06Z</time>
        <extensions><gpxtpx:TrackPointExtension><gpxtpx:hr>162</gpxtpx:hr></gpxtpx:TrackPointExtension></extensions>
      </trkpt>
      <trkpt lat="63.845321657136" lon="20.352940466255">
        <ele>109.6</ele>
        <time>2015-01-01T11:11:08Z</time>
        <extensions><gpxtpx:TrackPointExtension><gpxtpx:hr>161</gpxtpx:hr></gpxtpx:TrackPointExtension></extensions>
      </trkpt>
      <trkpt lat="63.845427855849" lon="20.352788837627">
        <ele>109</ele>
        <time>2015-01-01T11:11:10Z</time>
        <extensions><gpxtpx:TrackPointExtension><gpxtpx:hr>160</gpxtpx:hr></gpxtpx:TrackPointExtension></extensions>
      </trkpt>
      <trkpt lat="63.845479656011" lon="20.352705018595">
        <ele>108.4</ele>
        <time>2015-01-01T11:11:11Z</time>
        <extensions><gpxtpx:TrackPointExtension><gpxtpx:hr>159</gpxtpx:hr></gpxtpx:TrackPointExtension></extensions>
      </trkpt>
      <trkpt lat="63.845535228029" lon="20.352590689436">
        <ele>107.4</ele>
        <time>2015-01-01T11:11:12Z</time>
        <extensions><gpxtpx:TrackPointExtension><gpxtpx:hr>158</gpxtpx:hr></gpxtpx:TrackPointExtension></extensions>
      </trkpt>
      <trkpt lat="63.845588201657" lon="20.352481976151">
        <ele>107.2</ele>
        <time>2015-01-01T11:11:13Z</time>
        <extensions><gpxtpx:TrackPointExtension><gpxtpx:hr>157</gpxtpx:hr></gpxtpx:TrackPointExtension></extensions>
      </trkpt>
      <trkpt lat="63.845645533875" lon="20.35235482268">
        <ele>106</ele>
        <time>2015-01-01T11:11:14Z</time>
        <extensions><gpxtpx:TrackPointExtension><gpxtpx:hr>156</gpxtpx:hr></gpxtpx:TrackPointExtension></extensions>
      </trkpt>
      <trkpt lat="63.845743015409" lon="20.352099761367">
        <ele>104.8</ele>
        <time>2015-01-01T11:11:16Z</time>
        <extensions><gpxtpx:TrackPointExtension><gpxtpx:hr>154</gpxtpx:hr></gpxtpx:TrackPointExtension></extensions>
      </trkpt>
      <trkpt lat="63.845818033442" lon="20.351859284565">
        <ele>105.4</ele>
        <time>2015-01-01T11:11:18Z</time>
        <extensions><gpxtpx:TrackPointExtension><gpxtpx:hr>153</gpxtpx:hr></gpxtpx:TrackPointExtension></extensions>
      </trkpt>
      <trkpt lat="63.845965974033" lon="20.351306078956">
        <ele>106</ele>
        <time>2015-01-01T11:11:23Z</time>
        <extensions><gpxtpx:TrackPointExtension><gpxtpx:hr>151</gpxtpx:hr></gpxtpx:TrackPointExtension></extensions>
      </trkpt>
      <trkpt lat="63.8459860906" lon="20.351211614907">
        <ele>106.6</ele>
        <time>2015-01-01T11:11:24Z</time>
        <extensions><gpxtpx:TrackPointExtension><gpxtpx:hr>150</gpxtpx:hr></gpxtpx:TrackPointExtension></extensions>
      </trkpt>
      <trkpt lat="63.846015678719" lon="20.351020423695">
        <ele>107</ele>
        <time>2015-01-01T11:11:26Z</time>
        <extensions><gpxtpx:TrackPointExtension><gpxtpx:hr>150</gpxtpx:hr></gpxtpx:TrackPointExtension></extensions>
      </trkpt>
      <trkpt lat="63.846030682325" lon="20.350841553882">
        <ele>107.4</ele>
        <time>2015-01-01T11:11:28Z</time>
        <extensions><gpxtpx:TrackPointExtension><gpxtpx:hr>151</gpxtpx:hr></gpxtpx:TrackPointExtension></extensions>
      </trkpt>
      <trkpt lat="63.846030430868" lon="20.350650781766">
        <ele>107.4</ele>
        <time>2015-01-01T11:11:30Z</time>
        <extensions><gpxtpx:TrackPointExtension><gpxtpx:hr>152</gpxtpx:hr></gpxtpx:TrackPointExtension></extensions>
      </trkpt>
      <trkpt lat="63.846019115299" lon="20.350331598893">
        <ele>106.4</ele>
        <time>2015-01-01T11:11:34Z</time>
        <extensions><gpxtpx:TrackPointExtension><gpxtpx:hr>155</gpxtpx:hr></gpxtpx:TrackPointExtension></extensions>
      </trkpt>
      <trkpt lat="63.846013918519" lon="20.350245935842">
        <ele>106.2</ele>
        <time>2015-01-01T11:11:35Z</time>
        <extensions><gpxtpx:TrackPointExtension><gpxtpx:hr>155</gpxtpx:hr></gpxtpx:TrackPointExtension></extensions>
      </trkpt>
      <trkpt lat="63.846002770588" lon="20.350177623332">
        <ele>106</ele>
        <time>2015-01-01T11:11:36Z</time>
        <extensions><gpxtpx:TrackPointExtension><gpxtpx:hr>154</gpxtpx:hr></gpxtpx:TrackPointExtension></extensions>
      </trkpt>
      <trkpt lat="63.845899505541" lon="20.349761210382">
        <ele>105</ele>
        <time>2015-01-01T11:11:42Z</time>
        <extensions><gpxtpx:TrackPointExtension><gpxtpx:hr>156</gpxtpx:hr></gpxtpx:TrackPointExtension></extensions>
      </trkpt>
      <trkpt lat="63.845688281581" lon="20.349656520411">
        <ele>104.8</ele>
        <time>2015-01-01T11:11:50Z</time>
        <extensions><gpxtpx:TrackPointExtension><gpxtpx:hr>158</gpxtpx:hr></gpxtpx:TrackPointExtension></extensions>
      </trkpt>
      <trkpt lat="63.845594739541" lon="20.349655179307">
        <ele>106.2</ele>
        <time>2015-01-01T11:11:55Z</time>
        <extensions><gpxtpx:TrackPointExtension><gpxtpx:hr>160</gpxtpx:hr></gpxtpx:TrackPointExtension></extensions>
      </trkpt>
      <trkpt lat="63.845551740378" lon="20.349644366652">
        <ele>106.6</ele>
        <time>2015-01-01T11:11:57Z</time>
        <extensions><gpxtpx:TrackPointExtension><gpxtpx:hr>162</gpxtpx:hr></gpxtpx:TrackPointExtension></extensions>
      </trkpt>
      <trkpt lat="63.84547973983" lon="20.349594410509">
        <ele>107.4</ele>
        <time>2015-01-01T11:12:00Z</time>
        <extensions><gpxtpx:TrackPointExtension><gpxtpx:hr>164</gpxtpx:hr></gpxtpx:TrackPointExtension></extensions>
      </trkpt>
      <trkpt lat="63.845431795344" lon="20.34956138581">
        <ele>107.6</ele>
        <time>2015-01-01T11:12:02Z</time>
        <extensions><gpxtpx:TrackPointExtension><gpxtpx:hr>166</gpxtpx:hr></gpxtpx:TrackPointExtension></extensions>
      </trkpt>
      <trkpt lat="63.845339426771" lon="20.349505646154">
        <ele>109</ele>
        <time>2015-01-01T11:12:06Z</time>
        <extensions><gpxtpx:TrackPointExtension><gpxtpx:hr>167</gpxtpx:hr></gpxtpx:TrackPointExtension></extensions>
      </trkpt>
      <trkpt lat="63.845312437043" lon="20.349484439939">
        <ele>109.4</ele>
        <time>2015-01-01T11:12:07Z</time>
        <extensions><gpxtpx:TrackPointExtension><gpxtpx:hr>167</gpxtpx:hr></gpxtpx:TrackPointExtension></extensions>
      </trkpt>
      <trkpt lat="63.845230126753" lon="20.349303139374">
        <ele>110</ele>
        <time>2015-01-01T11:12:12Z</time>
        <extensions><gpxtpx:TrackPointExtension><gpxtpx:hr>167</gpxtpx:hr></gpxtpx:TrackPointExtension></extensions>
      </trkpt>
      <trkpt lat="63.845193749294" lon="20.349155366421">
        <ele>109.8</ele>
        <time>2015-01-01T11:12:14Z</time>
        <extensions><gpxtpx:TrackPointExtension><gpxtpx:hr>167</gpxtpx:hr></gpxtpx:TrackPointExtension></extensions>
      </trkpt>
      <trkpt lat="63.845156701282" lon="20.348957050592">
        <ele>109.6</ele>
        <time>2015-01-01T11:12:16Z</time>
        <extensions><gpxtpx:TrackPointExtension><gpxtpx:hr>166</gpxtpx:hr></gpxtpx:TrackPointExtension></extensions>
      </trkpt>
      <trkpt lat="63.845104314387" lon="20.348742473871">
        <ele>109</ele>
        <time>2015-01-01T11:12:18Z</time>
        <extensions><gpxtpx:TrackPointExtension><gpxtpx:hr>166</gpxtpx:hr></gpxtpx:TrackPointExtension></extensions>
      </trkpt>
      <trkpt lat="63.845018818974" lon="20.348575925454">
        <ele>108.2</ele>
        <time>2015-01-01T11:12:20Z</time>
        <extensions><gpxtpx:TrackPointExtension><gpxtpx:hr>165</gpxtpx:hr></gpxtpx:TrackPointExtension></extensions>
      </trkpt>
      <trkpt lat="63.844974981621" lon="20.348521107808">
        <ele>107.8</ele>
        <time>2015-01-01T11:12:21Z</time>
        <extensions><gpxtpx:TrackPointExtension><gpxtpx:hr>165</gpxtpx:hr></gpxtpx:TrackPointExtension></extensions>
      </trkpt>
      <trkpt lat="63.844927875325" lon="20.348498057574">
        <ele>107.2</ele>
        <time>2015-01-01T11:12:22Z</time>
        <extensions><gpxtpx:TrackPointExtension><gpxtpx:hr>164</gpxtpx:hr></gpxtpx:TrackPointExtension></extensions>
      </trkpt>
      <trkpt lat="63.844883451238" lon="20.34847240895">
        <ele>106.4</ele>
        <time>2015-01-01T11:12:23Z</time>
        <extensions><gpxtpx:TrackPointExtension><gpxtpx:hr>164</gpxtpx:hr></gpxtpx:TrackPointExtension></extensions>
      </trkpt>
      <trkpt lat="63.844799632207" lon="20.348437456414">
        <ele>105.4</ele>
        <time>2015-01-01T11:12:25Z</time>
        <extensions><gpxtpx:TrackPointExtension><gpxtpx:hr>163</gpxtpx:hr></gpxtpx:TrackPointExtension></extensions>
      </trkpt>
      <trkpt lat="63.844757471234" lon="20.348418094218">
        <ele>105</ele>
        <time>2015-01-01T11:12:26Z</time>
        <extensions><gpxtpx:TrackPointExtension><gpxtpx:hr>163</gpxtpx:hr></gpxtpx:TrackPointExtension></extensions>
      </trkpt>
      <trkpt lat="63.844642471522" lon="20.348361767828">
        <ele>103.6</ele>
        <time>2015-01-01T11:12:29Z</time>
        <extensions><gpxtpx:TrackPointExtension><gpxtpx:hr>162</gpxtpx:hr></gpxtpx:TrackPointExtension></extensions>
      </trkpt>
      <trkpt lat="63.844478605315" lon="20.348309632391">
        <ele>102.8</ele>
        <time>2015-01-01T11:12:33Z</time>
        <extensions><gpxtpx:TrackPointExtension><gpxtpx:hr>162</gpxtpx:hr></gpxtpx:TrackPointExtension></extensions>
      </trkpt>
      <trkpt lat="63.844434684142" lon="20.348318684846">
        <ele>102.6</ele>
        <time>2015-01-01T11:12:34Z</time>
        <extensions><gpxtpx:TrackPointExtension><gpxtpx:hr>162</gpxtpx:hr></gpxtpx:TrackPointExtension></extensions>
      </trkpt>
      <trkpt lat="63.844377854839" lon="20.348377441987">
        <ele>102.4</ele>
        <time>2015-01-01T11:12:36Z</time>
        <extensions><gpxtpx:TrackPointExtension><gpxtpx:hr>162</gpxtpx:hr></gpxtpx:TrackPointExtension></extensions>
      </trkpt>
      <trkpt lat="63.844357738271" lon="20.348474839702">
        <ele>102</ele>
        <time>2015-01-01T11:12:38Z</time>
        <extensions><gpxtpx:TrackPointExtension><gpxtpx:hr>163</gpxtpx:hr></gpxtpx:TrackPointExtension></extensions>
      </trkpt>
      <trkpt lat="63.844351200387" lon="20.3485893365">
        <ele>102</ele>
        <time>2015-01-01T11:12:40Z</time>
        <extensions><gpxtpx:TrackPointExtension><gpxtpx:hr>163</gpxtpx:hr></gpxtpx:TrackPointExtension></extensions>
      </trkpt>
      <trkpt lat="63.844376346096" lon="20.348714981228">
        <ele>102</ele>
        <time>2015-01-01T11:12:43Z</time>
        <extensions><gpxtpx:TrackPointExtension><gpxtpx:hr>165</gpxtpx:hr></gpxtpx:TrackPointExtension></extensions>
      </trkpt>
      <trkpt lat="63.844390846789" lon="20.348940370604">
        <ele>102.6</ele>
        <time>2015-01-01T11:12:48Z</time>
        <extensions><gpxtpx:TrackPointExtension><gpxtpx:hr>167</gpxtpx:hr></gpxtpx:TrackPointExtension></extensions>
      </trkpt>
      <trkpt lat="63.844428984448" lon="20.349111529067">
        <ele>103.4</ele>
        <time>2015-01-01T11:12:53Z</time>
        <extensions><gpxtpx:TrackPointExtension><gpxtpx:hr>170</gpxtpx:hr></gpxtpx:TrackPointExtension></extensions>
      </trkpt>
      <trkpt lat="63.844430325553" lon="20.349143128842">
        <ele>103.8</ele>
        <time>2015-01-01T11:12:54Z</time>
        <extensions><gpxtpx:TrackPointExtension><gpxtpx:hr>170</gpxtpx:hr></gpxtpx:TrackPointExtension></extensions>
      </trkpt>
      <trkpt lat="63.844435606152" lon="20.349211022258">
        <ele>104.2</ele>
        <time>2015-01-01T11:12:56Z</time>
        <extensions><gpxtpx:TrackPointExtension><gpxtpx:hr>171</gpxtpx:hr></gpxtpx:TrackPointExtension></extensions>
      </trkpt>
      <trkpt lat="63.844440383837" lon="20.349279502407">
        <ele>104.6</ele>
        <time>2015-01-01T11:12:58Z</time>
        <extensions><gpxtpx:TrackPointExtension><gpxtpx:hr>172</gpxtpx:hr></gpxtpx:TrackPointExtension></extensions>
      </trkpt>
      <trkpt lat="63.844446670264" lon="20.34930347465">
        <ele>105</ele>
        <time>2015-01-01T11:12:59Z</time>
        <extensions><gpxtpx:TrackPointExtension><gpxtpx:hr>172</gpxtpx:hr></gpxtpx:TrackPointExtension></extensions>
      </trkpt>
      <trkpt lat="63.844485729933" lon="20.349530037493">
        <ele>105.8</ele>
        <time>2015-01-01T11:13:04Z</time>
        <extensions><gpxtpx:TrackPointExtension><gpxtpx:hr>175</gpxtpx:hr></gpxtpx:TrackPointExtension></extensions>
      </trkpt>
      <trkpt lat="63.844496207312" lon="20.349563816562">
        <ele>106</ele>
        <time>2015-01-01T11:13:05Z</time>
        <extensions><gpxtpx:TrackPointExtension><gpxtpx:hr>175</gpxtpx:hr></gpxtpx:TrackPointExtension></extensions>
      </trkpt>
      <trkpt lat="63.844512887299" lon="20.349665069953">
        <ele>106.6</ele>
        <time>2015-01-01T11:13:08Z</time>
        <extensions><gpxtpx:TrackPointExtension><gpxtpx:hr>176</gpxtpx:hr></gpxtpx:TrackPointExtension></extensions>
      </trkpt>
      <trkpt lat="63.844532081857" lon="20.349825583398">
        <ele>107.4</ele>
        <time>2015-01-01T11:13:12Z</time>
        <extensions><gpxtpx:TrackPointExtension><gpxtpx:hr>177</gpxtpx:hr></gpxtpx:TrackPointExtension></extensions>
      </trkpt>
      <trkpt lat="63.844534093514" lon="20.350020965561">
        <ele>108.8</ele>
        <time>2015-01-01T11:13:16Z</time>
        <extensions><gpxtpx:TrackPointExtension><gpxtpx:hr>178</gpxtpx:hr></gpxtpx:TrackPointExtension></extensions>
      </trkpt>
      <trkpt lat="63.844531411305" lon="20.35011366941">
        <ele>109</ele>
        <time>2015-01-01T11:13:18Z</time>
        <extensions><gpxtpx:TrackPointExtension><gpxtpx:hr>178</gpxtpx:hr></gpxtpx:TrackPointExtension></extensions>
      </trkpt>
      <trkpt lat="63.844541553408" lon="20.350326905027">
        <ele>109.8</ele>
        <time>2015-01-01T11:13:22Z</time>
        <extensions><gpxtpx:TrackPointExtension><gpxtpx:hr>178</gpxtpx:hr></gpxtpx:TrackPointExtension></extensions>
      </trkpt>
      <trkpt lat="63.844549683854" lon="20.350489513949">
        <ele>110.2</ele>
        <time>2015-01-01T11:13:25Z</time>
        <extensions><gpxtpx:TrackPointExtension><gpxtpx:hr>178</gpxtpx:hr></gpxtpx:TrackPointExtension></extensions>
      </trkpt>
      <trkpt lat="63.844580445439" lon="20.350952446461">
        <ele>110.8</ele>
        <time>2015-01-01T11:13:32Z</time>
        <extensions><gpxtpx:TrackPointExtension><gpxtpx:hr>179</gpxtpx:hr></gpxtpx:TrackPointExtension></extensions>
      </trkpt>
      <trkpt lat="63.844627216458" lon="20.351271713153">
        <ele>111.4</ele>
        <time>2015-01-01T11:13:37Z</time>
        <extensions><gpxtpx:TrackPointExtension><gpxtpx:hr>179</gpxtpx:hr></gpxtpx:TrackPointExtension></extensions>
      </trkpt>
      <trkpt lat="63.844618247822" lon="20.351308006793">
        <ele>111.8</ele>
        <time>2015-01-01T11:13:38Z</time>
        <extensions><gpxtpx:TrackPointExtension><gpxtpx:hr>179</gpxtpx:hr></gpxtpx:TrackPointExtension></extensions>
      </trkpt>
      <trkpt lat="63.844615314156" lon="20.351356118917">
        <ele>112</ele>
        <time>2015-01-01T11:13:39Z</time>
        <extensions><gpxtpx:TrackPointExtension><gpxtpx:hr>179</gpxtpx:hr></gpxtpx:TrackPointExtension></extensions>
      </trkpt>
      <trkpt lat="63.844602238387" lon="20.351490313187">
        <ele>112.2</ele>
        <time>2015-01-01T11:13:41Z</time>
        <extensions><gpxtpx:TrackPointExtension><gpxtpx:hr>178</gpxtpx:hr></gpxtpx:TrackPointExtension></extensions>
      </trkpt>
      <trkpt lat="63.844579607248" lon="20.351573880762">
        <ele>112.4</ele>
        <time>2015-01-01T11:13:42Z</time>
        <extensions><gpxtpx:TrackPointExtension><gpxtpx:hr>179</gpxtpx:hr></gpxtpx:TrackPointExtension></extensions>
      </trkpt>
      <trkpt lat="63.844511797652" lon="20.351742273197">
        <ele>112</ele>
        <time>2015-01-01T11:13:45Z</time>
        <extensions><gpxtpx:TrackPointExtension><gpxtpx:hr>177</gpxtpx:hr></gpxtpx:TrackPointExtension></extensions>
      </trkpt>
      <trkpt lat="63.844369053841" lon="20.351874791086">
        <ele>111.2</ele>
        <time>2015-01-01T11:13:49Z</time>
        <extensions><gpxtpx:TrackPointExtension><gpxtpx:hr>174</gpxtpx:hr></gpxtpx:TrackPointExtension></extensions>
      </trkpt>
      <trkpt lat="63.844324462116" lon="20.351886609569">
        <ele>111</ele>
        <time>2015-01-01T11:13:50Z</time>
        <extensions><gpxtpx:TrackPointExtension><gpxtpx:hr>174</gpxtpx:hr></gpxtpx:TrackPointExtension></extensions>
      </trkpt>
      <trkpt lat="63.844241145998" lon="20.351898092777">
        <ele>110.4</ele>
        <time>2015-01-01T11:13:52Z</time>
        <extensions><gpxtpx:TrackPointExtension><gpxtpx:hr>173</gpxtpx:hr></gpxtpx:TrackPointExtension></extensions>
      </trkpt>
      <trkpt lat="63.844159673899" lon="20.351876802742">
        <ele>110</ele>
        <time>2015-01-01T11:13:54Z</time>
        <extensions><gpxtpx:TrackPointExtension><gpxtpx:hr>172</gpxtpx:hr></gpxtpx:TrackPointExtension></extensions>
      </trkpt>
      <trkpt lat="63.844118518755" lon="20.351855261251">
        <ele>109.8</ele>
        <time>2015-01-01T11:13:55Z</time>
        <extensions><gpxtpx:TrackPointExtension><gpxtpx:hr>171</gpxtpx:hr></gpxtpx:TrackPointExtension></extensions>
      </trkpt>
      <trkpt lat="63.843876617029" lon="20.351779488847">
        <ele>109.2</ele>
        <time>2015-01-01T11:14:01Z</time>
        <extensions><gpxtpx:TrackPointExtension><gpxtpx:hr>171</gpxtpx:hr></gpxtpx:TrackPointExtension></extensions>
      </trkpt>
      <trkpt lat="63.843773268163" lon="20.35167882219">
        <ele>109.4</ele>
        <time>2015-01-01T11:14:04Z</time>
        <extensions><gpxtpx:TrackPointExtension><gpxtpx:hr>171</gpxtpx:hr></gpxtpx:TrackPointExtension></extensions>
      </trkpt>
      <trkpt lat="63.843735549599" lon="20.351626770571">
        <ele>109.4</ele>
        <time>2015-01-01T11:14:05Z</time>
        <extensions><gpxtpx:TrackPointExtension><gpxtpx:hr>171</gpxtpx:hr></gpxtpx:TrackPointExtension></extensions>
      </trkpt>
      <trkpt lat="63.843631111085" lon="20.351416720077">
        <ele>109.8</ele>
        <time>2015-01-01T11:14:09Z</time>
        <extensions><gpxtpx:TrackPointExtension><gpxtpx:hr>171</gpxtpx:hr></gpxtpx:TrackPointExtension></extensions>
      </trkpt>
      <trkpt lat="63.843434303999" lon="20.351261654869">
        <ele>109.8</ele>
        <time>2015-01-01T11:14:15Z</time>
        <extensions><gpxtpx:TrackPointExtension><gpxtpx:hr>172</gpxtpx:hr></gpxtpx:TrackPointExtension></extensions>
      </trkpt>
      <trkpt lat="63.843210339546" lon="20.351227624342">
        <ele>109.4</ele>
        <time>2015-01-01T11:14:20Z</time>
        <extensions><gpxtpx:TrackPointExtension><gpxtpx:hr>172</gpxtpx:hr></gpxtpx:TrackPointExtension></extensions>
      </trkpt>
      <trkpt lat="63.843121072277" lon="20.351240197197">
        <ele>109.2</ele>
        <time>2015-01-01T11:14:22Z</time>
        <extensions><gpxtpx:TrackPointExtension><gpxtpx:hr>172</gpxtpx:hr></gpxtpx:TrackPointExtension></extensions>
      </trkpt>
      <trkpt lat="63.842956451699" lon="20.351238856092">
        <ele>108.8</ele>
        <time>2015-01-01T11:14:26Z</time>
        <extensions><gpxtpx:TrackPointExtension><gpxtpx:hr>171</gpxtpx:hr></gpxtpx:TrackPointExtension></extensions>
      </trkpt>
      <trkpt lat="63.84282996878" lon="20.351202310994">
        <ele>108.8</ele>
        <time>2015-01-01T11:14:29Z</time>
        <extensions><gpxtpx:TrackPointExtension><gpxtpx:hr>171</gpxtpx:hr></gpxtpx:TrackPointExtension></extensions>
      </trkpt>
      <trkpt lat="63.842480778694" lon="20.35111438483">
        <ele>108</ele>
        <time>2015-01-01T11:14:38Z</time>
        <extensions><gpxtpx:TrackPointExtension><gpxtpx:hr>170</gpxtpx:hr></gpxtpx:TrackPointExtension></extensions>
      </trkpt>
      <trkpt lat="63.842193195596" lon="20.351003324613">
        <ele>107.8</ele>
        <time>2015-01-01T11:14:46Z</time>
        <extensions><gpxtpx:TrackPointExtension><gpxtpx:hr>169</gpxtpx:hr></gpxtpx:TrackPointExtension></extensions>
      </trkpt>
      <trkpt lat="63.842128152028" lon="20.350980274379">
        <ele>107.6</ele>
        <time>2015-01-01T11:14:48Z</time>
        <extensions><gpxtpx:TrackPointExtension><gpxtpx:hr>169</gpxtpx:hr></gpxtpx:TrackPointExtension></extensions>
      </trkpt>
      <trkpt lat="63.841990856454" lon="20.350850522518">
        <ele>107.8</ele>
        <time>2015-01-01T11:14:52Z</time>
        <extensions><gpxtpx:TrackPointExtension><gpxtpx:hr>169</gpxtpx:hr></gpxtpx:TrackPointExtension></extensions>
      </trkpt>
      <trkpt lat="63.841942576692" lon="20.350713143125">
        <ele>107.8</ele>
        <time>2015-01-01T11:14:54Z</time>
        <extensions><gpxtpx:TrackPointExtension><gpxtpx:hr>168</gpxtpx:hr></gpxtpx:TrackPointExtension></extensions>
      </trkpt>
      <trkpt lat="63.841913491488" lon="20.350555479527">
        <ele>107.8</ele>
        <time>2015-01-01T11:14:56Z</time>
        <extensions><gpxtpx:TrackPointExtension><gpxtpx:hr>168</gpxtpx:hr></gpxtpx:TrackPointExtension></extensions>
      </trkpt>
      <trkpt lat="63.841921873391" lon="20.35038725473">
        <ele>107.6</ele>
        <time>2015-01-01T11:14:58Z</time>
        <extensions><gpxtpx:TrackPointExtension><gpxtpx:hr>168</gpxtpx:hr></gpxtpx:TrackPointExtension></extensions>
      </trkpt>
      <trkpt lat="63.841984067112" lon="20.349875036627">
        <ele>107.2</ele>
        <time>2015-01-01T11:15:03Z</time>
        <extensions><gpxtpx:TrackPointExtension><gpxtpx:hr>165</gpxtpx:hr></gpxtpx:TrackPointExtension></extensions>
      </trkpt>
      <trkpt lat="63.842013319954" lon="20.349645623937">
        <ele>106.8</ele>
        <time>2015-01-01T11:15:05Z</time>
        <extensions><gpxtpx:TrackPointExtension><gpxtpx:hr>164</gpxtpx:hr></gpxtpx:TrackPointExtension></extensions>
      </trkpt>
      <trkpt lat="63.842028491199" lon="20.349534731358">
        <ele>106.4</ele>
        <time>2015-01-01T11:15:06Z</time>
        <extensions><gpxtpx:TrackPointExtension><gpxtpx:hr>163</gpxtpx:hr></gpxtpx:TrackPointExtension></extensions>
      </trkpt>
      <trkpt lat="63.842048607767" lon="20.349306995049">
        <ele>105.6</ele>
        <time>2015-01-01T11:15:08Z</time>
        <extensions><gpxtpx:TrackPointExtension><gpxtpx:hr>161</gpxtpx:hr></gpxtpx:TrackPointExtension></extensions>
      </trkpt>
      <trkpt lat="63.842053050175" lon="20.349194006994">
        <ele>105</ele>
        <time>2015-01-01T11:15:09Z</time>
        <extensions><gpxtpx:TrackPointExtension><gpxtpx:hr>160</gpxtpx:hr></gpxtpx:TrackPointExtension></extensions>
      </trkpt>
      <trkpt lat="63.842044416815" lon="20.349069535732">
        <ele>104.2</ele>
        <time>2015-01-01T11:15:10Z</time>
        <extensions><gpxtpx:TrackPointExtension><gpxtpx:hr>159</gpxtpx:hr></gpxtpx:TrackPointExtension></extensions>
      </trkpt>
      <trkpt lat="63.842035867274" lon="20.348953194916">
        <ele>103.4</ele>
        <time>2015-01-01T11:15:11Z</time>
        <extensions><gpxtpx:TrackPointExtension><gpxtpx:hr>159</gpxtpx:hr></gpxtpx:TrackPointExtension></extensions>
      </trkpt>
      <trkpt lat="63.842019941658" lon="20.348822353408">
        <ele>103</ele>
        <time>2015-01-01T11:15:12Z</time>
        <extensions><gpxtpx:TrackPointExtension><gpxtpx:hr>158</gpxtpx:hr></gpxtpx:TrackPointExtension></extensions>
      </trkpt>
      <trkpt lat="63.841997981071" lon="20.348582714796">
        <ele>102</ele>
        <time>2015-01-01T11:15:14Z</time>
        <extensions><gpxtpx:TrackPointExtension><gpxtpx:hr>156</gpxtpx:hr></gpxtpx:TrackPointExtension></extensions>
      </trkpt>
      <trkpt lat="63.841994879767" lon="20.348371407017">
        <ele>101</ele>
        <time>2015-01-01T11:15:16Z</time>
        <extensions><gpxtpx:TrackPointExtension><gpxtpx:hr>155</gpxtpx:hr></gpxtpx:TrackPointExtension></extensions>
      </trkpt>
      <trkpt lat="63.841996137053" lon="20.348277194425">
        <ele>100.8</ele>
        <time>2015-01-01T11:15:17Z</time>
        <extensions><gpxtpx:TrackPointExtension><gpxtpx:hr>155</gpxtpx:hr></gpxtpx:TrackPointExtension></extensions>
      </trkpt>
      <trkpt lat="63.842020779848" lon="20.347697837278">
        <ele>101</ele>
        <time>2015-01-01T11:15:24Z</time>
        <extensions><gpxtpx:TrackPointExtension><gpxtpx:hr>157</gpxtpx:hr></gpxtpx:TrackPointExtension></extensions>
      </trkpt>
      <trkpt lat="63.841979876161" lon="20.347271533683">
        <ele>101.6</ele>
        <time>2015-01-01T11:15:29Z</time>
        <extensions><gpxtpx:TrackPointExtension><gpxtpx:hr>159</gpxtpx:hr></gpxtpx:TrackPointExtension></extensions>
      </trkpt>
      <trkpt lat="63.841933440417" lon="20.34700951539">
        <ele>101.8</ele>
        <time>2015-01-01T11:15:32Z</time>
        <extensions><gpxtpx:TrackPointExtension><gpxtpx:hr>160</gpxtpx:hr></gpxtpx:TrackPointExtension></extensions>
      </trkpt>
      <trkpt lat="63.841915503144" lon="20.346917314455">
        <ele>101.8</ele>
        <time>2015-01-01T11:15:33Z</time>
        <extensions><gpxtpx:TrackPointExtension><gpxtpx:hr>160</gpxtpx:hr></gpxtpx:TrackPointExtension></extensions>
      </trkpt>
      <trkpt lat="63.841811819002" lon="20.346484472975">
        <ele>101.4</ele>
        <time>2015-01-01T11:15:38Z</time>
        <extensions><gpxtpx:TrackPointExtension><gpxtpx:hr>160</gpxtpx:hr></gpxtpx:TrackPointExtension></extensions>
      </trkpt>
      <trkpt lat="63.841724479571" lon="20.346223795786">
        <ele>101</ele>
        <time>2015-01-01T11:15:41Z</time>
        <extensions><gpxtpx:TrackPointExtension><gpxtpx:hr>159</gpxtpx:hr></gpxtpx:TrackPointExtension></extensions>
      </trkpt>
      <trkpt lat="63.841693550348" lon="20.346155315638">
        <ele>101</ele>
        <time>2015-01-01T11:15:42Z</time>
        <extensions><gpxtpx:TrackPointExtension><gpxtpx:hr>159</gpxtpx:hr></gpxtpx:TrackPointExtension></extensions>
      </trkpt>
      <trkpt lat="63.841569079086" lon="20.34590922296">
        <ele>100.4</ele>
        <time>2015-01-01T11:15:46Z</time>
        <extensions><gpxtpx:TrackPointExtension><gpxtpx:hr>159</gpxtpx:hr></gpxtpx:TrackPointExtension></extensions>
      </trkpt>
      <trkpt lat="63.841485846788" lon="20.345812914893">
        <ele>100.2</ele>
        <time>2015-01-01T11:15:48Z</time>
        <extensions><gpxtpx:TrackPointExtension><gpxtpx:hr>159</gpxtpx:hr></gpxtpx:TrackPointExtension></extensions>
      </trkpt>
      <trkpt lat="63.841384844854" lon="20.345777794719">
        <ele>99.8</ele>
        <time>2015-01-01T11:15:50Z</time>
        <extensions><gpxtpx:TrackPointExtension><gpxtpx:hr>159</gpxtpx:hr></gpxtpx:TrackPointExtension></extensions>
      </trkpt>
      <trkpt lat="63.841331871226" lon="20.345762372017">
        <ele>100</ele>
        <time>2015-01-01T11:15:51Z</time>
        <extensions><gpxtpx:TrackPointExtension><gpxtpx:hr>158</gpxtpx:hr></gpxtpx:TrackPointExtension></extensions>
      </trkpt>
      <trkpt lat="63.841256098822" lon="20.34582179971">
        <ele>99.8</ele>
        <time>2015-01-01T11:15:53Z</time>
        <extensions><gpxtpx:TrackPointExtension><gpxtpx:hr>159</gpxtpx:hr></gpxtpx:TrackPointExtension></extensions>
      </trkpt>
      <trkpt lat="63.841243023053" lon="20.345832277089">
        <ele>99.6</ele>
        <time>2015-01-01T11:15:54Z</time>
        <extensions><gpxtpx:TrackPointExtension><gpxtpx:hr>159</gpxtpx:hr></gpxtpx:TrackPointExtension></extensions>
      </trkpt>
      <trkpt lat="63.841181667522" lon="20.345883406699">
        <ele>99.6</ele>
        <time>2015-01-01T11:15:55Z</time>
        <extensions><gpxtpx:TrackPointExtension><gpxtpx:hr>160</gpxtpx:hr></gpxtpx:TrackPointExtension></extensions>
      </trkpt>
      <trkpt lat="63.841094076633" lon="20.346077363938">
        <ele>99.4</ele>
        <time>2015-01-01T11:15:58Z</time>
        <extensions><gpxtpx:TrackPointExtension><gpxtpx:hr>162</gpxtpx:hr></gpxtpx:TrackPointExtension></extensions>
      </trkpt>
      <trkpt lat="63.841021740809" lon="20.346358073875">
        <ele>101</ele>
        <time>2015-01-01T11:16:02Z</time>
        <extensions><gpxtpx:TrackPointExtension><gpxtpx:hr>164</gpxtpx:hr></gpxtpx:TrackPointExtension></extensions>
      </trkpt>
      <trkpt lat="63.840987375006" lon="20.346556976438">
        <ele>101.4</ele>
        <time>2015-01-01T11:16:05Z</time>
        <extensions><gpxtpx:TrackPointExtension><gpxtpx:hr>166</gpxtpx:hr></gpxtpx:TrackPointExtension></extensions>
      </trkpt>
      <trkpt lat="63.840928366408" lon="20.346851516515">
        <ele>101.6</ele>
        <time>2015-01-01T11:16:09Z</time>
        <extensions><gpxtpx:TrackPointExtension><gpxtpx:hr>168</gpxtpx:hr></gpxtpx:TrackPointExtension></extensions>
      </trkpt>
      <trkpt lat="63.8408944197" lon="20.346880601719">
        <ele>101.6</ele>
        <time>2015-01-01T11:16:10Z</time>
        <extensions><gpxtpx:TrackPointExtension><gpxtpx:hr>168</gpxtpx:hr></gpxtpx:TrackPointExtension></extensions>
      </trkpt>
      <trkpt lat="63.840816719458" lon="20.34694715403">
        <ele>101.8</ele>
        <time>2015-01-01T11:16:14Z</time>
        <extensions><gpxtpx:TrackPointExtension><gpxtpx:hr>169</gpxtpx:hr></gpxtpx:TrackPointExtension></extensions>
      </trkpt>
      <trkpt lat="63.840654864907" lon="20.346984872594">
        <ele>102</ele>
        <time>2015-01-01T11:16:17Z</time>
        <extensions><gpxtpx:TrackPointExtension><gpxtpx:hr>169</gpxtpx:hr></gpxtpx:TrackPointExtension></extensions>
      </trkpt>
      <trkpt lat="63.840582361445" lon="20.346978753805">
        <ele>102.2</ele>
        <time>2015-01-01T11:16:19Z</time>
        <extensions><gpxtpx:TrackPointExtension><gpxtpx:hr>169</gpxtpx:hr></gpxtpx:TrackPointExtension></extensions>
      </trkpt>
      <trkpt lat="63.840469876304" lon="20.346897197887">
        <ele>102</ele>
        <time>2015-01-01T11:16:22Z</time>
        <extensions><gpxtpx:TrackPointExtension><gpxtpx:hr>170</gpxtpx:hr></gpxtpx:TrackPointExtension></extensions>
      </trkpt>
      <trkpt lat="63.840425619856" lon="20.346840536222">
        <ele>102</ele>
        <time>2015-01-01T11:16:23Z</time>
        <extensions><gpxtpx:TrackPointExtension><gpxtpx:hr>170</gpxtpx:hr></gpxtpx:TrackPointExtension></extensions>
      </trkpt>
      <trkpt lat="63.840283965692" lon="20.346603579819">
        <ele>101.8</ele>
        <time>2015-01-01T11:16:27Z</time>
        <extensions><gpxtpx:TrackPointExtension><gpxtpx:hr>171</gpxtpx:hr></gpxtpx:TrackPointExtension></extensions>
      </trkpt>
      <trkpt lat="63.840259993449" lon="20.346561586484">
        <ele>101.8</ele>
        <time>2015-01-01T11:16:28Z</time>
        <extensions><gpxtpx:TrackPointExtension><gpxtpx:hr>171</gpxtpx:hr></gpxtpx:TrackPointExtension></extensions>
      </trkpt>
      <trkpt lat="63.840228309855" lon="20.34649444744">
        <ele>101.8</ele>
        <time>2015-01-01T11:16:29Z</time>
        <extensions><gpxtpx:TrackPointExtension><gpxtpx:hr>171</gpxtpx:hr></gpxtpx:TrackPointExtension></extensions>
      </trkpt>
      <trkpt lat="63.840118171647" lon="20.346213150769">
        <ele>101.2</ele>
        <time>2015-01-01T11:16:33Z</time>
        <extensions><gpxtpx:TrackPointExtension><gpxtpx:hr>172</gpxtpx:hr></gpxtpx:TrackPointExtension></extensions>
      </trkpt>
      <trkpt lat="63.839953718707" lon="20.345963034779">
        <ele>101</ele>
        <time>2015-01-01T11:16:37Z</time>
        <extensions><gpxtpx:TrackPointExtension><gpxtpx:hr>171</gpxtpx:hr></gpxtpx:TrackPointExtension></extensions>
      </trkpt>
      <trkpt lat="63.839920274913" lon="20.34593696706">
        <ele>101</ele>
        <time>2015-01-01T11:16:38Z</time>
        <extensions><gpxtpx:TrackPointExtension><gpxtpx:hr>171</gpxtpx:hr></gpxtpx:TrackPointExtension></extensions>
      </trkpt>
      <trkpt lat="63.839767975733" lon="20.345818279311">
        <ele>100</ele>
        <time>2015-01-01T11:16:41Z</time>
        <extensions><gpxtpx:TrackPointExtension><gpxtpx:hr>171</gpxtpx:hr></gpxtpx:TrackPointExtension></extensions>
      </trkpt>
      <trkpt lat="63.839675020427" lon="20.345823727548">
        <ele>98.8</ele>
        <time>2015-01-01T11:16:43Z</time>
        <extensions><gpxtpx:TrackPointExtension><gpxtpx:hr>170</gpxtpx:hr></gpxtpx:TrackPointExtension></extensions>
      </trkpt>
      <trkpt lat="63.83959597908" lon="20.345885753632">
        <ele>98</ele>
        <time>2015-01-01T11:16:45Z</time>
        <extensions><gpxtpx:TrackPointExtension><gpxtpx:hr>170</gpxtpx:hr></gpxtpx:TrackPointExtension></extensions>
      </trkpt>
      <trkpt lat="63.839565552771" lon="20.345915593207">
        <ele>97.8</ele>
        <time>2015-01-01T11:16:46Z</time>
        <extensions><gpxtpx:TrackPointExtension><gpxtpx:hr>170</gpxtpx:hr></gpxtpx:TrackPointExtension></extensions>
      </trkpt>
      <trkpt lat="63.83951626718" lon="20.345963370055">
        <ele>97.2</ele>
        <time>2015-01-01T11:16:47Z</time>
        <extensions><gpxtpx:TrackPointExtension><gpxtpx:hr>170</gpxtpx:hr></gpxtpx:TrackPointExtension></extensions>
      </trkpt>
      <trkpt lat="63.839458599687" lon="20.346068814397">
        <ele>97.4</ele>
        <time>2015-01-01T11:16:49Z</time>
        <extensions><gpxtpx:TrackPointExtension><gpxtpx:hr>170</gpxtpx:hr></gpxtpx:TrackPointExtension></extensions>
      </trkpt>
      <trkpt lat="63.839432280511" lon="20.34610921517">
        <ele>97.4</ele>
        <time>2015-01-01T11:16:50Z</time>
        <extensions><gpxtpx:TrackPointExtension><gpxtpx:hr>170</gpxtpx:hr></gpxtpx:TrackPointExtension></extensions>
      </trkpt>
      <trkpt lat="63.839319208637" lon="20.346369054168">
        <ele>97.8</ele>
        <time>2015-01-01T11:16:54Z</time>
        <extensions><gpxtpx:TrackPointExtension><gpxtpx:hr>170</gpxtpx:hr></gpxtpx:TrackPointExtension></extensions>
      </trkpt>
      <trkpt lat="63.839272102341" lon="20.346560329199">
        <ele>98.4</ele>
        <time>2015-01-01T11:16:57Z</time>
        <extensions><gpxtpx:TrackPointExtension><gpxtpx:hr>171</gpxtpx:hr></gpxtpx:TrackPointExtension></extensions>
      </trkpt>
      <trkpt lat="63.839243855327" lon="20.346680441871">
        <ele>98.8</ele>
        <time>2015-01-01T11:16:59Z</time>
        <extensions><gpxtpx:TrackPointExtension><gpxtpx:hr>172</gpxtpx:hr></gpxtpx:TrackPointExtension></extensions>
      </trkpt>
      <trkpt lat="63.839152324945" lon="20.346883786842">
        <ele>99.4</ele>
        <time>2015-01-01T11:17:03Z</time>
        <extensions><gpxtpx:TrackPointExtension><gpxtpx:hr>174</gpxtpx:hr></gpxtpx:TrackPointExtension></extensions>
      </trkpt>
      <trkpt lat="63.839137321338" lon="20.346892001107">
        <ele>99.6</ele>
        <time>2015-01-01T11:17:04Z</time>
        <extensions><gpxtpx:TrackPointExtension><gpxtpx:hr>174</gpxtpx:hr></gpxtpx:TrackPointExtension></extensions>
      </trkpt>
      <trkpt lat="63.838997930288" lon="20.34689527005">
        <ele>99.8</ele>
        <time>2015-01-01T11:17:08Z</time>
        <extensions><gpxtpx:TrackPointExtension><gpxtpx:hr>175</gpxtpx:hr></gpxtpx:TrackPointExtension></extensions>
      </trkpt>
      <trkpt lat="63.838805900887" lon="20.346827628091">
        <ele>100</ele>
        <time>2015-01-01T11:17:14Z</time>
        <extensions><gpxtpx:TrackPointExtension><gpxtpx:hr>174</gpxtpx:hr></gpxtpx:TrackPointExtension></extensions>
      </trkpt>
      <trkpt lat="63.838630216196" lon="20.346763003618">
        <ele>99.8</ele>
        <time>2015-01-01T11:17:19Z</time>
        <extensions><gpxtpx:TrackPointExtension><gpxtpx:hr>173</gpxtpx:hr></gpxtpx:TrackPointExtension></extensions>
      </trkpt>
      <trkpt lat="63.838552096859" lon="20.34657147713">
        <ele>99.8</ele>
        <time>2015-01-01T11:17:23Z</time>
        <extensions><gpxtpx:TrackPointExtension><gpxtpx:hr>172</gpxtpx:hr></gpxtpx:TrackPointExtension></extensions>
      </trkpt>
      <trkpt lat="63.838566262275" lon="20.346242822707">
        <ele>99.6</ele>
        <time>2015-01-01T11:17:27Z</time>
        <extensions><gpxtpx:TrackPointExtension><gpxtpx:hr>171</gpxtpx:hr></gpxtpx:TrackPointExtension></extensions>
      </trkpt>
      <trkpt lat="63.838592162356" lon="20.345828253776">
        <ele>98.2</ele>
        <time>2015-01-01T11:17:31Z</time>
        <extensions><gpxtpx:TrackPointExtension><gpxtpx:hr>169</gpxtpx:hr></gpxtpx:TrackPointExtension></extensions>
      </trkpt>
      <trkpt lat="63.838611189276" lon="20.345596326515">
        <ele>97.2</ele>
        <time>2015-01-01T11:17:33Z</time>
        <extensions><gpxtpx:TrackPointExtension><gpxtpx:hr>168</gpxtpx:hr></gpxtpx:TrackPointExtension></extensions>
      </trkpt>
      <trkpt lat="63.838618900627" lon="20.345523487777">
        <ele>97</ele>
        <time>2015-01-01T11:17:34Z</time>
        <extensions><gpxtpx:TrackPointExtension><gpxtpx:hr>167</gpxtpx:hr></gpxtpx:TrackPointExtension></extensions>
      </trkpt>
      <trkpt lat="63.838657876477" lon="20.34508000128">
        <ele>95.4</ele>
        <time>2015-01-01T11:17:37Z</time>
        <extensions><gpxtpx:TrackPointExtension><gpxtpx:hr>165</gpxtpx:hr></gpxtpx:TrackPointExtension></extensions>
      </trkpt>
      <trkpt lat="63.83866885677" lon="20.34485838376">
        <ele>94.4</ele>
        <time>2015-01-01T11:17:39Z</time>
        <extensions><gpxtpx:TrackPointExtension><gpxtpx:hr>164</gpxtpx:hr></gpxtpx:TrackPointExtension></extensions>
      </trkpt>
      <trkpt lat="63.838673885912" lon="20.344785880297">
        <ele>94.2</ele>
        <time>2015-01-01T11:17:40Z</time>
        <extensions><gpxtpx:TrackPointExtension><gpxtpx:hr>163</gpxtpx:hr></gpxtpx:TrackPointExtension></extensions>
      </trkpt>
      <trkpt lat="63.838690565899" lon="20.344429481775">
        <ele>93.6</ele>
        <time>2015-01-01T11:17:43Z</time>
        <extensions><gpxtpx:TrackPointExtension><gpxtpx:hr>160</gpxtpx:hr></gpxtpx:TrackPointExtension></extensions>
      </trkpt>
      <trkpt lat="63.838696181774" lon="20.344372149557">
        <ele>93.4</ele>
        <time>2015-01-01T11:17:44Z</time>
        <extensions><gpxtpx:TrackPointExtension><gpxtpx:hr>159</gpxtpx:hr></gpxtpx:TrackPointExtension></extensions>
      </trkpt>
      <trkpt lat="63.8387130294" lon="20.344153884798">
        <ele>93.2</ele>
        <time>2015-01-01T11:17:46Z</time>
        <extensions><gpxtpx:TrackPointExtension><gpxtpx:hr>158</gpxtpx:hr></gpxtpx:TrackPointExtension></extensions>
      </trkpt>
      <trkpt lat="63.838721327484" lon="20.344042321667">
        <ele>93</ele>
        <time>2015-01-01T11:17:47Z</time>
        <extensions><gpxtpx:TrackPointExtension><gpxtpx:hr>157</gpxtpx:hr></gpxtpx:TrackPointExtension></extensions>
      </trkpt>
      <trkpt lat="63.838760051876" lon="20.34370880574">
        <ele>92.4</ele>
        <time>2015-01-01T11:17:51Z</time>
        <extensions><gpxtpx:TrackPointExtension><gpxtpx:hr>155</gpxtpx:hr></gpxtpx:TrackPointExtension></extensions>
      </trkpt>
      <trkpt lat="63.838773211464" lon="20.343557009473">
        <ele>92.4</ele>
        <time>2015-01-01T11:17:53Z</time>
        <extensions><gpxtpx:TrackPointExtension><gpxtpx:hr>155</gpxtpx:hr></gpxtpx:TrackPointExtension></extensions>
      </trkpt>
      <trkpt lat="63.838797351345" lon="20.343156270683">
        <ele>93.2</ele>
        <time>2015-01-01T11:17:59Z</time>
        <extensions><gpxtpx:TrackPointExtension><gpxtpx:hr>154</gpxtpx:hr></gpxtpx:TrackPointExtension></extensions>
      </trkpt>
      <trkpt lat="63.838798357174" lon="20.343126766384">
        <ele>93.2</ele>
        <time>2015-01-01T11:18:00Z</time>
        <extensions><gpxtpx:TrackPointExtension><gpxtpx:hr>154</gpxtpx:hr></gpxtpx:TrackPointExtension></extensions>
      </trkpt>
    </trkseg>
  </trk>
</gpx>